<?xml version="1.0" encoding="UTF-8" standalone="no" ?>
<gpx xmlns="http://www.topografix.com/GPX/1/1" xmlns:xsi="http://www.w3.org/2001/XMLSchema-instance" xsi:schemaLocation="http://www.topografix.com/GPX/1/1 http://www.topografix.com/GPX/1/1/gpx.xsd" version="1.1" creator="VisuGPX - https://www.visugpx.com">
  <metadata>
    <name>bouillouses</name>
    <desc><![CDATA[les balmettes]]></desc>
  </metadata>
  <trk>
    <name><![CDATA[2013-01-27T07:15:02Z]]></name>
    <trkseg>
      <trkpt lat="42.55885" lon="2.00338">
        <ele>2015.5415039</ele>
        <time>2013-01-27T07:15:13Z</time>
      </trkpt>
      <trkpt lat="42.55883" lon="2.00339">
        <ele>2014.0993652</ele>
        <time>2013-01-27T07:15:20Z</time>
      </trkpt>
      <trkpt lat="42.55884" lon="2.00338">
        <ele>2013.6186523</ele>
        <time>2013-01-27T07:15:27Z</time>
      </trkpt>
      <trkpt lat="42.55884" lon="2.00338">
        <ele>2012.6574707</ele>
        <time>2013-01-27T07:15:37Z</time>
      </trkpt>
      <trkpt lat="42.5588" lon="2.00338">
        <ele>2016.9833984</ele>
        <time>2013-01-27T07:16:01Z</time>
      </trkpt>
      <trkpt lat="42.55881" lon="2.00339">
        <ele>2016.0219727</ele>
        <time>2013-01-27T07:16:11Z</time>
      </trkpt>
      <trkpt lat="42.55884" lon="2.00338">
        <ele>2010.7346191</ele>
        <time>2013-01-27T07:16:25Z</time>
      </trkpt>
      <trkpt lat="42.55885" lon="2.00334">
        <ele>2009.2927246</ele>
        <time>2013-01-27T07:16:38Z</time>
      </trkpt>
      <trkpt lat="42.55884" lon="2.00331">
        <ele>2008.8120117</ele>
        <time>2013-01-27T07:16:46Z</time>
      </trkpt>
      <trkpt lat="42.55886" lon="2.00322">
        <ele>2008.3312988</ele>
        <time>2013-01-27T07:16:55Z</time>
      </trkpt>
      <trkpt lat="42.55889" lon="2.00316">
        <ele>2008.3312988</ele>
        <time>2013-01-27T07:17:02Z</time>
      </trkpt>
      <trkpt lat="42.55894" lon="2.00314">
        <ele>2009.7731934</ele>
        <time>2013-01-27T07:17:08Z</time>
      </trkpt>
      <trkpt lat="42.559" lon="2.00314">
        <ele>2011.6960449</ele>
        <time>2013-01-27T07:17:16Z</time>
      </trkpt>
      <trkpt lat="42.55907" lon="2.00315">
        <ele>2014.5800781</ele>
        <time>2013-01-27T07:17:23Z</time>
      </trkpt>
      <trkpt lat="42.55917" lon="2.00317">
        <ele>2017.4638672</ele>
        <time>2013-01-27T07:17:33Z</time>
      </trkpt>
      <trkpt lat="42.55926" lon="2.00325">
        <ele>2016.0219727</ele>
        <time>2013-01-27T07:17:44Z</time>
      </trkpt>
      <trkpt lat="42.55931" lon="2.00333">
        <ele>2016.5026855</ele>
        <time>2013-01-27T07:17:51Z</time>
      </trkpt>
      <trkpt lat="42.55936" lon="2.00341">
        <ele>2018.425293</ele>
        <time>2013-01-27T07:17:58Z</time>
      </trkpt>
      <trkpt lat="42.55943" lon="2.00349">
        <ele>2019.3867188</ele>
        <time>2013-01-27T07:18:07Z</time>
      </trkpt>
      <trkpt lat="42.55947" lon="2.00351">
        <ele>2019.3867188</ele>
        <time>2013-01-27T07:18:14Z</time>
      </trkpt>
      <trkpt lat="42.55953" lon="2.00355">
        <ele>2018.9060059</ele>
        <time>2013-01-27T07:18:22Z</time>
      </trkpt>
      <trkpt lat="42.55959" lon="2.00361">
        <ele>2019.8671875</ele>
        <time>2013-01-27T07:18:30Z</time>
      </trkpt>
      <trkpt lat="42.55965" lon="2.00367">
        <ele>2021.309082</ele>
        <time>2013-01-27T07:18:38Z</time>
      </trkpt>
      <trkpt lat="42.55972" lon="2.00372">
        <ele>2022.7512207</ele>
        <time>2013-01-27T07:18:46Z</time>
      </trkpt>
      <trkpt lat="42.55975" lon="2.00374">
        <ele>2024.1931152</ele>
        <time>2013-01-27T07:18:50Z</time>
      </trkpt>
      <trkpt lat="42.55986" lon="2.00374">
        <ele>2023.2319336</ele>
        <time>2013-01-27T07:18:59Z</time>
      </trkpt>
      <trkpt lat="42.55987" lon="2.00374">
        <ele>2022.7512207</ele>
        <time>2013-01-27T07:19:00Z</time>
      </trkpt>
      <trkpt lat="42.55991" lon="2.00375">
        <ele>2023.2319336</ele>
        <time>2013-01-27T07:19:05Z</time>
      </trkpt>
      <trkpt lat="42.56002" lon="2.00372">
        <ele>2025.1542969</ele>
        <time>2013-01-27T07:19:15Z</time>
      </trkpt>
      <trkpt lat="42.56003" lon="2.00372">
        <ele>2025.1542969</ele>
        <time>2013-01-27T07:19:16Z</time>
      </trkpt>
      <trkpt lat="42.56007" lon="2.00368">
        <ele>2023.7124023</ele>
        <time>2013-01-27T07:19:19Z</time>
      </trkpt>
      <trkpt lat="42.56013" lon="2.00357">
        <ele>2022.7512207</ele>
        <time>2013-01-27T07:19:27Z</time>
      </trkpt>
      <trkpt lat="42.56014" lon="2.00353">
        <ele>2022.7512207</ele>
        <time>2013-01-27T07:19:31Z</time>
      </trkpt>
      <trkpt lat="42.56016" lon="2.00346">
        <ele>2019.3867188</ele>
        <time>2013-01-27T07:19:43Z</time>
      </trkpt>
      <trkpt lat="42.56017" lon="2.00341">
        <ele>2018.9060059</ele>
        <time>2013-01-27T07:19:50Z</time>
      </trkpt>
      <trkpt lat="42.56019" lon="2.00337">
        <ele>2019.8671875</ele>
        <time>2013-01-27T07:19:56Z</time>
      </trkpt>
      <trkpt lat="42.56027" lon="2.00335">
        <ele>2019.3867188</ele>
        <time>2013-01-27T07:20:03Z</time>
      </trkpt>
      <trkpt lat="42.56034" lon="2.00335">
        <ele>2023.7124023</ele>
        <time>2013-01-27T07:20:11Z</time>
      </trkpt>
      <trkpt lat="42.56041" lon="2.00331">
        <ele>2024.6738281</ele>
        <time>2013-01-27T07:20:19Z</time>
      </trkpt>
      <trkpt lat="42.56042" lon="2.00328">
        <ele>2025.6350098</ele>
        <time>2013-01-27T07:20:21Z</time>
      </trkpt>
      <trkpt lat="42.56045" lon="2.00318">
        <ele>2021.7897949</ele>
        <time>2013-01-27T07:20:30Z</time>
      </trkpt>
      <trkpt lat="42.56047" lon="2.00307">
        <ele>2018.425293</ele>
        <time>2013-01-27T07:20:39Z</time>
      </trkpt>
      <trkpt lat="42.56047" lon="2.003">
        <ele>2016.0219727</ele>
        <time>2013-01-27T07:20:47Z</time>
      </trkpt>
      <trkpt lat="42.56047" lon="2.00295">
        <ele>2015.060791</ele>
        <time>2013-01-27T07:20:52Z</time>
      </trkpt>
      <trkpt lat="42.56045" lon="2.00286">
        <ele>2016.9833984</ele>
        <time>2013-01-27T07:21:00Z</time>
      </trkpt>
      <trkpt lat="42.56043" lon="2.00283">
        <ele>2019.3867188</ele>
        <time>2013-01-27T07:21:12Z</time>
      </trkpt>
      <trkpt lat="42.56041" lon="2.00277">
        <ele>2024.6738281</ele>
        <time>2013-01-27T07:21:25Z</time>
      </trkpt>
      <trkpt lat="42.56039" lon="2.00265">
        <ele>2021.7897949</ele>
        <time>2013-01-27T07:21:35Z</time>
      </trkpt>
      <trkpt lat="42.56037" lon="2.00256">
        <ele>2023.2319336</ele>
        <time>2013-01-27T07:21:42Z</time>
      </trkpt>
      <trkpt lat="42.56036" lon="2.00252">
        <ele>2024.1931152</ele>
        <time>2013-01-27T07:21:46Z</time>
      </trkpt>
      <trkpt lat="42.56034" lon="2.00239">
        <ele>2027.0771484</ele>
        <time>2013-01-27T07:21:54Z</time>
      </trkpt>
      <trkpt lat="42.56033" lon="2.0023">
        <ele>2026.1157227</ele>
        <time>2013-01-27T07:22:01Z</time>
      </trkpt>
      <trkpt lat="42.5603" lon="2.00217">
        <ele>2027.5576172</ele>
        <time>2013-01-27T07:22:11Z</time>
      </trkpt>
      <trkpt lat="42.5603" lon="2.00215">
        <ele>2025.1542969</ele>
        <time>2013-01-27T07:22:22Z</time>
      </trkpt>
      <trkpt lat="42.5603" lon="2.00212">
        <ele>2021.309082</ele>
        <time>2013-01-27T07:22:29Z</time>
      </trkpt>
      <trkpt lat="42.56031" lon="2.00205">
        <ele>2018.9060059</ele>
        <time>2013-01-27T07:22:35Z</time>
      </trkpt>
      <trkpt lat="42.5603" lon="2.00197">
        <ele>2018.9060059</ele>
        <time>2013-01-27T07:22:43Z</time>
      </trkpt>
      <trkpt lat="42.56029" lon="2.00188">
        <ele>2016.0219727</ele>
        <time>2013-01-27T07:22:51Z</time>
      </trkpt>
      <trkpt lat="42.56029" lon="2.00177">
        <ele>2009.2927246</ele>
        <time>2013-01-27T07:23:02Z</time>
      </trkpt>
      <trkpt lat="42.56026" lon="2.00166">
        <ele>2012.1767578</ele>
        <time>2013-01-27T07:23:10Z</time>
      </trkpt>
      <trkpt lat="42.56023" lon="2.0016">
        <ele>2019.3867188</ele>
        <time>2013-01-27T07:23:16Z</time>
      </trkpt>
      <trkpt lat="42.56019" lon="2.00158">
        <ele>2024.1931152</ele>
        <time>2013-01-27T07:23:28Z</time>
      </trkpt>
      <trkpt lat="42.5602" lon="2.00158">
        <ele>2025.1542969</ele>
        <time>2013-01-27T07:23:39Z</time>
      </trkpt>
      <trkpt lat="42.5602" lon="2.00154">
        <ele>2025.6350098</ele>
        <time>2013-01-27T07:23:53Z</time>
      </trkpt>
      <trkpt lat="42.5602" lon="2.00151">
        <ele>2023.7124023</ele>
        <time>2013-01-27T07:24:01Z</time>
      </trkpt>
      <trkpt lat="42.56019" lon="2.00151">
        <ele>2024.1931152</ele>
        <time>2013-01-27T07:24:11Z</time>
      </trkpt>
      <trkpt lat="42.56017" lon="2.00143">
        <ele>2023.7124023</ele>
        <time>2013-01-27T07:24:19Z</time>
      </trkpt>
      <trkpt lat="42.56015" lon="2.0013">
        <ele>2023.2319336</ele>
        <time>2013-01-27T07:24:29Z</time>
      </trkpt>
      <trkpt lat="42.56013" lon="2.00116">
        <ele>2023.2319336</ele>
        <time>2013-01-27T07:24:41Z</time>
      </trkpt>
      <trkpt lat="42.56011" lon="2.00103">
        <ele>2023.2319336</ele>
        <time>2013-01-27T07:24:51Z</time>
      </trkpt>
      <trkpt lat="42.56009" lon="2.00091">
        <ele>2023.7124023</ele>
        <time>2013-01-27T07:25:01Z</time>
      </trkpt>
      <trkpt lat="42.56006" lon="2.00076">
        <ele>2022.7512207</ele>
        <time>2013-01-27T07:25:12Z</time>
      </trkpt>
      <trkpt lat="42.56004" lon="2.0006">
        <ele>2021.7897949</ele>
        <time>2013-01-27T07:25:24Z</time>
      </trkpt>
      <trkpt lat="42.56002" lon="2.00043">
        <ele>2021.309082</ele>
        <time>2013-01-27T07:25:36Z</time>
      </trkpt>
      <trkpt lat="42.55999" lon="2.00027">
        <ele>2020.3479004</ele>
        <time>2013-01-27T07:25:47Z</time>
      </trkpt>
      <trkpt lat="42.55997" lon="2.00013">
        <ele>2021.309082</ele>
        <time>2013-01-27T07:25:57Z</time>
      </trkpt>
      <trkpt lat="42.55995" lon="1.99999">
        <ele>2022.2705078</ele>
        <time>2013-01-27T07:26:07Z</time>
      </trkpt>
      <trkpt lat="42.55991" lon="1.99981">
        <ele>2021.7897949</ele>
        <time>2013-01-27T07:26:19Z</time>
      </trkpt>
      <trkpt lat="42.55989" lon="1.99964">
        <ele>2021.309082</ele>
        <time>2013-01-27T07:26:30Z</time>
      </trkpt>
      <trkpt lat="42.55986" lon="1.99949">
        <ele>2021.7897949</ele>
        <time>2013-01-27T07:26:40Z</time>
      </trkpt>
      <trkpt lat="42.55983" lon="1.99932">
        <ele>2021.309082</ele>
        <time>2013-01-27T07:26:51Z</time>
      </trkpt>
      <trkpt lat="42.55981" lon="1.99916">
        <ele>2020.3479004</ele>
        <time>2013-01-27T07:27:01Z</time>
      </trkpt>
      <trkpt lat="42.55978" lon="1.99906">
        <ele>2019.8671875</ele>
        <time>2013-01-27T07:27:09Z</time>
      </trkpt>
      <trkpt lat="42.55976" lon="1.9989">
        <ele>2022.2705078</ele>
        <time>2013-01-27T07:27:20Z</time>
      </trkpt>
      <trkpt lat="42.55984" lon="1.9988">
        <ele>2025.1542969</ele>
        <time>2013-01-27T07:27:31Z</time>
      </trkpt>
      <trkpt lat="42.5599" lon="1.9987">
        <ele>2025.6350098</ele>
        <time>2013-01-27T07:27:40Z</time>
      </trkpt>
      <trkpt lat="42.55999" lon="1.99861">
        <ele>2025.1542969</ele>
        <time>2013-01-27T07:27:50Z</time>
      </trkpt>
      <trkpt lat="42.56009" lon="1.99853">
        <ele>2026.1157227</ele>
        <time>2013-01-27T07:28:00Z</time>
      </trkpt>
      <trkpt lat="42.56018" lon="1.99842">
        <ele>2026.1157227</ele>
        <time>2013-01-27T07:28:10Z</time>
      </trkpt>
      <trkpt lat="42.56024" lon="1.99829">
        <ele>2025.1542969</ele>
        <time>2013-01-27T07:28:19Z</time>
      </trkpt>
      <trkpt lat="42.56028" lon="1.99821">
        <ele>2025.1542969</ele>
        <time>2013-01-27T07:28:27Z</time>
      </trkpt>
      <trkpt lat="42.56033" lon="1.99813">
        <ele>2024.6738281</ele>
        <time>2013-01-27T07:28:36Z</time>
      </trkpt>
      <trkpt lat="42.56032" lon="1.99811">
        <ele>2022.2705078</ele>
        <time>2013-01-27T07:28:49Z</time>
      </trkpt>
      <trkpt lat="42.56037" lon="1.99805">
        <ele>2026.5964355</ele>
        <time>2013-01-27T07:28:57Z</time>
      </trkpt>
      <trkpt lat="42.56042" lon="1.99801">
        <ele>2026.5964355</ele>
        <time>2013-01-27T07:29:04Z</time>
      </trkpt>
      <trkpt lat="42.56045" lon="1.99799">
        <ele>2028.0385742</ele>
        <time>2013-01-27T07:29:11Z</time>
      </trkpt>
      <trkpt lat="42.56048" lon="1.99797">
        <ele>2033.8063965</ele>
        <time>2013-01-27T07:29:27Z</time>
      </trkpt>
      <trkpt lat="42.56051" lon="1.99799">
        <ele>2031.8837891</ele>
        <time>2013-01-27T07:29:42Z</time>
      </trkpt>
      <trkpt lat="42.56058" lon="1.99801">
        <ele>2030.9226074</ele>
        <time>2013-01-27T07:29:51Z</time>
      </trkpt>
      <trkpt lat="42.56063" lon="1.99802">
        <ele>2029.4804688</ele>
        <time>2013-01-27T07:29:59Z</time>
      </trkpt>
      <trkpt lat="42.56067" lon="1.99799">
        <ele>2028.5192871</ele>
        <time>2013-01-27T07:30:07Z</time>
      </trkpt>
      <trkpt lat="42.56071" lon="1.99796">
        <ele>2029.4804688</ele>
        <time>2013-01-27T07:30:16Z</time>
      </trkpt>
      <trkpt lat="42.56076" lon="1.9979">
        <ele>2028.0385742</ele>
        <time>2013-01-27T07:30:25Z</time>
      </trkpt>
      <trkpt lat="42.56082" lon="1.99784">
        <ele>2028.5192871</ele>
        <time>2013-01-27T07:30:34Z</time>
      </trkpt>
      <trkpt lat="42.56085" lon="1.9978">
        <ele>2028.9997559</ele>
        <time>2013-01-27T07:30:43Z</time>
      </trkpt>
      <trkpt lat="42.5609" lon="1.99774">
        <ele>2029.9611816</ele>
        <time>2013-01-27T07:30:53Z</time>
      </trkpt>
      <trkpt lat="42.56095" lon="1.99767">
        <ele>2028.9997559</ele>
        <time>2013-01-27T07:31:02Z</time>
      </trkpt>
      <trkpt lat="42.56095" lon="1.99761">
        <ele>2030.4418945</ele>
        <time>2013-01-27T07:31:09Z</time>
      </trkpt>
      <trkpt lat="42.56095" lon="1.99756">
        <ele>2028.9997559</ele>
        <time>2013-01-27T07:31:16Z</time>
      </trkpt>
      <trkpt lat="42.56098" lon="1.99746">
        <ele>2027.0771484</ele>
        <time>2013-01-27T07:31:26Z</time>
      </trkpt>
      <trkpt lat="42.56101" lon="1.99739">
        <ele>2028.5192871</ele>
        <time>2013-01-27T07:31:34Z</time>
      </trkpt>
      <trkpt lat="42.56105" lon="1.99735">
        <ele>2032.364502</ele>
        <time>2013-01-27T07:31:41Z</time>
      </trkpt>
      <trkpt lat="42.56111" lon="1.9973">
        <ele>2036.6901855</ele>
        <time>2013-01-27T07:31:49Z</time>
      </trkpt>
      <trkpt lat="42.56116" lon="1.99723">
        <ele>2039.0935059</ele>
        <time>2013-01-27T07:31:57Z</time>
      </trkpt>
      <trkpt lat="42.56117" lon="1.99718">
        <ele>2039.0935059</ele>
        <time>2013-01-27T07:32:05Z</time>
      </trkpt>
      <trkpt lat="42.56119" lon="1.99719">
        <ele>2040.0549316</ele>
        <time>2013-01-27T07:32:11Z</time>
      </trkpt>
      <trkpt lat="42.5612" lon="1.9972">
        <ele>2041.4968262</ele>
        <time>2013-01-27T07:32:17Z</time>
      </trkpt>
      <trkpt lat="42.5612" lon="1.99713">
        <ele>2038.1323242</ele>
        <time>2013-01-27T07:32:23Z</time>
      </trkpt>
      <trkpt lat="42.56121" lon="1.99709">
        <ele>2038.1323242</ele>
        <time>2013-01-27T07:32:28Z</time>
      </trkpt>
      <trkpt lat="42.56125" lon="1.99703">
        <ele>2039.5742188</ele>
        <time>2013-01-27T07:32:37Z</time>
      </trkpt>
      <trkpt lat="42.56127" lon="1.99697">
        <ele>2039.5742188</ele>
        <time>2013-01-27T07:32:44Z</time>
      </trkpt>
      <trkpt lat="42.56129" lon="1.99694">
        <ele>2038.1323242</ele>
        <time>2013-01-27T07:32:50Z</time>
      </trkpt>
      <trkpt lat="42.56131" lon="1.99688">
        <ele>2037.1708984</ele>
        <time>2013-01-27T07:32:58Z</time>
      </trkpt>
      <trkpt lat="42.56132" lon="1.99686">
        <ele>2039.0935059</ele>
        <time>2013-01-27T07:33:05Z</time>
      </trkpt>
      <trkpt lat="42.56135" lon="1.99681">
        <ele>2038.6130371</ele>
        <time>2013-01-27T07:33:12Z</time>
      </trkpt>
      <trkpt lat="42.56133" lon="1.99676">
        <ele>2038.6130371</ele>
        <time>2013-01-27T07:33:21Z</time>
      </trkpt>
      <trkpt lat="42.56135" lon="1.99673">
        <ele>2040.5354004</ele>
        <time>2013-01-27T07:33:28Z</time>
      </trkpt>
      <trkpt lat="42.56136" lon="1.9967">
        <ele>2041.9775391</ele>
        <time>2013-01-27T07:33:37Z</time>
      </trkpt>
      <trkpt lat="42.56139" lon="1.99662">
        <ele>2044.8615723</ele>
        <time>2013-01-27T07:33:53Z</time>
      </trkpt>
      <trkpt lat="42.5614" lon="1.9966">
        <ele>2046.3037109</ele>
        <time>2013-01-27T07:33:59Z</time>
      </trkpt>
      <trkpt lat="42.56142" lon="1.99661">
        <ele>2046.7841797</ele>
        <time>2013-01-27T07:34:06Z</time>
      </trkpt>
      <trkpt lat="42.56146" lon="1.99663">
        <ele>2047.2648926</ele>
        <time>2013-01-27T07:34:14Z</time>
      </trkpt>
      <trkpt lat="42.56149" lon="1.99659">
        <ele>2050.1489258</ele>
        <time>2013-01-27T07:34:27Z</time>
      </trkpt>
      <trkpt lat="42.56154" lon="1.99656">
        <ele>2049.1875</ele>
        <time>2013-01-27T07:34:34Z</time>
      </trkpt>
      <trkpt lat="42.56162" lon="1.99654">
        <ele>2047.7456055</ele>
        <time>2013-01-27T07:34:43Z</time>
      </trkpt>
      <trkpt lat="42.56165" lon="1.99649">
        <ele>2047.7456055</ele>
        <time>2013-01-27T07:34:50Z</time>
      </trkpt>
      <trkpt lat="42.56169" lon="1.99645">
        <ele>2049.6682129</ele>
        <time>2013-01-27T07:34:57Z</time>
      </trkpt>
      <trkpt lat="42.56172" lon="1.99643">
        <ele>2050.1489258</ele>
        <time>2013-01-27T07:35:03Z</time>
      </trkpt>
      <trkpt lat="42.56177" lon="1.99637">
        <ele>2050.6293945</ele>
        <time>2013-01-27T07:35:11Z</time>
      </trkpt>
      <trkpt lat="42.5618" lon="1.99634">
        <ele>2051.5908203</ele>
        <time>2013-01-27T07:35:18Z</time>
      </trkpt>
      <trkpt lat="42.56183" lon="1.99629">
        <ele>2047.7456055</ele>
        <time>2013-01-27T07:35:26Z</time>
      </trkpt>
      <trkpt lat="42.56189" lon="1.99624">
        <ele>2052.0712891</ele>
        <time>2013-01-27T07:35:35Z</time>
      </trkpt>
      <trkpt lat="42.56193" lon="1.99619">
        <ele>2052.552002</ele>
        <time>2013-01-27T07:35:42Z</time>
      </trkpt>
      <trkpt lat="42.56197" lon="1.99617">
        <ele>2053.0327148</ele>
        <time>2013-01-27T07:35:47Z</time>
      </trkpt>
      <trkpt lat="42.56199" lon="1.99618">
        <ele>2053.0327148</ele>
        <time>2013-01-27T07:35:53Z</time>
      </trkpt>
      <trkpt lat="42.56202" lon="1.99613">
        <ele>2054.4746094</ele>
        <time>2013-01-27T07:36:01Z</time>
      </trkpt>
      <trkpt lat="42.56209" lon="1.99613">
        <ele>2056.3972168</ele>
        <time>2013-01-27T07:36:10Z</time>
      </trkpt>
      <trkpt lat="42.56213" lon="1.99613">
        <ele>2054.4746094</ele>
        <time>2013-01-27T07:36:16Z</time>
      </trkpt>
      <trkpt lat="42.56213" lon="1.99614">
        <ele>2054.4746094</ele>
        <time>2013-01-27T07:36:20Z</time>
      </trkpt>
      <trkpt lat="42.56216" lon="1.99618">
        <ele>2054.9553223</ele>
        <time>2013-01-27T07:36:31Z</time>
      </trkpt>
      <trkpt lat="42.56218" lon="1.99619">
        <ele>2053.5134277</ele>
        <time>2013-01-27T07:36:37Z</time>
      </trkpt>
      <trkpt lat="42.56221" lon="1.99623">
        <ele>2053.9941406</ele>
        <time>2013-01-27T07:36:44Z</time>
      </trkpt>
      <trkpt lat="42.56225" lon="1.99624">
        <ele>2051.1101074</ele>
        <time>2013-01-27T07:36:50Z</time>
      </trkpt>
      <trkpt lat="42.56229" lon="1.99623">
        <ele>2049.1875</ele>
        <time>2013-01-27T07:36:57Z</time>
      </trkpt>
      <trkpt lat="42.56233" lon="1.99624">
        <ele>2045.822998</ele>
        <time>2013-01-27T07:37:03Z</time>
      </trkpt>
      <trkpt lat="42.56236" lon="1.99619">
        <ele>2042.458252</ele>
        <time>2013-01-27T07:37:09Z</time>
      </trkpt>
      <trkpt lat="42.5624" lon="1.99613">
        <ele>2036.6901855</ele>
        <time>2013-01-27T07:37:20Z</time>
      </trkpt>
      <trkpt lat="42.56244" lon="1.99607">
        <ele>2038.1323242</ele>
        <time>2013-01-27T07:37:30Z</time>
      </trkpt>
      <trkpt lat="42.56247" lon="1.99606">
        <ele>2039.0935059</ele>
        <time>2013-01-27T07:37:35Z</time>
      </trkpt>
      <trkpt lat="42.56252" lon="1.99607">
        <ele>2039.5742188</ele>
        <time>2013-01-27T07:37:48Z</time>
      </trkpt>
      <trkpt lat="42.56261" lon="1.99605">
        <ele>2039.5742188</ele>
        <time>2013-01-27T07:37:59Z</time>
      </trkpt>
      <trkpt lat="42.56265" lon="1.99604">
        <ele>2038.1323242</ele>
        <time>2013-01-27T07:38:06Z</time>
      </trkpt>
      <trkpt lat="42.56269" lon="1.99603">
        <ele>2041.0161133</ele>
        <time>2013-01-27T07:38:12Z</time>
      </trkpt>
      <trkpt lat="42.56273" lon="1.99605">
        <ele>2041.4968262</ele>
        <time>2013-01-27T07:38:21Z</time>
      </trkpt>
      <trkpt lat="42.56279" lon="1.99606">
        <ele>2044.3808594</ele>
        <time>2013-01-27T07:38:30Z</time>
      </trkpt>
      <trkpt lat="42.56281" lon="1.99606">
        <ele>2043.9001465</ele>
        <time>2013-01-27T07:38:34Z</time>
      </trkpt>
      <trkpt lat="42.56287" lon="1.99604">
        <ele>2042.9387207</ele>
        <time>2013-01-27T07:38:42Z</time>
      </trkpt>
      <trkpt lat="42.56293" lon="1.99603">
        <ele>2041.9775391</ele>
        <time>2013-01-27T07:38:50Z</time>
      </trkpt>
      <trkpt lat="42.56301" lon="1.99603">
        <ele>2043.9001465</ele>
        <time>2013-01-27T07:38:58Z</time>
      </trkpt>
      <trkpt lat="42.56308" lon="1.996">
        <ele>2041.4968262</ele>
        <time>2013-01-27T07:39:07Z</time>
      </trkpt>
      <trkpt lat="42.5631" lon="1.996">
        <ele>2041.9775391</ele>
        <time>2013-01-27T07:39:12Z</time>
      </trkpt>
      <trkpt lat="42.56314" lon="1.99598">
        <ele>2041.4968262</ele>
        <time>2013-01-27T07:39:19Z</time>
      </trkpt>
      <trkpt lat="42.56318" lon="1.99596">
        <ele>2044.8615723</ele>
        <time>2013-01-27T07:39:26Z</time>
      </trkpt>
      <trkpt lat="42.56324" lon="1.99596">
        <ele>2045.3422852</ele>
        <time>2013-01-27T07:39:33Z</time>
      </trkpt>
      <trkpt lat="42.56329" lon="1.99595">
        <ele>2043.4194336</ele>
        <time>2013-01-27T07:39:40Z</time>
      </trkpt>
      <trkpt lat="42.56335" lon="1.99596">
        <ele>2041.0161133</ele>
        <time>2013-01-27T07:39:48Z</time>
      </trkpt>
      <trkpt lat="42.56341" lon="1.99596">
        <ele>2040.0549316</ele>
        <time>2013-01-27T07:39:54Z</time>
      </trkpt>
      <trkpt lat="42.56348" lon="1.99597">
        <ele>2038.6130371</ele>
        <time>2013-01-27T07:40:03Z</time>
      </trkpt>
      <trkpt lat="42.56355" lon="1.99595">
        <ele>2037.1708984</ele>
        <time>2013-01-27T07:40:11Z</time>
      </trkpt>
      <trkpt lat="42.5636" lon="1.99593">
        <ele>2038.6130371</ele>
        <time>2013-01-27T07:40:19Z</time>
      </trkpt>
      <trkpt lat="42.56365" lon="1.99591">
        <ele>2039.0935059</ele>
        <time>2013-01-27T07:40:26Z</time>
      </trkpt>
      <trkpt lat="42.56371" lon="1.99588">
        <ele>2039.0935059</ele>
        <time>2013-01-27T07:40:33Z</time>
      </trkpt>
      <trkpt lat="42.56373" lon="1.99586">
        <ele>2039.0935059</ele>
        <time>2013-01-27T07:40:39Z</time>
      </trkpt>
      <trkpt lat="42.56379" lon="1.99584">
        <ele>2039.5742188</ele>
        <time>2013-01-27T07:40:49Z</time>
      </trkpt>
      <trkpt lat="42.56384" lon="1.99584">
        <ele>2041.4968262</ele>
        <time>2013-01-27T07:40:58Z</time>
      </trkpt>
      <trkpt lat="42.56389" lon="1.99582">
        <ele>2039.5742188</ele>
        <time>2013-01-27T07:41:05Z</time>
      </trkpt>
      <trkpt lat="42.56395" lon="1.99578">
        <ele>2038.6130371</ele>
        <time>2013-01-27T07:41:12Z</time>
      </trkpt>
      <trkpt lat="42.56399" lon="1.99575">
        <ele>2036.2097168</ele>
        <time>2013-01-27T07:41:20Z</time>
      </trkpt>
      <trkpt lat="42.56403" lon="1.99571">
        <ele>2035.248291</ele>
        <time>2013-01-27T07:41:28Z</time>
      </trkpt>
      <trkpt lat="42.56406" lon="1.99566">
        <ele>2035.248291</ele>
        <time>2013-01-27T07:41:34Z</time>
      </trkpt>
      <trkpt lat="42.56408" lon="1.99559">
        <ele>2033.3256836</ele>
        <time>2013-01-27T07:41:41Z</time>
      </trkpt>
      <trkpt lat="42.56407" lon="1.99554">
        <ele>2037.6516113</ele>
        <time>2013-01-27T07:41:48Z</time>
      </trkpt>
      <trkpt lat="42.56408" lon="1.99549">
        <ele>2041.4968262</ele>
        <time>2013-01-27T07:42:00Z</time>
      </trkpt>
      <trkpt lat="42.56412" lon="1.99544">
        <ele>2039.5742188</ele>
        <time>2013-01-27T07:42:07Z</time>
      </trkpt>
      <trkpt lat="42.56415" lon="1.99538">
        <ele>2034.7678223</ele>
        <time>2013-01-27T07:42:14Z</time>
      </trkpt>
      <trkpt lat="42.56418" lon="1.99536">
        <ele>2035.248291</ele>
        <time>2013-01-27T07:42:21Z</time>
      </trkpt>
      <trkpt lat="42.56423" lon="1.99532">
        <ele>2032.8449707</ele>
        <time>2013-01-27T07:42:30Z</time>
      </trkpt>
      <trkpt lat="42.56429" lon="1.99527">
        <ele>2036.2097168</ele>
        <time>2013-01-27T07:42:38Z</time>
      </trkpt>
      <trkpt lat="42.56432" lon="1.99525">
        <ele>2034.7678223</ele>
        <time>2013-01-27T07:42:45Z</time>
      </trkpt>
      <trkpt lat="42.56436" lon="1.99525">
        <ele>2033.3256836</ele>
        <time>2013-01-27T07:42:52Z</time>
      </trkpt>
      <trkpt lat="42.56439" lon="1.99524">
        <ele>2032.364502</ele>
        <time>2013-01-27T07:42:59Z</time>
      </trkpt>
      <trkpt lat="42.56444" lon="1.99522">
        <ele>2032.8449707</ele>
        <time>2013-01-27T07:43:06Z</time>
      </trkpt>
      <trkpt lat="42.56449" lon="1.99519">
        <ele>2034.7678223</ele>
        <time>2013-01-27T07:43:14Z</time>
      </trkpt>
      <trkpt lat="42.56452" lon="1.99518">
        <ele>2034.2871094</ele>
        <time>2013-01-27T07:43:19Z</time>
      </trkpt>
      <trkpt lat="42.5646" lon="1.99519">
        <ele>2036.6901855</ele>
        <time>2013-01-27T07:43:29Z</time>
      </trkpt>
      <trkpt lat="42.56468" lon="1.9952">
        <ele>2038.6130371</ele>
        <time>2013-01-27T07:43:37Z</time>
      </trkpt>
      <trkpt lat="42.56474" lon="1.99521">
        <ele>2038.1323242</ele>
        <time>2013-01-27T07:43:45Z</time>
      </trkpt>
      <trkpt lat="42.56477" lon="1.99516">
        <ele>2035.7290039</ele>
        <time>2013-01-27T07:43:51Z</time>
      </trkpt>
      <trkpt lat="42.5648" lon="1.99513">
        <ele>2034.7678223</ele>
        <time>2013-01-27T07:43:57Z</time>
      </trkpt>
      <trkpt lat="42.56486" lon="1.99512">
        <ele>2040.5354004</ele>
        <time>2013-01-27T07:44:07Z</time>
      </trkpt>
      <trkpt lat="42.5649" lon="1.99512">
        <ele>2036.2097168</ele>
        <time>2013-01-27T07:44:22Z</time>
      </trkpt>
      <trkpt lat="42.56497" lon="1.99514">
        <ele>2034.7678223</ele>
        <time>2013-01-27T07:44:30Z</time>
      </trkpt>
      <trkpt lat="42.56504" lon="1.99514">
        <ele>2037.1708984</ele>
        <time>2013-01-27T07:44:38Z</time>
      </trkpt>
      <trkpt lat="42.56508" lon="1.99517">
        <ele>2036.6901855</ele>
        <time>2013-01-27T07:44:45Z</time>
      </trkpt>
      <trkpt lat="42.56513" lon="1.99513">
        <ele>2033.3256836</ele>
        <time>2013-01-27T07:44:55Z</time>
      </trkpt>
      <trkpt lat="42.56516" lon="1.9951">
        <ele>2033.8063965</ele>
        <time>2013-01-27T07:45:04Z</time>
      </trkpt>
      <trkpt lat="42.56518" lon="1.99508">
        <ele>2033.8063965</ele>
        <time>2013-01-27T07:45:10Z</time>
      </trkpt>
      <trkpt lat="42.56522" lon="1.99505">
        <ele>2031.8837891</ele>
        <time>2013-01-27T07:45:17Z</time>
      </trkpt>
      <trkpt lat="42.56526" lon="1.99506">
        <ele>2033.3256836</ele>
        <time>2013-01-27T07:45:25Z</time>
      </trkpt>
      <trkpt lat="42.56533" lon="1.99505">
        <ele>2033.8063965</ele>
        <time>2013-01-27T07:45:33Z</time>
      </trkpt>
      <trkpt lat="42.56536" lon="1.99504">
        <ele>2031.8837891</ele>
        <time>2013-01-27T07:45:38Z</time>
      </trkpt>
      <trkpt lat="42.56541" lon="1.99509">
        <ele>2036.2097168</ele>
        <time>2013-01-27T07:45:47Z</time>
      </trkpt>
      <trkpt lat="42.56547" lon="1.99512">
        <ele>2035.7290039</ele>
        <time>2013-01-27T07:45:56Z</time>
      </trkpt>
      <trkpt lat="42.56549" lon="1.99515">
        <ele>2038.1323242</ele>
        <time>2013-01-27T07:46:03Z</time>
      </trkpt>
      <trkpt lat="42.56554" lon="1.99518">
        <ele>2035.248291</ele>
        <time>2013-01-27T07:46:12Z</time>
      </trkpt>
      <trkpt lat="42.56557" lon="1.99518">
        <ele>2037.6516113</ele>
        <time>2013-01-27T07:46:19Z</time>
      </trkpt>
      <trkpt lat="42.56559" lon="1.99517">
        <ele>2039.0935059</ele>
        <time>2013-01-27T07:46:24Z</time>
      </trkpt>
      <trkpt lat="42.56559" lon="1.9952">
        <ele>2041.0161133</ele>
        <time>2013-01-27T07:46:35Z</time>
      </trkpt>
      <trkpt lat="42.56561" lon="1.99523">
        <ele>2041.4968262</ele>
        <time>2013-01-27T07:46:43Z</time>
      </trkpt>
      <trkpt lat="42.56565" lon="1.99524">
        <ele>2041.0161133</ele>
        <time>2013-01-27T07:46:51Z</time>
      </trkpt>
      <trkpt lat="42.56569" lon="1.99524">
        <ele>2039.5742188</ele>
        <time>2013-01-27T07:46:58Z</time>
      </trkpt>
      <trkpt lat="42.56573" lon="1.99525">
        <ele>2039.0935059</ele>
        <time>2013-01-27T07:47:05Z</time>
      </trkpt>
      <trkpt lat="42.56577" lon="1.99528">
        <ele>2039.5742188</ele>
        <time>2013-01-27T07:47:13Z</time>
      </trkpt>
      <trkpt lat="42.56582" lon="1.99532">
        <ele>2036.6901855</ele>
        <time>2013-01-27T07:47:22Z</time>
      </trkpt>
      <trkpt lat="42.56586" lon="1.99533">
        <ele>2035.7290039</ele>
        <time>2013-01-27T07:47:30Z</time>
      </trkpt>
      <trkpt lat="42.56592" lon="1.99537">
        <ele>2035.7290039</ele>
        <time>2013-01-27T07:47:38Z</time>
      </trkpt>
      <trkpt lat="42.56598" lon="1.99536">
        <ele>2034.2871094</ele>
        <time>2013-01-27T07:47:46Z</time>
      </trkpt>
      <trkpt lat="42.56601" lon="1.99537">
        <ele>2033.8063965</ele>
        <time>2013-01-27T07:47:51Z</time>
      </trkpt>
      <trkpt lat="42.56602" lon="1.99537">
        <ele>2032.8449707</ele>
        <time>2013-01-27T07:47:53Z</time>
      </trkpt>
      <trkpt lat="42.56607" lon="1.99539">
        <ele>2032.8449707</ele>
        <time>2013-01-27T07:47:58Z</time>
      </trkpt>
      <trkpt lat="42.5661" lon="1.99539">
        <ele>2032.364502</ele>
        <time>2013-01-27T07:48:00Z</time>
      </trkpt>
      <trkpt lat="42.56615" lon="1.99537">
        <ele>2025.1542969</ele>
        <time>2013-01-27T07:48:08Z</time>
      </trkpt>
      <trkpt lat="42.5662" lon="1.99538">
        <ele>2022.7512207</ele>
        <time>2013-01-27T07:48:15Z</time>
      </trkpt>
      <trkpt lat="42.56627" lon="1.99538">
        <ele>2022.7512207</ele>
        <time>2013-01-27T07:48:23Z</time>
      </trkpt>
      <trkpt lat="42.56633" lon="1.99539">
        <ele>2023.2319336</ele>
        <time>2013-01-27T07:48:27Z</time>
      </trkpt>
      <trkpt lat="42.56636" lon="1.9954">
        <ele>2022.2705078</ele>
        <time>2013-01-27T07:48:31Z</time>
      </trkpt>
      <trkpt lat="42.56643" lon="1.99536">
        <ele>2022.7512207</ele>
        <time>2013-01-27T07:48:40Z</time>
      </trkpt>
      <trkpt lat="42.56648" lon="1.9954">
        <ele>2024.6738281</ele>
        <time>2013-01-27T07:48:46Z</time>
      </trkpt>
      <trkpt lat="42.56655" lon="1.99543">
        <ele>2025.1542969</ele>
        <time>2013-01-27T07:48:54Z</time>
      </trkpt>
      <trkpt lat="42.56662" lon="1.99543">
        <ele>2025.6350098</ele>
        <time>2013-01-27T07:49:02Z</time>
      </trkpt>
      <trkpt lat="42.56667" lon="1.99539">
        <ele>2025.6350098</ele>
        <time>2013-01-27T07:49:10Z</time>
      </trkpt>
      <trkpt lat="42.56672" lon="1.99536">
        <ele>2026.5964355</ele>
        <time>2013-01-27T07:49:18Z</time>
      </trkpt>
      <trkpt lat="42.56676" lon="1.99533">
        <ele>2028.0385742</ele>
        <time>2013-01-27T07:49:26Z</time>
      </trkpt>
      <trkpt lat="42.5668" lon="1.99526">
        <ele>2029.4804688</ele>
        <time>2013-01-27T07:49:39Z</time>
      </trkpt>
      <trkpt lat="42.5668" lon="1.9952">
        <ele>2028.5192871</ele>
        <time>2013-01-27T07:49:46Z</time>
      </trkpt>
      <trkpt lat="42.56682" lon="1.99515">
        <ele>2027.0771484</ele>
        <time>2013-01-27T07:49:52Z</time>
      </trkpt>
      <trkpt lat="42.56686" lon="1.99509">
        <ele>2027.5576172</ele>
        <time>2013-01-27T07:49:58Z</time>
      </trkpt>
      <trkpt lat="42.56688" lon="1.99508">
        <ele>2028.0385742</ele>
        <time>2013-01-27T07:50:04Z</time>
      </trkpt>
      <trkpt lat="42.56689" lon="1.99506">
        <ele>2028.5192871</ele>
        <time>2013-01-27T07:50:14Z</time>
      </trkpt>
      <trkpt lat="42.56683" lon="1.99514">
        <ele>2025.1542969</ele>
        <time>2013-01-27T07:50:55Z</time>
      </trkpt>
      <trkpt lat="42.56684" lon="1.99513">
        <ele>2025.1542969</ele>
        <time>2013-01-27T07:51:06Z</time>
      </trkpt>
      <trkpt lat="42.5669" lon="1.99511">
        <ele>2028.0385742</ele>
        <time>2013-01-27T07:51:17Z</time>
      </trkpt>
      <trkpt lat="42.56698" lon="1.9951">
        <ele>2024.1931152</ele>
        <time>2013-01-27T07:51:27Z</time>
      </trkpt>
      <trkpt lat="42.56704" lon="1.99509">
        <ele>2025.1542969</ele>
        <time>2013-01-27T07:51:35Z</time>
      </trkpt>
      <trkpt lat="42.56714" lon="1.99507">
        <ele>2024.6738281</ele>
        <time>2013-01-27T07:51:46Z</time>
      </trkpt>
      <trkpt lat="42.5672" lon="1.99507">
        <ele>2024.1931152</ele>
        <time>2013-01-27T07:51:54Z</time>
      </trkpt>
      <trkpt lat="42.56722" lon="1.99507">
        <ele>2024.6738281</ele>
        <time>2013-01-27T07:52:03Z</time>
      </trkpt>
      <trkpt lat="42.56729" lon="1.99503">
        <ele>2023.2319336</ele>
        <time>2013-01-27T07:52:11Z</time>
      </trkpt>
      <trkpt lat="42.56735" lon="1.995">
        <ele>2021.7897949</ele>
        <time>2013-01-27T07:52:18Z</time>
      </trkpt>
      <trkpt lat="42.56742" lon="1.99498">
        <ele>2021.309082</ele>
        <time>2013-01-27T07:52:26Z</time>
      </trkpt>
      <trkpt lat="42.5675" lon="1.99495">
        <ele>2020.8286133</ele>
        <time>2013-01-27T07:52:34Z</time>
      </trkpt>
      <trkpt lat="42.56755" lon="1.99495">
        <ele>2021.309082</ele>
        <time>2013-01-27T07:52:39Z</time>
      </trkpt>
      <trkpt lat="42.56764" lon="1.99496">
        <ele>2018.9060059</ele>
        <time>2013-01-27T07:52:48Z</time>
      </trkpt>
      <trkpt lat="42.56771" lon="1.99498">
        <ele>2020.3479004</ele>
        <time>2013-01-27T07:52:56Z</time>
      </trkpt>
      <trkpt lat="42.56781" lon="1.99502">
        <ele>2023.2319336</ele>
        <time>2013-01-27T07:53:08Z</time>
      </trkpt>
      <trkpt lat="42.56789" lon="1.99505">
        <ele>2026.1157227</ele>
        <time>2013-01-27T07:53:17Z</time>
      </trkpt>
      <trkpt lat="42.56794" lon="1.99508">
        <ele>2026.1157227</ele>
        <time>2013-01-27T07:53:25Z</time>
      </trkpt>
      <trkpt lat="42.56801" lon="1.9951">
        <ele>2027.0771484</ele>
        <time>2013-01-27T07:53:34Z</time>
      </trkpt>
      <trkpt lat="42.56808" lon="1.99513">
        <ele>2027.0771484</ele>
        <time>2013-01-27T07:53:43Z</time>
      </trkpt>
      <trkpt lat="42.56815" lon="1.99515">
        <ele>2027.5576172</ele>
        <time>2013-01-27T07:53:52Z</time>
      </trkpt>
      <trkpt lat="42.56821" lon="1.99516">
        <ele>2027.0771484</ele>
        <time>2013-01-27T07:54:01Z</time>
      </trkpt>
      <trkpt lat="42.5683" lon="1.99518">
        <ele>2027.5576172</ele>
        <time>2013-01-27T07:54:12Z</time>
      </trkpt>
      <trkpt lat="42.5684" lon="1.99518">
        <ele>2028.0385742</ele>
        <time>2013-01-27T07:54:22Z</time>
      </trkpt>
      <trkpt lat="42.56846" lon="1.99522">
        <ele>2028.9997559</ele>
        <time>2013-01-27T07:54:30Z</time>
      </trkpt>
      <trkpt lat="42.56846" lon="1.99523">
        <ele>2026.1157227</ele>
        <time>2013-01-27T07:54:37Z</time>
      </trkpt>
      <trkpt lat="42.56849" lon="1.99523">
        <ele>2026.1157227</ele>
        <time>2013-01-27T07:54:46Z</time>
      </trkpt>
      <trkpt lat="42.5685" lon="1.99522">
        <ele>2027.0771484</ele>
        <time>2013-01-27T07:54:58Z</time>
      </trkpt>
      <trkpt lat="42.56853" lon="1.99519">
        <ele>2027.5576172</ele>
        <time>2013-01-27T07:55:09Z</time>
      </trkpt>
      <trkpt lat="42.5686" lon="1.99517">
        <ele>2026.5964355</ele>
        <time>2013-01-27T07:55:18Z</time>
      </trkpt>
      <trkpt lat="42.56869" lon="1.99517">
        <ele>2027.5576172</ele>
        <time>2013-01-27T07:55:27Z</time>
      </trkpt>
      <trkpt lat="42.56874" lon="1.99516">
        <ele>2027.5576172</ele>
        <time>2013-01-27T07:55:35Z</time>
      </trkpt>
      <trkpt lat="42.56879" lon="1.99513">
        <ele>2026.5964355</ele>
        <time>2013-01-27T07:55:42Z</time>
      </trkpt>
      <trkpt lat="42.56883" lon="1.99509">
        <ele>2025.1542969</ele>
        <time>2013-01-27T07:55:50Z</time>
      </trkpt>
      <trkpt lat="42.56889" lon="1.99505">
        <ele>2022.7512207</ele>
        <time>2013-01-27T07:56:00Z</time>
      </trkpt>
      <trkpt lat="42.56894" lon="1.99501">
        <ele>2023.2319336</ele>
        <time>2013-01-27T07:56:08Z</time>
      </trkpt>
      <trkpt lat="42.56899" lon="1.99495">
        <ele>2021.7897949</ele>
        <time>2013-01-27T07:56:17Z</time>
      </trkpt>
      <trkpt lat="42.56907" lon="1.99489">
        <ele>2024.1931152</ele>
        <time>2013-01-27T07:56:27Z</time>
      </trkpt>
      <trkpt lat="42.56913" lon="1.99488">
        <ele>2024.6738281</ele>
        <time>2013-01-27T07:56:35Z</time>
      </trkpt>
      <trkpt lat="42.56918" lon="1.99482">
        <ele>2021.7897949</ele>
        <time>2013-01-27T07:56:43Z</time>
      </trkpt>
      <trkpt lat="42.56923" lon="1.99478">
        <ele>2019.3867188</ele>
        <time>2013-01-27T07:56:50Z</time>
      </trkpt>
      <trkpt lat="42.56928" lon="1.99473">
        <ele>2018.425293</ele>
        <time>2013-01-27T07:56:58Z</time>
      </trkpt>
      <trkpt lat="42.56932" lon="1.99468">
        <ele>2018.425293</ele>
        <time>2013-01-27T07:57:05Z</time>
      </trkpt>
      <trkpt lat="42.56941" lon="1.99462">
        <ele>2021.309082</ele>
        <time>2013-01-27T07:57:15Z</time>
      </trkpt>
      <trkpt lat="42.56949" lon="1.99455">
        <ele>2019.3867188</ele>
        <time>2013-01-27T07:57:26Z</time>
      </trkpt>
      <trkpt lat="42.56954" lon="1.99449">
        <ele>2018.9060059</ele>
        <time>2013-01-27T07:57:34Z</time>
      </trkpt>
      <trkpt lat="42.56959" lon="1.99443">
        <ele>2019.3867188</ele>
        <time>2013-01-27T07:57:41Z</time>
      </trkpt>
      <trkpt lat="42.56967" lon="1.99437">
        <ele>2020.8286133</ele>
        <time>2013-01-27T07:57:50Z</time>
      </trkpt>
      <trkpt lat="42.56973" lon="1.99431">
        <ele>2021.7897949</ele>
        <time>2013-01-27T07:57:59Z</time>
      </trkpt>
      <trkpt lat="42.56975" lon="1.99427">
        <ele>2020.8286133</ele>
        <time>2013-01-27T07:58:07Z</time>
      </trkpt>
      <trkpt lat="42.56981" lon="1.99422">
        <ele>2017.4638672</ele>
        <time>2013-01-27T07:58:30Z</time>
      </trkpt>
      <trkpt lat="42.56987" lon="1.99416">
        <ele>2017.4638672</ele>
        <time>2013-01-27T07:58:40Z</time>
      </trkpt>
      <trkpt lat="42.56994" lon="1.99406">
        <ele>2018.425293</ele>
        <time>2013-01-27T07:58:50Z</time>
      </trkpt>
      <trkpt lat="42.56995" lon="1.99405">
        <ele>2018.425293</ele>
        <time>2013-01-27T07:58:51Z</time>
      </trkpt>
      <trkpt lat="42.57" lon="1.99399">
        <ele>2020.8286133</ele>
        <time>2013-01-27T07:59:00Z</time>
      </trkpt>
      <trkpt lat="42.57007" lon="1.99389">
        <ele>2019.3867188</ele>
        <time>2013-01-27T07:59:11Z</time>
      </trkpt>
      <trkpt lat="42.57012" lon="1.99385">
        <ele>2021.309082</ele>
        <time>2013-01-27T07:59:19Z</time>
      </trkpt>
      <trkpt lat="42.57015" lon="1.9938">
        <ele>2021.309082</ele>
        <time>2013-01-27T07:59:26Z</time>
      </trkpt>
      <trkpt lat="42.5702" lon="1.99376">
        <ele>2022.2705078</ele>
        <time>2013-01-27T07:59:33Z</time>
      </trkpt>
      <trkpt lat="42.57026" lon="1.99371">
        <ele>2023.2319336</ele>
        <time>2013-01-27T07:59:41Z</time>
      </trkpt>
      <trkpt lat="42.57031" lon="1.99368">
        <ele>2020.8286133</ele>
        <time>2013-01-27T07:59:49Z</time>
      </trkpt>
      <trkpt lat="42.57034" lon="1.99364">
        <ele>2018.9060059</ele>
        <time>2013-01-27T07:59:55Z</time>
      </trkpt>
      <trkpt lat="42.57037" lon="1.99359">
        <ele>2014.5800781</ele>
        <time>2013-01-27T08:00:03Z</time>
      </trkpt>
      <trkpt lat="42.57043" lon="1.99351">
        <ele>2010.2539063</ele>
        <time>2013-01-27T08:00:12Z</time>
      </trkpt>
      <trkpt lat="42.57053" lon="1.99349">
        <ele>2017.9445801</ele>
        <time>2013-01-27T08:00:20Z</time>
      </trkpt>
      <trkpt lat="42.57061" lon="1.99344">
        <ele>2021.309082</ele>
        <time>2013-01-27T08:00:31Z</time>
      </trkpt>
      <trkpt lat="42.57064" lon="1.99343">
        <ele>2023.2319336</ele>
        <time>2013-01-27T08:00:41Z</time>
      </trkpt>
      <trkpt lat="42.57069" lon="1.9934">
        <ele>2025.6350098</ele>
        <time>2013-01-27T08:00:49Z</time>
      </trkpt>
      <trkpt lat="42.57074" lon="1.99335">
        <ele>2022.2705078</ele>
        <time>2013-01-27T08:00:58Z</time>
      </trkpt>
      <trkpt lat="42.57077" lon="1.99331">
        <ele>2025.1542969</ele>
        <time>2013-01-27T08:01:04Z</time>
      </trkpt>
      <trkpt lat="42.57083" lon="1.99326">
        <ele>2023.7124023</ele>
        <time>2013-01-27T08:01:10Z</time>
      </trkpt>
      <trkpt lat="42.57084" lon="1.99325">
        <ele>2023.2319336</ele>
        <time>2013-01-27T08:01:11Z</time>
      </trkpt>
      <trkpt lat="42.5709" lon="1.99319">
        <ele>2027.0771484</ele>
        <time>2013-01-27T08:01:20Z</time>
      </trkpt>
      <trkpt lat="42.57096" lon="1.99312">
        <ele>2028.5192871</ele>
        <time>2013-01-27T08:01:27Z</time>
      </trkpt>
      <trkpt lat="42.57097" lon="1.99312">
        <ele>2028.9997559</ele>
        <time>2013-01-27T08:01:28Z</time>
      </trkpt>
      <trkpt lat="42.57101" lon="1.99309">
        <ele>2024.1931152</ele>
        <time>2013-01-27T08:01:37Z</time>
      </trkpt>
      <trkpt lat="42.57102" lon="1.99312">
        <ele>2017.4638672</ele>
        <time>2013-01-27T08:01:53Z</time>
      </trkpt>
      <trkpt lat="42.57107" lon="1.99309">
        <ele>2014.5800781</ele>
        <time>2013-01-27T08:02:09Z</time>
      </trkpt>
      <trkpt lat="42.5711" lon="1.99308">
        <ele>2013.1381836</ele>
        <time>2013-01-27T08:02:14Z</time>
      </trkpt>
      <trkpt lat="42.57114" lon="1.99313">
        <ele>2012.1767578</ele>
        <time>2013-01-27T08:02:22Z</time>
      </trkpt>
      <trkpt lat="42.57118" lon="1.99318">
        <ele>2010.7346191</ele>
        <time>2013-01-27T08:02:30Z</time>
      </trkpt>
      <trkpt lat="42.57122" lon="1.99324">
        <ele>2012.1767578</ele>
        <time>2013-01-27T08:02:37Z</time>
      </trkpt>
      <trkpt lat="42.57127" lon="1.99329">
        <ele>2014.0993652</ele>
        <time>2013-01-27T08:02:45Z</time>
      </trkpt>
      <trkpt lat="42.5713" lon="1.99332">
        <ele>2010.2539063</ele>
        <time>2013-01-27T08:02:52Z</time>
      </trkpt>
      <trkpt lat="42.57132" lon="1.99336">
        <ele>2011.215332</ele>
        <time>2013-01-27T08:03:00Z</time>
      </trkpt>
      <trkpt lat="42.57135" lon="1.9934">
        <ele>2015.060791</ele>
        <time>2013-01-27T08:03:15Z</time>
      </trkpt>
      <trkpt lat="42.57132" lon="1.99334">
        <ele>2005.9279785</ele>
        <time>2013-01-27T08:03:35Z</time>
      </trkpt>
      <trkpt lat="42.57136" lon="1.99337">
        <ele>2009.7731934</ele>
        <time>2013-01-27T08:03:51Z</time>
      </trkpt>
      <trkpt lat="42.57139" lon="1.99345">
        <ele>2012.6574707</ele>
        <time>2013-01-27T08:03:59Z</time>
      </trkpt>
      <trkpt lat="42.57144" lon="1.99346">
        <ele>2006.8894043</ele>
        <time>2013-01-27T08:04:07Z</time>
      </trkpt>
      <trkpt lat="42.57148" lon="1.99348">
        <ele>2004.0056152</ele>
        <time>2013-01-27T08:04:15Z</time>
      </trkpt>
      <trkpt lat="42.57152" lon="1.99356">
        <ele>2007.3701172</ele>
        <time>2013-01-27T08:04:24Z</time>
      </trkpt>
      <trkpt lat="42.57156" lon="1.99358">
        <ele>2005.4475098</ele>
        <time>2013-01-27T08:04:32Z</time>
      </trkpt>
      <trkpt lat="42.5716" lon="1.99362">
        <ele>2003.0441895</ele>
        <time>2013-01-27T08:04:40Z</time>
      </trkpt>
      <trkpt lat="42.57164" lon="1.99366">
        <ele>2005.4475098</ele>
        <time>2013-01-27T08:04:47Z</time>
      </trkpt>
      <trkpt lat="42.57166" lon="1.99369">
        <ele>2006.4086914</ele>
        <time>2013-01-27T08:04:54Z</time>
      </trkpt>
      <trkpt lat="42.57169" lon="1.99372">
        <ele>2004.486084</ele>
        <time>2013-01-27T08:04:59Z</time>
      </trkpt>
      <trkpt lat="42.57175" lon="1.99375">
        <ele>2002.5634766</ele>
        <time>2013-01-27T08:05:08Z</time>
      </trkpt>
      <trkpt lat="42.5718" lon="1.99378">
        <ele>2002.0827637</ele>
        <time>2013-01-27T08:05:14Z</time>
      </trkpt>
      <trkpt lat="42.57185" lon="1.99383">
        <ele>2005.9279785</ele>
        <time>2013-01-27T08:05:21Z</time>
      </trkpt>
      <trkpt lat="42.57188" lon="1.99388">
        <ele>2007.8508301</ele>
        <time>2013-01-27T08:05:30Z</time>
      </trkpt>
      <trkpt lat="42.57187" lon="1.99389">
        <ele>2009.7731934</ele>
        <time>2013-01-27T08:05:34Z</time>
      </trkpt>
      <trkpt lat="42.57188" lon="1.99395">
        <ele>2011.215332</ele>
        <time>2013-01-27T08:05:43Z</time>
      </trkpt>
      <trkpt lat="42.57191" lon="1.99402">
        <ele>2009.2927246</ele>
        <time>2013-01-27T08:05:52Z</time>
      </trkpt>
      <trkpt lat="42.57195" lon="1.99403">
        <ele>2006.4086914</ele>
        <time>2013-01-27T08:05:58Z</time>
      </trkpt>
      <trkpt lat="42.57201" lon="1.99403">
        <ele>2006.8894043</ele>
        <time>2013-01-27T08:06:07Z</time>
      </trkpt>
      <trkpt lat="42.57207" lon="1.99401">
        <ele>2007.8508301</ele>
        <time>2013-01-27T08:06:16Z</time>
      </trkpt>
      <trkpt lat="42.57215" lon="1.99397">
        <ele>2010.2539063</ele>
        <time>2013-01-27T08:06:24Z</time>
      </trkpt>
      <trkpt lat="42.57217" lon="1.99396">
        <ele>2011.6960449</ele>
        <time>2013-01-27T08:06:26Z</time>
      </trkpt>
      <trkpt lat="42.57219" lon="1.99395">
        <ele>2012.6574707</ele>
        <time>2013-01-27T08:06:34Z</time>
      </trkpt>
      <trkpt lat="42.57216" lon="1.99392">
        <ele>2004.486084</ele>
        <time>2013-01-27T08:06:54Z</time>
      </trkpt>
      <trkpt lat="42.57216" lon="1.9939">
        <ele>2004.486084</ele>
        <time>2013-01-27T08:07:01Z</time>
      </trkpt>
      <trkpt lat="42.57217" lon="1.99389">
        <ele>2004.486084</ele>
        <time>2013-01-27T08:07:32Z</time>
      </trkpt>
      <trkpt lat="42.5722" lon="1.99389">
        <ele>2006.4086914</ele>
        <time>2013-01-27T08:07:40Z</time>
      </trkpt>
      <trkpt lat="42.57221" lon="1.99386">
        <ele>2005.9279785</ele>
        <time>2013-01-27T08:07:47Z</time>
      </trkpt>
      <trkpt lat="42.57224" lon="1.99382">
        <ele>2005.9279785</ele>
        <time>2013-01-27T08:07:54Z</time>
      </trkpt>
      <trkpt lat="42.57226" lon="1.99381">
        <ele>2006.4086914</ele>
        <time>2013-01-27T08:08:01Z</time>
      </trkpt>
      <trkpt lat="42.57226" lon="1.99382">
        <ele>2007.3701172</ele>
        <time>2013-01-27T08:08:10Z</time>
      </trkpt>
      <trkpt lat="42.57227" lon="1.9938">
        <ele>2004.9667969</ele>
        <time>2013-01-27T08:08:25Z</time>
      </trkpt>
      <trkpt lat="42.57229" lon="1.99377">
        <ele>2004.9667969</ele>
        <time>2013-01-27T08:08:32Z</time>
      </trkpt>
      <trkpt lat="42.57232" lon="1.99376">
        <ele>2006.8894043</ele>
        <time>2013-01-27T08:08:38Z</time>
      </trkpt>
      <trkpt lat="42.57235" lon="1.99372">
        <ele>2007.8508301</ele>
        <time>2013-01-27T08:08:45Z</time>
      </trkpt>
      <trkpt lat="42.57242" lon="1.99366">
        <ele>2010.2539063</ele>
        <time>2013-01-27T08:08:53Z</time>
      </trkpt>
      <trkpt lat="42.57246" lon="1.99365">
        <ele>2010.2539063</ele>
        <time>2013-01-27T08:08:58Z</time>
      </trkpt>
      <trkpt lat="42.5725" lon="1.99363">
        <ele>2012.1767578</ele>
        <time>2013-01-27T08:09:04Z</time>
      </trkpt>
      <trkpt lat="42.57251" lon="1.99363">
        <ele>2016.5026855</ele>
        <time>2013-01-27T08:09:14Z</time>
      </trkpt>
      <trkpt lat="42.57252" lon="1.99365">
        <ele>2017.4638672</ele>
        <time>2013-01-27T08:09:27Z</time>
      </trkpt>
      <trkpt lat="42.57255" lon="1.9936">
        <ele>2010.2539063</ele>
        <time>2013-01-27T08:09:37Z</time>
      </trkpt>
      <trkpt lat="42.57262" lon="1.99357">
        <ele>2006.8894043</ele>
        <time>2013-01-27T08:09:45Z</time>
      </trkpt>
      <trkpt lat="42.57267" lon="1.99357">
        <ele>2004.486084</ele>
        <time>2013-01-27T08:09:52Z</time>
      </trkpt>
      <trkpt lat="42.57271" lon="1.9936">
        <ele>2012.1767578</ele>
        <time>2013-01-27T08:10:01Z</time>
      </trkpt>
      <trkpt lat="42.57274" lon="1.99362">
        <ele>2012.6574707</ele>
        <time>2013-01-27T08:10:07Z</time>
      </trkpt>
      <trkpt lat="42.57277" lon="1.99361">
        <ele>2007.8508301</ele>
        <time>2013-01-27T08:10:14Z</time>
      </trkpt>
      <trkpt lat="42.57281" lon="1.99361">
        <ele>2007.3701172</ele>
        <time>2013-01-27T08:10:22Z</time>
      </trkpt>
      <trkpt lat="42.57283" lon="1.9936">
        <ele>2005.9279785</ele>
        <time>2013-01-27T08:10:28Z</time>
      </trkpt>
      <trkpt lat="42.57286" lon="1.99359">
        <ele>2007.3701172</ele>
        <time>2013-01-27T08:10:34Z</time>
      </trkpt>
      <trkpt lat="42.5729" lon="1.99355">
        <ele>2009.7731934</ele>
        <time>2013-01-27T08:10:41Z</time>
      </trkpt>
      <trkpt lat="42.57292" lon="1.9935">
        <ele>2011.215332</ele>
        <time>2013-01-27T08:10:47Z</time>
      </trkpt>
      <trkpt lat="42.57294" lon="1.99346">
        <ele>2010.7346191</ele>
        <time>2013-01-27T08:10:52Z</time>
      </trkpt>
      <trkpt lat="42.57299" lon="1.99342">
        <ele>2011.6960449</ele>
        <time>2013-01-27T08:10:59Z</time>
      </trkpt>
      <trkpt lat="42.57303" lon="1.99339">
        <ele>2008.3312988</ele>
        <time>2013-01-27T08:11:04Z</time>
      </trkpt>
      <trkpt lat="42.57308" lon="1.99338">
        <ele>2005.9279785</ele>
        <time>2013-01-27T08:11:10Z</time>
      </trkpt>
      <trkpt lat="42.57306" lon="1.99341">
        <ele>2011.6960449</ele>
        <time>2013-01-27T08:11:21Z</time>
      </trkpt>
      <trkpt lat="42.57307" lon="1.99336">
        <ele>1996.7956543</ele>
        <time>2013-01-27T08:11:37Z</time>
      </trkpt>
      <trkpt lat="42.57316" lon="1.99339">
        <ele>2005.4475098</ele>
        <time>2013-01-27T08:11:46Z</time>
      </trkpt>
      <trkpt lat="42.57319" lon="1.99341">
        <ele>2008.8120117</ele>
        <time>2013-01-27T08:11:51Z</time>
      </trkpt>
      <trkpt lat="42.57325" lon="1.99342">
        <ele>1997.7570801</ele>
        <time>2013-01-27T08:12:00Z</time>
      </trkpt>
      <trkpt lat="42.5733" lon="1.99347">
        <ele>1998.7182617</ele>
        <time>2013-01-27T08:12:09Z</time>
      </trkpt>
      <trkpt lat="42.57336" lon="1.99352">
        <ele>2001.6022949</ele>
        <time>2013-01-27T08:12:19Z</time>
      </trkpt>
      <trkpt lat="42.57341" lon="1.99358">
        <ele>2008.3312988</ele>
        <time>2013-01-27T08:12:28Z</time>
      </trkpt>
      <trkpt lat="42.57346" lon="1.99362">
        <ele>2012.1767578</ele>
        <time>2013-01-27T08:12:35Z</time>
      </trkpt>
      <trkpt lat="42.57352" lon="1.99366">
        <ele>2015.5415039</ele>
        <time>2013-01-27T08:12:44Z</time>
      </trkpt>
      <trkpt lat="42.57359" lon="1.99368">
        <ele>2015.5415039</ele>
        <time>2013-01-27T08:12:52Z</time>
      </trkpt>
      <trkpt lat="42.57366" lon="1.99369">
        <ele>2016.0219727</ele>
        <time>2013-01-27T08:13:00Z</time>
      </trkpt>
      <trkpt lat="42.57369" lon="1.99369">
        <ele>2012.6574707</ele>
        <time>2013-01-27T08:13:07Z</time>
      </trkpt>
      <trkpt lat="42.57375" lon="1.99372">
        <ele>2012.1767578</ele>
        <time>2013-01-27T08:13:22Z</time>
      </trkpt>
      <trkpt lat="42.57379" lon="1.99377">
        <ele>2011.215332</ele>
        <time>2013-01-27T08:13:30Z</time>
      </trkpt>
      <trkpt lat="42.57385" lon="1.99384">
        <ele>2010.2539063</ele>
        <time>2013-01-27T08:13:40Z</time>
      </trkpt>
      <trkpt lat="42.57388" lon="1.99394">
        <ele>2015.060791</ele>
        <time>2013-01-27T08:13:49Z</time>
      </trkpt>
      <trkpt lat="42.57387" lon="1.99404">
        <ele>2016.9833984</ele>
        <time>2013-01-27T08:13:57Z</time>
      </trkpt>
      <trkpt lat="42.57386" lon="1.99414">
        <ele>2016.9833984</ele>
        <time>2013-01-27T08:14:06Z</time>
      </trkpt>
      <trkpt lat="42.57388" lon="1.99423">
        <ele>2014.5800781</ele>
        <time>2013-01-27T08:14:14Z</time>
      </trkpt>
      <trkpt lat="42.57393" lon="1.99429">
        <ele>2011.6960449</ele>
        <time>2013-01-27T08:14:24Z</time>
      </trkpt>
      <trkpt lat="42.57398" lon="1.99432">
        <ele>2003.0441895</ele>
        <time>2013-01-27T08:14:32Z</time>
      </trkpt>
      <trkpt lat="42.57404" lon="1.9944">
        <ele>2006.8894043</ele>
        <time>2013-01-27T08:14:42Z</time>
      </trkpt>
      <trkpt lat="42.57412" lon="1.99446">
        <ele>2007.3701172</ele>
        <time>2013-01-27T08:14:52Z</time>
      </trkpt>
      <trkpt lat="42.57416" lon="1.99451">
        <ele>2004.486084</ele>
        <time>2013-01-27T08:14:59Z</time>
      </trkpt>
      <trkpt lat="42.57421" lon="1.99459">
        <ele>2003.0441895</ele>
        <time>2013-01-27T08:15:08Z</time>
      </trkpt>
      <trkpt lat="42.57425" lon="1.99466">
        <ele>2004.9667969</ele>
        <time>2013-01-27T08:15:17Z</time>
      </trkpt>
      <trkpt lat="42.57429" lon="1.99472">
        <ele>2007.3701172</ele>
        <time>2013-01-27T08:15:25Z</time>
      </trkpt>
      <trkpt lat="42.57432" lon="1.99477">
        <ele>2006.4086914</ele>
        <time>2013-01-27T08:15:31Z</time>
      </trkpt>
      <trkpt lat="42.57436" lon="1.99482">
        <ele>2009.2927246</ele>
        <time>2013-01-27T08:15:39Z</time>
      </trkpt>
      <trkpt lat="42.57441" lon="1.99488">
        <ele>2007.8508301</ele>
        <time>2013-01-27T08:15:49Z</time>
      </trkpt>
      <trkpt lat="42.57445" lon="1.9949">
        <ele>2004.9667969</ele>
        <time>2013-01-27T08:15:56Z</time>
      </trkpt>
      <trkpt lat="42.5745" lon="1.99496">
        <ele>2008.3312988</ele>
        <time>2013-01-27T08:16:05Z</time>
      </trkpt>
      <trkpt lat="42.57455" lon="1.99498">
        <ele>2011.215332</ele>
        <time>2013-01-27T08:16:13Z</time>
      </trkpt>
      <trkpt lat="42.5746" lon="1.99506">
        <ele>2014.5800781</ele>
        <time>2013-01-27T08:16:24Z</time>
      </trkpt>
      <trkpt lat="42.57465" lon="1.9951">
        <ele>2012.6574707</ele>
        <time>2013-01-27T08:16:33Z</time>
      </trkpt>
      <trkpt lat="42.57472" lon="1.99509">
        <ele>2012.6574707</ele>
        <time>2013-01-27T08:16:43Z</time>
      </trkpt>
      <trkpt lat="42.57478" lon="1.99506">
        <ele>2007.8508301</ele>
        <time>2013-01-27T08:16:53Z</time>
      </trkpt>
      <trkpt lat="42.57485" lon="1.99506">
        <ele>2011.215332</ele>
        <time>2013-01-27T08:17:04Z</time>
      </trkpt>
      <trkpt lat="42.57491" lon="1.9951">
        <ele>2010.7346191</ele>
        <time>2013-01-27T08:17:13Z</time>
      </trkpt>
      <trkpt lat="42.57496" lon="1.99515">
        <ele>2015.5415039</ele>
        <time>2013-01-27T08:17:22Z</time>
      </trkpt>
      <trkpt lat="42.575" lon="1.99522">
        <ele>2017.4638672</ele>
        <time>2013-01-27T08:17:31Z</time>
      </trkpt>
      <trkpt lat="42.57506" lon="1.99525">
        <ele>2020.8286133</ele>
        <time>2013-01-27T08:17:39Z</time>
      </trkpt>
      <trkpt lat="42.5751" lon="1.99528">
        <ele>2022.2705078</ele>
        <time>2013-01-27T08:17:46Z</time>
      </trkpt>
      <trkpt lat="42.5752" lon="1.99528">
        <ele>2023.7124023</ele>
        <time>2013-01-27T08:17:56Z</time>
      </trkpt>
      <trkpt lat="42.57521" lon="1.99528">
        <ele>2023.7124023</ele>
        <time>2013-01-27T08:17:57Z</time>
      </trkpt>
      <trkpt lat="42.57529" lon="1.99526">
        <ele>2021.309082</ele>
        <time>2013-01-27T08:18:06Z</time>
      </trkpt>
      <trkpt lat="42.57534" lon="1.99526">
        <ele>2020.8286133</ele>
        <time>2013-01-27T08:18:13Z</time>
      </trkpt>
      <trkpt lat="42.57541" lon="1.99527">
        <ele>2017.4638672</ele>
        <time>2013-01-27T08:18:22Z</time>
      </trkpt>
      <trkpt lat="42.57543" lon="1.99528">
        <ele>2017.4638672</ele>
        <time>2013-01-27T08:18:32Z</time>
      </trkpt>
      <trkpt lat="42.57546" lon="1.99532">
        <ele>2024.1931152</ele>
        <time>2013-01-27T08:18:59Z</time>
      </trkpt>
      <trkpt lat="42.57553" lon="1.99534">
        <ele>2019.8671875</ele>
        <time>2013-01-27T08:19:10Z</time>
      </trkpt>
      <trkpt lat="42.57559" lon="1.99537">
        <ele>2015.5415039</ele>
        <time>2013-01-27T08:19:18Z</time>
      </trkpt>
      <trkpt lat="42.57565" lon="1.99539">
        <ele>2013.6186523</ele>
        <time>2013-01-27T08:19:26Z</time>
      </trkpt>
      <trkpt lat="42.57572" lon="1.99544">
        <ele>2013.1381836</ele>
        <time>2013-01-27T08:19:35Z</time>
      </trkpt>
      <trkpt lat="42.57577" lon="1.99548">
        <ele>2011.215332</ele>
        <time>2013-01-27T08:19:42Z</time>
      </trkpt>
      <trkpt lat="42.57584" lon="1.99554">
        <ele>2010.7346191</ele>
        <time>2013-01-27T08:19:52Z</time>
      </trkpt>
      <trkpt lat="42.57591" lon="1.99554">
        <ele>2007.3701172</ele>
        <time>2013-01-27T08:20:00Z</time>
      </trkpt>
      <trkpt lat="42.57597" lon="1.99557">
        <ele>2008.3312988</ele>
        <time>2013-01-27T08:20:09Z</time>
      </trkpt>
      <trkpt lat="42.57604" lon="1.99563">
        <ele>2011.6960449</ele>
        <time>2013-01-27T08:20:18Z</time>
      </trkpt>
      <trkpt lat="42.57611" lon="1.99569">
        <ele>2014.0993652</ele>
        <time>2013-01-27T08:20:27Z</time>
      </trkpt>
      <trkpt lat="42.57618" lon="1.99573">
        <ele>2013.1381836</ele>
        <time>2013-01-27T08:20:35Z</time>
      </trkpt>
      <trkpt lat="42.57626" lon="1.99577">
        <ele>2014.5800781</ele>
        <time>2013-01-27T08:20:45Z</time>
      </trkpt>
      <trkpt lat="42.57633" lon="1.99581">
        <ele>2013.1381836</ele>
        <time>2013-01-27T08:20:54Z</time>
      </trkpt>
      <trkpt lat="42.57639" lon="1.99587">
        <ele>2012.6574707</ele>
        <time>2013-01-27T08:21:02Z</time>
      </trkpt>
      <trkpt lat="42.57646" lon="1.9959">
        <ele>2010.7346191</ele>
        <time>2013-01-27T08:21:10Z</time>
      </trkpt>
      <trkpt lat="42.57652" lon="1.99596">
        <ele>2010.2539063</ele>
        <time>2013-01-27T08:21:19Z</time>
      </trkpt>
      <trkpt lat="42.57657" lon="1.99602">
        <ele>2013.1381836</ele>
        <time>2013-01-27T08:21:27Z</time>
      </trkpt>
      <trkpt lat="42.57661" lon="1.99607">
        <ele>2012.1767578</ele>
        <time>2013-01-27T08:21:35Z</time>
      </trkpt>
      <trkpt lat="42.57667" lon="1.99614">
        <ele>2013.1381836</ele>
        <time>2013-01-27T08:21:45Z</time>
      </trkpt>
      <trkpt lat="42.57673" lon="1.99621">
        <ele>2012.1767578</ele>
        <time>2013-01-27T08:21:55Z</time>
      </trkpt>
      <trkpt lat="42.57679" lon="1.99629">
        <ele>2012.6574707</ele>
        <time>2013-01-27T08:22:05Z</time>
      </trkpt>
      <trkpt lat="42.57685" lon="1.99638">
        <ele>2013.6186523</ele>
        <time>2013-01-27T08:22:16Z</time>
      </trkpt>
      <trkpt lat="42.57691" lon="1.99646">
        <ele>2016.5026855</ele>
        <time>2013-01-27T08:22:25Z</time>
      </trkpt>
      <trkpt lat="42.57697" lon="1.99653">
        <ele>2016.9833984</ele>
        <time>2013-01-27T08:22:35Z</time>
      </trkpt>
      <trkpt lat="42.57702" lon="1.99661">
        <ele>2016.0219727</ele>
        <time>2013-01-27T08:22:44Z</time>
      </trkpt>
      <trkpt lat="42.57707" lon="1.99669">
        <ele>2013.1381836</ele>
        <time>2013-01-27T08:22:54Z</time>
      </trkpt>
      <trkpt lat="42.57711" lon="1.99677">
        <ele>2012.6574707</ele>
        <time>2013-01-27T08:23:02Z</time>
      </trkpt>
      <trkpt lat="42.57716" lon="1.99686">
        <ele>2013.1381836</ele>
        <time>2013-01-27T08:23:12Z</time>
      </trkpt>
      <trkpt lat="42.57721" lon="1.99697">
        <ele>2015.060791</ele>
        <time>2013-01-27T08:23:23Z</time>
      </trkpt>
      <trkpt lat="42.57725" lon="1.99705">
        <ele>2015.5415039</ele>
        <time>2013-01-27T08:23:32Z</time>
      </trkpt>
      <trkpt lat="42.57728" lon="1.99713">
        <ele>2016.5026855</ele>
        <time>2013-01-27T08:23:41Z</time>
      </trkpt>
      <trkpt lat="42.57731" lon="1.9972">
        <ele>2016.5026855</ele>
        <time>2013-01-27T08:23:49Z</time>
      </trkpt>
      <trkpt lat="42.57735" lon="1.99729">
        <ele>2016.9833984</ele>
        <time>2013-01-27T08:24:00Z</time>
      </trkpt>
      <trkpt lat="42.57738" lon="1.99738">
        <ele>2016.9833984</ele>
        <time>2013-01-27T08:24:10Z</time>
      </trkpt>
      <trkpt lat="42.5774" lon="1.99748">
        <ele>2019.3867188</ele>
        <time>2013-01-27T08:24:19Z</time>
      </trkpt>
      <trkpt lat="42.57741" lon="1.99753">
        <ele>2022.2705078</ele>
        <time>2013-01-27T08:24:28Z</time>
      </trkpt>
      <trkpt lat="42.57741" lon="1.99751">
        <ele>2019.3867188</ele>
        <time>2013-01-27T08:24:36Z</time>
      </trkpt>
      <trkpt lat="42.5774" lon="1.99749">
        <ele>2013.6186523</ele>
        <time>2013-01-27T08:24:49Z</time>
      </trkpt>
      <trkpt lat="42.57739" lon="1.99752">
        <ele>2016.5026855</ele>
        <time>2013-01-27T08:25:10Z</time>
      </trkpt>
      <trkpt lat="42.5774" lon="1.99751">
        <ele>2023.2319336</ele>
        <time>2013-01-27T08:25:21Z</time>
      </trkpt>
      <trkpt lat="42.57743" lon="1.99756">
        <ele>2025.1542969</ele>
        <time>2013-01-27T08:25:28Z</time>
      </trkpt>
      <trkpt lat="42.57745" lon="1.99762">
        <ele>2021.7897949</ele>
        <time>2013-01-27T08:25:36Z</time>
      </trkpt>
      <trkpt lat="42.57746" lon="1.99765">
        <ele>2019.3867188</ele>
        <time>2013-01-27T08:25:44Z</time>
      </trkpt>
      <trkpt lat="42.57746" lon="1.99764">
        <ele>2010.2539063</ele>
        <time>2013-01-27T08:25:58Z</time>
      </trkpt>
      <trkpt lat="42.57746" lon="1.99768">
        <ele>2013.6186523</ele>
        <time>2013-01-27T08:26:09Z</time>
      </trkpt>
      <trkpt lat="42.57749" lon="1.99774">
        <ele>2016.0219727</ele>
        <time>2013-01-27T08:26:18Z</time>
      </trkpt>
      <trkpt lat="42.57754" lon="1.99782">
        <ele>2018.425293</ele>
        <time>2013-01-27T08:26:27Z</time>
      </trkpt>
      <trkpt lat="42.5776" lon="1.9979">
        <ele>2019.3867188</ele>
        <time>2013-01-27T08:26:38Z</time>
      </trkpt>
      <trkpt lat="42.57767" lon="1.99794">
        <ele>2015.060791</ele>
        <time>2013-01-27T08:26:49Z</time>
      </trkpt>
      <trkpt lat="42.57772" lon="1.99801">
        <ele>2016.5026855</ele>
        <time>2013-01-27T08:26:58Z</time>
      </trkpt>
      <trkpt lat="42.57777" lon="1.99806">
        <ele>2018.425293</ele>
        <time>2013-01-27T08:27:07Z</time>
      </trkpt>
      <trkpt lat="42.57782" lon="1.99811">
        <ele>2019.8671875</ele>
        <time>2013-01-27T08:27:16Z</time>
      </trkpt>
      <trkpt lat="42.57789" lon="1.99814">
        <ele>2020.8286133</ele>
        <time>2013-01-27T08:27:27Z</time>
      </trkpt>
      <trkpt lat="42.57796" lon="1.99817">
        <ele>2023.7124023</ele>
        <time>2013-01-27T08:27:37Z</time>
      </trkpt>
      <trkpt lat="42.57801" lon="1.99819">
        <ele>2026.1157227</ele>
        <time>2013-01-27T08:27:44Z</time>
      </trkpt>
      <trkpt lat="42.57802" lon="1.9982">
        <ele>2028.5192871</ele>
        <time>2013-01-27T08:27:53Z</time>
      </trkpt>
      <trkpt lat="42.57809" lon="1.9982">
        <ele>2020.3479004</ele>
        <time>2013-01-27T08:28:45Z</time>
      </trkpt>
      <trkpt lat="42.57811" lon="1.99821">
        <ele>2017.9445801</ele>
        <time>2013-01-27T08:28:54Z</time>
      </trkpt>
      <trkpt lat="42.57816" lon="1.99822">
        <ele>2016.9833984</ele>
        <time>2013-01-27T08:29:02Z</time>
      </trkpt>
      <trkpt lat="42.57816" lon="1.99822">
        <ele>2017.9445801</ele>
        <time>2013-01-27T08:29:11Z</time>
      </trkpt>
      <trkpt lat="42.57816" lon="1.99825">
        <ele>2028.0385742</ele>
        <time>2013-01-27T08:29:30Z</time>
      </trkpt>
      <trkpt lat="42.57818" lon="1.99824">
        <ele>2029.4804688</ele>
        <time>2013-01-27T08:29:54Z</time>
      </trkpt>
      <trkpt lat="42.57823" lon="1.99825">
        <ele>2024.1931152</ele>
        <time>2013-01-27T08:30:04Z</time>
      </trkpt>
      <trkpt lat="42.57826" lon="1.99828">
        <ele>2021.309082</ele>
        <time>2013-01-27T08:30:15Z</time>
      </trkpt>
      <trkpt lat="42.57831" lon="1.99834">
        <ele>2018.9060059</ele>
        <time>2013-01-27T08:30:24Z</time>
      </trkpt>
      <trkpt lat="42.57837" lon="1.99835">
        <ele>2012.1767578</ele>
        <time>2013-01-27T08:30:34Z</time>
      </trkpt>
      <trkpt lat="42.57842" lon="1.99841">
        <ele>2013.6186523</ele>
        <time>2013-01-27T08:30:43Z</time>
      </trkpt>
      <trkpt lat="42.57848" lon="1.99846">
        <ele>2011.6960449</ele>
        <time>2013-01-27T08:30:54Z</time>
      </trkpt>
      <trkpt lat="42.5785" lon="1.99847">
        <ele>2010.7346191</ele>
        <time>2013-01-27T08:31:01Z</time>
      </trkpt>
      <trkpt lat="42.57853" lon="1.99849">
        <ele>2011.215332</ele>
        <time>2013-01-27T08:31:08Z</time>
      </trkpt>
      <trkpt lat="42.57859" lon="1.99856">
        <ele>2013.6186523</ele>
        <time>2013-01-27T08:31:16Z</time>
      </trkpt>
      <trkpt lat="42.57863" lon="1.99863">
        <ele>2015.5415039</ele>
        <time>2013-01-27T08:31:23Z</time>
      </trkpt>
      <trkpt lat="42.57866" lon="1.99871">
        <ele>2016.9833984</ele>
        <time>2013-01-27T08:31:31Z</time>
      </trkpt>
      <trkpt lat="42.5787" lon="1.99881">
        <ele>2017.9445801</ele>
        <time>2013-01-27T08:31:41Z</time>
      </trkpt>
      <trkpt lat="42.57873" lon="1.99888">
        <ele>2016.9833984</ele>
        <time>2013-01-27T08:31:50Z</time>
      </trkpt>
      <trkpt lat="42.57877" lon="1.99896">
        <ele>2014.5800781</ele>
        <time>2013-01-27T08:32:00Z</time>
      </trkpt>
      <trkpt lat="42.5788" lon="1.99902">
        <ele>2012.1767578</ele>
        <time>2013-01-27T08:32:08Z</time>
      </trkpt>
      <trkpt lat="42.57884" lon="1.99912">
        <ele>2010.2539063</ele>
        <time>2013-01-27T08:32:18Z</time>
      </trkpt>
      <trkpt lat="42.57887" lon="1.99923">
        <ele>2014.5800781</ele>
        <time>2013-01-27T08:32:28Z</time>
      </trkpt>
      <trkpt lat="42.57891" lon="1.99932">
        <ele>2014.0993652</ele>
        <time>2013-01-27T08:32:38Z</time>
      </trkpt>
      <trkpt lat="42.57896" lon="1.99941">
        <ele>2012.6574707</ele>
        <time>2013-01-27T08:32:47Z</time>
      </trkpt>
      <trkpt lat="42.57904" lon="1.99946">
        <ele>2014.0993652</ele>
        <time>2013-01-27T08:32:57Z</time>
      </trkpt>
      <trkpt lat="42.57909" lon="1.99948">
        <ele>2013.1381836</ele>
        <time>2013-01-27T08:33:04Z</time>
      </trkpt>
      <trkpt lat="42.57918" lon="1.9995">
        <ele>2010.2539063</ele>
        <time>2013-01-27T08:33:13Z</time>
      </trkpt>
      <trkpt lat="42.57923" lon="1.99952">
        <ele>2009.2927246</ele>
        <time>2013-01-27T08:33:20Z</time>
      </trkpt>
      <trkpt lat="42.57931" lon="1.99955">
        <ele>2010.7346191</ele>
        <time>2013-01-27T08:33:30Z</time>
      </trkpt>
      <trkpt lat="42.57936" lon="1.99959">
        <ele>2011.6960449</ele>
        <time>2013-01-27T08:33:38Z</time>
      </trkpt>
      <trkpt lat="42.57941" lon="1.99962">
        <ele>2011.215332</ele>
        <time>2013-01-27T08:33:46Z</time>
      </trkpt>
      <trkpt lat="42.57947" lon="1.99966">
        <ele>2006.8894043</ele>
        <time>2013-01-27T08:33:55Z</time>
      </trkpt>
      <trkpt lat="42.57953" lon="1.99971">
        <ele>2008.3312988</ele>
        <time>2013-01-27T08:34:04Z</time>
      </trkpt>
      <trkpt lat="42.57959" lon="1.99976">
        <ele>2009.2927246</ele>
        <time>2013-01-27T08:34:12Z</time>
      </trkpt>
      <trkpt lat="42.57965" lon="1.99979">
        <ele>2009.7731934</ele>
        <time>2013-01-27T08:34:22Z</time>
      </trkpt>
      <trkpt lat="42.57972" lon="1.9998">
        <ele>2011.215332</ele>
        <time>2013-01-27T08:34:31Z</time>
      </trkpt>
      <trkpt lat="42.57979" lon="1.99981">
        <ele>2014.5800781</ele>
        <time>2013-01-27T08:34:40Z</time>
      </trkpt>
      <trkpt lat="42.57986" lon="1.99985">
        <ele>2014.0993652</ele>
        <time>2013-01-27T08:34:50Z</time>
      </trkpt>
      <trkpt lat="42.5799" lon="1.99991">
        <ele>2013.1381836</ele>
        <time>2013-01-27T08:34:59Z</time>
      </trkpt>
      <trkpt lat="42.57995" lon="1.99996">
        <ele>2014.0993652</ele>
        <time>2013-01-27T08:35:07Z</time>
      </trkpt>
      <trkpt lat="42.58" lon="2.00005">
        <ele>2014.0993652</ele>
        <time>2013-01-27T08:35:17Z</time>
      </trkpt>
      <trkpt lat="42.58003" lon="2.00012">
        <ele>2013.6186523</ele>
        <time>2013-01-27T08:35:23Z</time>
      </trkpt>
      <trkpt lat="42.58007" lon="2.00023">
        <ele>2015.5415039</ele>
        <time>2013-01-27T08:35:32Z</time>
      </trkpt>
      <trkpt lat="42.58009" lon="2.00037">
        <ele>2014.5800781</ele>
        <time>2013-01-27T08:35:43Z</time>
      </trkpt>
      <trkpt lat="42.58011" lon="2.0005">
        <ele>2016.5026855</ele>
        <time>2013-01-27T08:35:52Z</time>
      </trkpt>
      <trkpt lat="42.58014" lon="2.0006">
        <ele>2018.9060059</ele>
        <time>2013-01-27T08:36:00Z</time>
      </trkpt>
      <trkpt lat="42.58016" lon="2.00065">
        <ele>2017.4638672</ele>
        <time>2013-01-27T08:36:07Z</time>
      </trkpt>
      <trkpt lat="42.58018" lon="2.0007">
        <ele>2015.060791</ele>
        <time>2013-01-27T08:36:12Z</time>
      </trkpt>
      <trkpt lat="42.58021" lon="2.00083">
        <ele>2016.9833984</ele>
        <time>2013-01-27T08:36:23Z</time>
      </trkpt>
      <trkpt lat="42.58022" lon="2.00092">
        <ele>2019.8671875</ele>
        <time>2013-01-27T08:36:32Z</time>
      </trkpt>
      <trkpt lat="42.58025" lon="2.00097">
        <ele>2019.3867188</ele>
        <time>2013-01-27T08:36:40Z</time>
      </trkpt>
      <trkpt lat="42.58028" lon="2.00104">
        <ele>2016.9833984</ele>
        <time>2013-01-27T08:36:48Z</time>
      </trkpt>
      <trkpt lat="42.58033" lon="2.0011">
        <ele>2017.9445801</ele>
        <time>2013-01-27T08:36:57Z</time>
      </trkpt>
      <trkpt lat="42.58038" lon="2.00118">
        <ele>2022.7512207</ele>
        <time>2013-01-27T08:37:07Z</time>
      </trkpt>
      <trkpt lat="42.58042" lon="2.00123">
        <ele>2021.309082</ele>
        <time>2013-01-27T08:37:16Z</time>
      </trkpt>
      <trkpt lat="42.58047" lon="2.00127">
        <ele>2014.5800781</ele>
        <time>2013-01-27T08:37:25Z</time>
      </trkpt>
      <trkpt lat="42.58052" lon="2.00125">
        <ele>2012.6574707</ele>
        <time>2013-01-27T08:37:33Z</time>
      </trkpt>
      <trkpt lat="42.58059" lon="2.00125">
        <ele>2018.9060059</ele>
        <time>2013-01-27T08:37:43Z</time>
      </trkpt>
      <trkpt lat="42.58063" lon="2.00125">
        <ele>2019.8671875</ele>
        <time>2013-01-27T08:37:51Z</time>
      </trkpt>
      <trkpt lat="42.58068" lon="2.00127">
        <ele>2025.6350098</ele>
        <time>2013-01-27T08:38:01Z</time>
      </trkpt>
      <trkpt lat="42.58072" lon="2.0013">
        <ele>2025.6350098</ele>
        <time>2013-01-27T08:38:08Z</time>
      </trkpt>
      <trkpt lat="42.58075" lon="2.00129">
        <ele>2028.0385742</ele>
        <time>2013-01-27T08:38:14Z</time>
      </trkpt>
      <trkpt lat="42.58079" lon="2.00129">
        <ele>2028.9997559</ele>
        <time>2013-01-27T08:38:19Z</time>
      </trkpt>
      <trkpt lat="42.58082" lon="2.00128">
        <ele>2025.1542969</ele>
        <time>2013-01-27T08:38:26Z</time>
      </trkpt>
      <trkpt lat="42.58085" lon="2.00125">
        <ele>2024.1931152</ele>
        <time>2013-01-27T08:38:32Z</time>
      </trkpt>
      <trkpt lat="42.5809" lon="2.00123">
        <ele>2023.2319336</ele>
        <time>2013-01-27T08:38:40Z</time>
      </trkpt>
      <trkpt lat="42.58096" lon="2.00124">
        <ele>2020.3479004</ele>
        <time>2013-01-27T08:38:48Z</time>
      </trkpt>
      <trkpt lat="42.58104" lon="2.00128">
        <ele>2022.2705078</ele>
        <time>2013-01-27T08:38:57Z</time>
      </trkpt>
      <trkpt lat="42.58103" lon="2.00131">
        <ele>2023.2319336</ele>
        <time>2013-01-27T08:39:04Z</time>
      </trkpt>
      <trkpt lat="42.58102" lon="2.0013">
        <ele>2020.3479004</ele>
        <time>2013-01-27T08:39:17Z</time>
      </trkpt>
      <trkpt lat="42.58101" lon="2.00134">
        <ele>2028.9997559</ele>
        <time>2013-01-27T08:40:01Z</time>
      </trkpt>
      <trkpt lat="42.58101" lon="2.00132">
        <ele>2028.0385742</ele>
        <time>2013-01-27T08:40:15Z</time>
      </trkpt>
      <trkpt lat="42.581" lon="2.00133">
        <ele>2021.309082</ele>
        <time>2013-01-27T08:40:37Z</time>
      </trkpt>
      <trkpt lat="42.58099" lon="2.00131">
        <ele>2007.8508301</ele>
        <time>2013-01-27T08:40:54Z</time>
      </trkpt>
      <trkpt lat="42.581" lon="2.00127">
        <ele>1999.6796875</ele>
        <time>2013-01-27T08:41:29Z</time>
      </trkpt>
      <trkpt lat="42.581" lon="2.00127">
        <ele>2007.8508301</ele>
        <time>2013-01-27T08:41:51Z</time>
      </trkpt>
      <trkpt lat="42.58099" lon="2.00133">
        <ele>2012.6574707</ele>
        <time>2013-01-27T08:42:06Z</time>
      </trkpt>
      <trkpt lat="42.58101" lon="2.00126">
        <ele>2006.8894043</ele>
        <time>2013-01-27T08:42:56Z</time>
      </trkpt>
      <trkpt lat="42.58102" lon="2.00127">
        <ele>2013.6186523</ele>
        <time>2013-01-27T08:43:17Z</time>
      </trkpt>
      <trkpt lat="42.58101" lon="2.00127">
        <ele>2014.5800781</ele>
        <time>2013-01-27T08:43:52Z</time>
      </trkpt>
      <trkpt lat="42.58103" lon="2.00129">
        <ele>2025.1542969</ele>
        <time>2013-01-27T08:44:13Z</time>
      </trkpt>
      <trkpt lat="42.58104" lon="2.00136">
        <ele>2030.9226074</ele>
        <time>2013-01-27T08:44:21Z</time>
      </trkpt>
      <trkpt lat="42.58109" lon="2.00136">
        <ele>2027.5576172</ele>
        <time>2013-01-27T08:44:28Z</time>
      </trkpt>
      <trkpt lat="42.58116" lon="2.00138">
        <ele>2021.309082</ele>
        <time>2013-01-27T08:44:37Z</time>
      </trkpt>
      <trkpt lat="42.58121" lon="2.00139">
        <ele>2019.8671875</ele>
        <time>2013-01-27T08:44:42Z</time>
      </trkpt>
      <trkpt lat="42.58131" lon="2.00139">
        <ele>2022.7512207</ele>
        <time>2013-01-27T08:44:51Z</time>
      </trkpt>
      <trkpt lat="42.58136" lon="2.00141">
        <ele>2023.7124023</ele>
        <time>2013-01-27T08:44:59Z</time>
      </trkpt>
      <trkpt lat="42.58137" lon="2.00143">
        <ele>2024.1931152</ele>
        <time>2013-01-27T08:45:07Z</time>
      </trkpt>
      <trkpt lat="42.58141" lon="2.00145">
        <ele>2025.6350098</ele>
        <time>2013-01-27T08:45:15Z</time>
      </trkpt>
      <trkpt lat="42.58146" lon="2.00147">
        <ele>2027.0771484</ele>
        <time>2013-01-27T08:45:22Z</time>
      </trkpt>
      <trkpt lat="42.58148" lon="2.00148">
        <ele>2021.309082</ele>
        <time>2013-01-27T08:45:29Z</time>
      </trkpt>
      <trkpt lat="42.58152" lon="2.00152">
        <ele>2019.8671875</ele>
        <time>2013-01-27T08:45:37Z</time>
      </trkpt>
      <trkpt lat="42.58157" lon="2.00157">
        <ele>2016.5026855</ele>
        <time>2013-01-27T08:45:45Z</time>
      </trkpt>
      <trkpt lat="42.5816" lon="2.00165">
        <ele>2014.5800781</ele>
        <time>2013-01-27T08:45:53Z</time>
      </trkpt>
      <trkpt lat="42.58164" lon="2.0017">
        <ele>2013.6186523</ele>
        <time>2013-01-27T08:46:01Z</time>
      </trkpt>
      <trkpt lat="42.58167" lon="2.00177">
        <ele>2014.0993652</ele>
        <time>2013-01-27T08:46:09Z</time>
      </trkpt>
      <trkpt lat="42.5817" lon="2.0018">
        <ele>2015.5415039</ele>
        <time>2013-01-27T08:46:17Z</time>
      </trkpt>
      <trkpt lat="42.58173" lon="2.00179">
        <ele>2010.7346191</ele>
        <time>2013-01-27T08:46:26Z</time>
      </trkpt>
      <trkpt lat="42.58173" lon="2.0018">
        <ele>2010.7346191</ele>
        <time>2013-01-27T08:46:35Z</time>
      </trkpt>
      <trkpt lat="42.5818" lon="2.00185">
        <ele>2016.5026855</ele>
        <time>2013-01-27T08:46:45Z</time>
      </trkpt>
      <trkpt lat="42.58185" lon="2.00188">
        <ele>2017.9445801</ele>
        <time>2013-01-27T08:46:54Z</time>
      </trkpt>
      <trkpt lat="42.58191" lon="2.00193">
        <ele>2018.425293</ele>
        <time>2013-01-27T08:47:04Z</time>
      </trkpt>
      <trkpt lat="42.58196" lon="2.00196">
        <ele>2020.3479004</ele>
        <time>2013-01-27T08:47:14Z</time>
      </trkpt>
      <trkpt lat="42.58202" lon="2.00201">
        <ele>2020.3479004</ele>
        <time>2013-01-27T08:47:26Z</time>
      </trkpt>
      <trkpt lat="42.58209" lon="2.00204">
        <ele>2025.1542969</ele>
        <time>2013-01-27T08:47:36Z</time>
      </trkpt>
      <trkpt lat="42.58216" lon="2.0021">
        <ele>2028.9997559</ele>
        <time>2013-01-27T08:47:45Z</time>
      </trkpt>
      <trkpt lat="42.58218" lon="2.00215">
        <ele>2029.4804688</ele>
        <time>2013-01-27T08:47:49Z</time>
      </trkpt>
      <trkpt lat="42.58224" lon="2.00224">
        <ele>2029.4804688</ele>
        <time>2013-01-27T08:47:58Z</time>
      </trkpt>
      <trkpt lat="42.58225" lon="2.00225">
        <ele>2028.9997559</ele>
        <time>2013-01-27T08:47:59Z</time>
      </trkpt>
      <trkpt lat="42.58229" lon="2.00229">
        <ele>2028.0385742</ele>
        <time>2013-01-27T08:48:04Z</time>
      </trkpt>
      <trkpt lat="42.58233" lon="2.00232">
        <ele>2025.6350098</ele>
        <time>2013-01-27T08:48:14Z</time>
      </trkpt>
      <trkpt lat="42.58234" lon="2.00236">
        <ele>2027.0771484</ele>
        <time>2013-01-27T08:48:20Z</time>
      </trkpt>
      <trkpt lat="42.58239" lon="2.00243">
        <ele>2027.0771484</ele>
        <time>2013-01-27T08:48:28Z</time>
      </trkpt>
      <trkpt lat="42.58244" lon="2.00253">
        <ele>2028.5192871</ele>
        <time>2013-01-27T08:48:38Z</time>
      </trkpt>
      <trkpt lat="42.58248" lon="2.00258">
        <ele>2025.6350098</ele>
        <time>2013-01-27T08:48:46Z</time>
      </trkpt>
      <trkpt lat="42.58251" lon="2.00262">
        <ele>2030.9226074</ele>
        <time>2013-01-27T08:48:53Z</time>
      </trkpt>
      <trkpt lat="42.58256" lon="2.00268">
        <ele>2030.9226074</ele>
        <time>2013-01-27T08:49:02Z</time>
      </trkpt>
      <trkpt lat="42.58261" lon="2.00273">
        <ele>2029.9611816</ele>
        <time>2013-01-27T08:49:10Z</time>
      </trkpt>
      <trkpt lat="42.58266" lon="2.00278">
        <ele>2030.9226074</ele>
        <time>2013-01-27T08:49:18Z</time>
      </trkpt>
      <trkpt lat="42.5827" lon="2.00285">
        <ele>2032.364502</ele>
        <time>2013-01-27T08:49:26Z</time>
      </trkpt>
      <trkpt lat="42.58272" lon="2.00294">
        <ele>2035.248291</ele>
        <time>2013-01-27T08:49:34Z</time>
      </trkpt>
      <trkpt lat="42.58275" lon="2.003">
        <ele>2034.7678223</ele>
        <time>2013-01-27T08:49:42Z</time>
      </trkpt>
      <trkpt lat="42.58276" lon="2.00306">
        <ele>2036.6901855</ele>
        <time>2013-01-27T08:49:50Z</time>
      </trkpt>
      <trkpt lat="42.58278" lon="2.0031">
        <ele>2037.1708984</ele>
        <time>2013-01-27T08:49:58Z</time>
      </trkpt>
      <trkpt lat="42.58281" lon="2.00317">
        <ele>2037.1708984</ele>
        <time>2013-01-27T08:50:07Z</time>
      </trkpt>
      <trkpt lat="42.58287" lon="2.00322">
        <ele>2032.8449707</ele>
        <time>2013-01-27T08:50:16Z</time>
      </trkpt>
      <trkpt lat="42.58292" lon="2.00329">
        <ele>2032.8449707</ele>
        <time>2013-01-27T08:50:25Z</time>
      </trkpt>
      <trkpt lat="42.58294" lon="2.00333">
        <ele>2032.8449707</ele>
        <time>2013-01-27T08:50:32Z</time>
      </trkpt>
      <trkpt lat="42.58296" lon="2.00338">
        <ele>2034.2871094</ele>
        <time>2013-01-27T08:50:38Z</time>
      </trkpt>
      <trkpt lat="42.583" lon="2.00345">
        <ele>2035.7290039</ele>
        <time>2013-01-27T08:50:47Z</time>
      </trkpt>
      <trkpt lat="42.58306" lon="2.00353">
        <ele>2038.1323242</ele>
        <time>2013-01-27T08:50:58Z</time>
      </trkpt>
      <trkpt lat="42.58306" lon="2.00356">
        <ele>2038.6130371</ele>
        <time>2013-01-27T08:51:05Z</time>
      </trkpt>
      <trkpt lat="42.58306" lon="2.00357">
        <ele>2039.0935059</ele>
        <time>2013-01-27T08:51:17Z</time>
      </trkpt>
      <trkpt lat="42.58308" lon="2.00357">
        <ele>2037.6516113</ele>
        <time>2013-01-27T08:51:29Z</time>
      </trkpt>
      <trkpt lat="42.58313" lon="2.00367">
        <ele>2039.5742188</ele>
        <time>2013-01-27T08:51:40Z</time>
      </trkpt>
      <trkpt lat="42.58318" lon="2.00378">
        <ele>2042.9387207</ele>
        <time>2013-01-27T08:51:50Z</time>
      </trkpt>
      <trkpt lat="42.58319" lon="2.00382">
        <ele>2041.0161133</ele>
        <time>2013-01-27T08:51:58Z</time>
      </trkpt>
      <trkpt lat="42.58322" lon="2.00386">
        <ele>2042.458252</ele>
        <time>2013-01-27T08:52:14Z</time>
      </trkpt>
      <trkpt lat="42.58326" lon="2.00396">
        <ele>2044.8615723</ele>
        <time>2013-01-27T08:52:25Z</time>
      </trkpt>
      <trkpt lat="42.58328" lon="2.00403">
        <ele>2044.3808594</ele>
        <time>2013-01-27T08:52:35Z</time>
      </trkpt>
      <trkpt lat="42.58332" lon="2.00408">
        <ele>2044.8615723</ele>
        <time>2013-01-27T08:52:42Z</time>
      </trkpt>
      <trkpt lat="42.58335" lon="2.00411">
        <ele>2042.9387207</ele>
        <time>2013-01-27T08:52:49Z</time>
      </trkpt>
      <trkpt lat="42.58338" lon="2.00416">
        <ele>2044.8615723</ele>
        <time>2013-01-27T08:52:59Z</time>
      </trkpt>
      <trkpt lat="42.58343" lon="2.00421">
        <ele>2046.3037109</ele>
        <time>2013-01-27T08:53:08Z</time>
      </trkpt>
      <trkpt lat="42.58342" lon="2.00427">
        <ele>2047.2648926</ele>
        <time>2013-01-27T08:53:16Z</time>
      </trkpt>
      <trkpt lat="42.58345" lon="2.00436">
        <ele>2049.1875</ele>
        <time>2013-01-27T08:53:25Z</time>
      </trkpt>
      <trkpt lat="42.58346" lon="2.00441">
        <ele>2047.7456055</ele>
        <time>2013-01-27T08:53:32Z</time>
      </trkpt>
      <trkpt lat="42.58347" lon="2.00443">
        <ele>2046.3037109</ele>
        <time>2013-01-27T08:53:38Z</time>
      </trkpt>
      <trkpt lat="42.58349" lon="2.00449">
        <ele>2046.3037109</ele>
        <time>2013-01-27T08:53:46Z</time>
      </trkpt>
      <trkpt lat="42.58351" lon="2.00452">
        <ele>2048.7067871</ele>
        <time>2013-01-27T08:53:53Z</time>
      </trkpt>
      <trkpt lat="42.58356" lon="2.00455">
        <ele>2049.6682129</ele>
        <time>2013-01-27T08:54:02Z</time>
      </trkpt>
      <trkpt lat="42.58361" lon="2.00457">
        <ele>2048.7067871</ele>
        <time>2013-01-27T08:54:10Z</time>
      </trkpt>
      <trkpt lat="42.58367" lon="2.0046">
        <ele>2051.1101074</ele>
        <time>2013-01-27T08:54:17Z</time>
      </trkpt>
      <trkpt lat="42.5837" lon="2.00464">
        <ele>2049.6682129</ele>
        <time>2013-01-27T08:54:24Z</time>
      </trkpt>
      <trkpt lat="42.58374" lon="2.00469">
        <ele>2053.0327148</ele>
        <time>2013-01-27T08:54:33Z</time>
      </trkpt>
      <trkpt lat="42.58378" lon="2.00475">
        <ele>2051.5908203</ele>
        <time>2013-01-27T08:54:41Z</time>
      </trkpt>
      <trkpt lat="42.58381" lon="2.00484">
        <ele>2051.5908203</ele>
        <time>2013-01-27T08:54:52Z</time>
      </trkpt>
      <trkpt lat="42.58384" lon="2.00489">
        <ele>2051.5908203</ele>
        <time>2013-01-27T08:54:59Z</time>
      </trkpt>
      <trkpt lat="42.58386" lon="2.00493">
        <ele>2051.1101074</ele>
        <time>2013-01-27T08:55:05Z</time>
      </trkpt>
      <trkpt lat="42.58389" lon="2.00496">
        <ele>2052.0712891</ele>
        <time>2013-01-27T08:55:11Z</time>
      </trkpt>
      <trkpt lat="42.58395" lon="2.005">
        <ele>2051.5908203</ele>
        <time>2013-01-27T08:55:19Z</time>
      </trkpt>
      <trkpt lat="42.58398" lon="2.00503">
        <ele>2052.552002</ele>
        <time>2013-01-27T08:55:24Z</time>
      </trkpt>
      <trkpt lat="42.584" lon="2.00503">
        <ele>2053.5134277</ele>
        <time>2013-01-27T08:55:29Z</time>
      </trkpt>
      <trkpt lat="42.58408" lon="2.00507">
        <ele>2057.8393555</ele>
        <time>2013-01-27T08:55:39Z</time>
      </trkpt>
      <trkpt lat="42.58415" lon="2.00503">
        <ele>2059.28125</ele>
        <time>2013-01-27T08:55:50Z</time>
      </trkpt>
      <trkpt lat="42.5842" lon="2.00506">
        <ele>2065.0493164</ele>
        <time>2013-01-27T08:55:59Z</time>
      </trkpt>
      <trkpt lat="42.58423" lon="2.00508">
        <ele>2062.6459961</ele>
        <time>2013-01-27T08:56:06Z</time>
      </trkpt>
      <trkpt lat="42.58426" lon="2.00508">
        <ele>2057.8393555</ele>
        <time>2013-01-27T08:56:12Z</time>
      </trkpt>
      <trkpt lat="42.58428" lon="2.00503">
        <ele>2056.3972168</ele>
        <time>2013-01-27T08:56:18Z</time>
      </trkpt>
      <trkpt lat="42.5843" lon="2.005">
        <ele>2057.8393555</ele>
        <time>2013-01-27T08:56:26Z</time>
      </trkpt>
      <trkpt lat="42.58435" lon="2.00497">
        <ele>2057.8393555</ele>
        <time>2013-01-27T08:56:37Z</time>
      </trkpt>
      <trkpt lat="42.58431" lon="2.00498">
        <ele>2061.6848145</ele>
        <time>2013-01-27T08:57:36Z</time>
      </trkpt>
      <trkpt lat="42.58431" lon="2.00495">
        <ele>2064.0878906</ele>
        <time>2013-01-27T08:57:45Z</time>
      </trkpt>
      <trkpt lat="42.58434" lon="2.00495">
        <ele>2065.5300293</ele>
        <time>2013-01-27T08:58:00Z</time>
      </trkpt>
      <trkpt lat="42.58435" lon="2.00499">
        <ele>2068.8945313</ele>
        <time>2013-01-27T08:58:15Z</time>
      </trkpt>
      <trkpt lat="42.58436" lon="2.00497">
        <ele>2071.2976074</ele>
        <time>2013-01-27T08:58:25Z</time>
      </trkpt>
      <trkpt lat="42.58439" lon="2.00501">
        <ele>2067.9331055</ele>
        <time>2013-01-27T08:58:32Z</time>
      </trkpt>
      <trkpt lat="42.5844" lon="2.00501">
        <ele>2065.5300293</ele>
        <time>2013-01-27T08:58:37Z</time>
      </trkpt>
      <trkpt lat="42.58443" lon="2.00501">
        <ele>2064.5686035</ele>
        <time>2013-01-27T08:58:43Z</time>
      </trkpt>
      <trkpt lat="42.58453" lon="2.00501">
        <ele>2067.4523926</ele>
        <time>2013-01-27T08:58:52Z</time>
      </trkpt>
      <trkpt lat="42.58458" lon="2.00502">
        <ele>2066.4912109</ele>
        <time>2013-01-27T08:58:59Z</time>
      </trkpt>
      <trkpt lat="42.58463" lon="2.00499">
        <ele>2057.8393555</ele>
        <time>2013-01-27T08:59:12Z</time>
      </trkpt>
      <trkpt lat="42.58471" lon="2.00502">
        <ele>2060.7233887</ele>
        <time>2013-01-27T08:59:23Z</time>
      </trkpt>
      <trkpt lat="42.58475" lon="2.00502">
        <ele>2062.6459961</ele>
        <time>2013-01-27T08:59:31Z</time>
      </trkpt>
      <trkpt lat="42.5848" lon="2.00501">
        <ele>2061.2041016</ele>
        <time>2013-01-27T08:59:37Z</time>
      </trkpt>
      <trkpt lat="42.58485" lon="2.00504">
        <ele>2064.5686035</ele>
        <time>2013-01-27T08:59:45Z</time>
      </trkpt>
      <trkpt lat="42.58489" lon="2.00508">
        <ele>2067.9331055</ele>
        <time>2013-01-27T08:59:51Z</time>
      </trkpt>
      <trkpt lat="42.58493" lon="2.0051">
        <ele>2071.2976074</ele>
        <time>2013-01-27T08:59:59Z</time>
      </trkpt>
      <trkpt lat="42.58495" lon="2.00511">
        <ele>2072.2590332</ele>
        <time>2013-01-27T09:00:06Z</time>
      </trkpt>
      <trkpt lat="42.58499" lon="2.00512">
        <ele>2072.7397461</ele>
        <time>2013-01-27T09:00:15Z</time>
      </trkpt>
      <trkpt lat="42.58503" lon="2.00515">
        <ele>2070.8171387</ele>
        <time>2013-01-27T09:00:22Z</time>
      </trkpt>
      <trkpt lat="42.58504" lon="2.00519">
        <ele>2070.3364258</ele>
        <time>2013-01-27T09:00:28Z</time>
      </trkpt>
      <trkpt lat="42.58504" lon="2.00523">
        <ele>2068.4138184</ele>
        <time>2013-01-27T09:00:35Z</time>
      </trkpt>
      <trkpt lat="42.58506" lon="2.00528">
        <ele>2072.2590332</ele>
        <time>2013-01-27T09:00:41Z</time>
      </trkpt>
      <trkpt lat="42.5851" lon="2.00531">
        <ele>2071.2976074</ele>
        <time>2013-01-27T09:00:48Z</time>
      </trkpt>
      <trkpt lat="42.58513" lon="2.00535">
        <ele>2068.8945313</ele>
        <time>2013-01-27T09:00:57Z</time>
      </trkpt>
      <trkpt lat="42.58515" lon="2.00541">
        <ele>2066.9719238</ele>
        <time>2013-01-27T09:01:06Z</time>
      </trkpt>
      <trkpt lat="42.58517" lon="2.00545">
        <ele>2066.4912109</ele>
        <time>2013-01-27T09:01:15Z</time>
      </trkpt>
      <trkpt lat="42.58518" lon="2.00547">
        <ele>2067.4523926</ele>
        <time>2013-01-27T09:01:23Z</time>
      </trkpt>
      <trkpt lat="42.58521" lon="2.0055">
        <ele>2069.8557129</ele>
        <time>2013-01-27T09:01:33Z</time>
      </trkpt>
      <trkpt lat="42.5852" lon="2.00549">
        <ele>2075.6235352</ele>
        <time>2013-01-27T09:01:53Z</time>
      </trkpt>
      <trkpt lat="42.58526" lon="2.0055">
        <ele>2080.9111328</ele>
        <time>2013-01-27T09:02:21Z</time>
      </trkpt>
      <trkpt lat="42.58522" lon="2.00549">
        <ele>2073.220459</ele>
        <time>2013-01-27T09:02:33Z</time>
      </trkpt>
      <trkpt lat="42.58519" lon="2.00549">
        <ele>2074.1816406</ele>
        <time>2013-01-27T09:02:44Z</time>
      </trkpt>
      <trkpt lat="42.58519" lon="2.00545">
        <ele>2085.7175293</ele>
        <time>2013-01-27T09:02:58Z</time>
      </trkpt>
      <trkpt lat="42.58524" lon="2.00551">
        <ele>2087.1594238</ele>
        <time>2013-01-27T09:03:21Z</time>
      </trkpt>
      <trkpt lat="42.58526" lon="2.0055">
        <ele>2085.2368164</ele>
        <time>2013-01-27T09:03:29Z</time>
      </trkpt>
      <trkpt lat="42.58527" lon="2.00549">
        <ele>2084.7563477</ele>
        <time>2013-01-27T09:03:30Z</time>
      </trkpt>
      <trkpt lat="42.58532" lon="2.00548">
        <ele>2084.2756348</ele>
        <time>2013-01-27T09:03:38Z</time>
      </trkpt>
      <trkpt lat="42.58535" lon="2.00547">
        <ele>2083.314209</ele>
        <time>2013-01-27T09:03:45Z</time>
      </trkpt>
      <trkpt lat="42.58538" lon="2.00546">
        <ele>2082.3530273</ele>
        <time>2013-01-27T09:03:53Z</time>
      </trkpt>
      <trkpt lat="42.58541" lon="2.0054">
        <ele>2083.314209</ele>
        <time>2013-01-27T09:04:01Z</time>
      </trkpt>
      <trkpt lat="42.58547" lon="2.00541">
        <ele>2083.314209</ele>
        <time>2013-01-27T09:04:09Z</time>
      </trkpt>
      <trkpt lat="42.5855" lon="2.00546">
        <ele>2081.3916016</ele>
        <time>2013-01-27T09:04:17Z</time>
      </trkpt>
      <trkpt lat="42.58555" lon="2.00551">
        <ele>2081.8723145</ele>
        <time>2013-01-27T09:04:26Z</time>
      </trkpt>
      <trkpt lat="42.58559" lon="2.00552">
        <ele>2085.2368164</ele>
        <time>2013-01-27T09:04:37Z</time>
      </trkpt>
      <trkpt lat="42.5856" lon="2.00554">
        <ele>2091.4853516</ele>
        <time>2013-01-27T09:04:52Z</time>
      </trkpt>
      <trkpt lat="42.58562" lon="2.0056">
        <ele>2095.3308105</ele>
        <time>2013-01-27T09:05:09Z</time>
      </trkpt>
      <trkpt lat="42.58566" lon="2.00561">
        <ele>2090.043457</ele>
        <time>2013-01-27T09:05:16Z</time>
      </trkpt>
      <trkpt lat="42.58571" lon="2.00565">
        <ele>2093.4082031</ele>
        <time>2013-01-27T09:05:23Z</time>
      </trkpt>
      <trkpt lat="42.58574" lon="2.00567">
        <ele>2092.4470215</ele>
        <time>2013-01-27T09:05:32Z</time>
      </trkpt>
      <trkpt lat="42.58579" lon="2.00568">
        <ele>2090.5239258</ele>
        <time>2013-01-27T09:05:40Z</time>
      </trkpt>
      <trkpt lat="42.58582" lon="2.00572">
        <ele>2090.043457</ele>
        <time>2013-01-27T09:05:46Z</time>
      </trkpt>
      <trkpt lat="42.58586" lon="2.00575">
        <ele>2090.5239258</ele>
        <time>2013-01-27T09:05:54Z</time>
      </trkpt>
      <trkpt lat="42.5859" lon="2.00578">
        <ele>2092.4470215</ele>
        <time>2013-01-27T09:06:01Z</time>
      </trkpt>
      <trkpt lat="42.58595" lon="2.00581">
        <ele>2090.5239258</ele>
        <time>2013-01-27T09:06:10Z</time>
      </trkpt>
      <trkpt lat="42.586" lon="2.00582">
        <ele>2089.5627441</ele>
        <time>2013-01-27T09:06:16Z</time>
      </trkpt>
      <trkpt lat="42.58604" lon="2.00586">
        <ele>2095.3308105</ele>
        <time>2013-01-27T09:06:24Z</time>
      </trkpt>
      <trkpt lat="42.58608" lon="2.00588">
        <ele>2094.8500977</ele>
        <time>2013-01-27T09:06:30Z</time>
      </trkpt>
      <trkpt lat="42.58612" lon="2.00588">
        <ele>2092.9274902</ele>
        <time>2013-01-27T09:06:36Z</time>
      </trkpt>
      <trkpt lat="42.58615" lon="2.00589">
        <ele>2091.0046387</ele>
        <time>2013-01-27T09:06:43Z</time>
      </trkpt>
      <trkpt lat="42.58619" lon="2.00595">
        <ele>2095.3308105</ele>
        <time>2013-01-27T09:06:52Z</time>
      </trkpt>
      <trkpt lat="42.5862" lon="2.00599">
        <ele>2100.1374512</ele>
        <time>2013-01-27T09:06:57Z</time>
      </trkpt>
      <trkpt lat="42.58625" lon="2.00606">
        <ele>2099.1760254</ele>
        <time>2013-01-27T09:07:05Z</time>
      </trkpt>
      <trkpt lat="42.58626" lon="2.00606">
        <ele>2097.253418</ele>
        <time>2013-01-27T09:07:10Z</time>
      </trkpt>
      <trkpt lat="42.58628" lon="2.00609">
        <ele>2102.5405273</ele>
        <time>2013-01-27T09:07:22Z</time>
      </trkpt>
      <trkpt lat="42.58627" lon="2.00612">
        <ele>2097.7341309</ele>
        <time>2013-01-27T09:07:35Z</time>
      </trkpt>
      <trkpt lat="42.5863" lon="2.00614">
        <ele>2099.1760254</ele>
        <time>2013-01-27T09:07:46Z</time>
      </trkpt>
      <trkpt lat="42.58632" lon="2.00617">
        <ele>2101.5793457</ele>
        <time>2013-01-27T09:07:52Z</time>
      </trkpt>
      <trkpt lat="42.58635" lon="2.0062">
        <ele>2103.5019531</ele>
        <time>2013-01-27T09:07:59Z</time>
      </trkpt>
      <trkpt lat="42.58637" lon="2.00621">
        <ele>2104.9438477</ele>
        <time>2013-01-27T09:08:08Z</time>
      </trkpt>
      <trkpt lat="42.58641" lon="2.00621">
        <ele>2106.3857422</ele>
        <time>2013-01-27T09:08:15Z</time>
      </trkpt>
      <trkpt lat="42.58643" lon="2.00624">
        <ele>2104.9438477</ele>
        <time>2013-01-27T09:08:27Z</time>
      </trkpt>
      <trkpt lat="42.58647" lon="2.00629">
        <ele>2104.9438477</ele>
        <time>2013-01-27T09:08:36Z</time>
      </trkpt>
      <trkpt lat="42.58649" lon="2.00637">
        <ele>2107.347168</ele>
        <time>2013-01-27T09:08:45Z</time>
      </trkpt>
      <trkpt lat="42.58652" lon="2.00642">
        <ele>2109.7504883</ele>
        <time>2013-01-27T09:08:53Z</time>
      </trkpt>
      <trkpt lat="42.58656" lon="2.00648">
        <ele>2111.192627</ele>
        <time>2013-01-27T09:09:02Z</time>
      </trkpt>
      <trkpt lat="42.58654" lon="2.00652">
        <ele>2109.7504883</ele>
        <time>2013-01-27T09:09:08Z</time>
      </trkpt>
      <trkpt lat="42.58653" lon="2.00654">
        <ele>2110.2312012</ele>
        <time>2013-01-27T09:09:15Z</time>
      </trkpt>
      <trkpt lat="42.58658" lon="2.00654">
        <ele>2109.2700195</ele>
        <time>2013-01-27T09:09:22Z</time>
      </trkpt>
      <trkpt lat="42.58663" lon="2.00654">
        <ele>2107.8278809</ele>
        <time>2013-01-27T09:09:30Z</time>
      </trkpt>
      <trkpt lat="42.58668" lon="2.0066">
        <ele>2111.6733398</ele>
        <time>2013-01-27T09:09:38Z</time>
      </trkpt>
      <trkpt lat="42.58673" lon="2.00665">
        <ele>2114.5571289</ele>
        <time>2013-01-27T09:09:46Z</time>
      </trkpt>
      <trkpt lat="42.58679" lon="2.00673">
        <ele>2114.5571289</ele>
        <time>2013-01-27T09:09:53Z</time>
      </trkpt>
      <trkpt lat="42.58684" lon="2.00679">
        <ele>2114.076416</ele>
        <time>2013-01-27T09:10:01Z</time>
      </trkpt>
      <trkpt lat="42.58685" lon="2.00683">
        <ele>2113.1152344</ele>
        <time>2013-01-27T09:10:08Z</time>
      </trkpt>
      <trkpt lat="42.58688" lon="2.00691">
        <ele>2115.0378418</ele>
        <time>2013-01-27T09:10:16Z</time>
      </trkpt>
      <trkpt lat="42.58691" lon="2.00698">
        <ele>2114.5571289</ele>
        <time>2013-01-27T09:10:25Z</time>
      </trkpt>
      <trkpt lat="42.58694" lon="2.00704">
        <ele>2113.5957031</ele>
        <time>2013-01-27T09:10:33Z</time>
      </trkpt>
      <trkpt lat="42.58698" lon="2.00714">
        <ele>2112.1538086</ele>
        <time>2013-01-27T09:10:42Z</time>
      </trkpt>
      <trkpt lat="42.58703" lon="2.0072">
        <ele>2111.192627</ele>
        <time>2013-01-27T09:10:50Z</time>
      </trkpt>
      <trkpt lat="42.58705" lon="2.00725">
        <ele>2110.2312012</ele>
        <time>2013-01-27T09:10:57Z</time>
      </trkpt>
      <trkpt lat="42.58709" lon="2.00732">
        <ele>2108.7893066</ele>
        <time>2013-01-27T09:11:05Z</time>
      </trkpt>
      <trkpt lat="42.58713" lon="2.00739">
        <ele>2108.3085938</ele>
        <time>2013-01-27T09:11:13Z</time>
      </trkpt>
      <trkpt lat="42.58717" lon="2.00748">
        <ele>2107.347168</ele>
        <time>2013-01-27T09:11:22Z</time>
      </trkpt>
      <trkpt lat="42.58719" lon="2.00756">
        <ele>2107.8278809</ele>
        <time>2013-01-27T09:11:30Z</time>
      </trkpt>
      <trkpt lat="42.5872" lon="2.00758">
        <ele>2107.8278809</ele>
        <time>2013-01-27T09:11:39Z</time>
      </trkpt>
      <trkpt lat="42.58722" lon="2.00763">
        <ele>2106.8664551</ele>
        <time>2013-01-27T09:11:50Z</time>
      </trkpt>
      <trkpt lat="42.58726" lon="2.0077">
        <ele>2107.347168</ele>
        <time>2013-01-27T09:11:59Z</time>
      </trkpt>
      <trkpt lat="42.58732" lon="2.00776">
        <ele>2109.7504883</ele>
        <time>2013-01-27T09:12:08Z</time>
      </trkpt>
      <trkpt lat="42.58739" lon="2.00782">
        <ele>2113.5957031</ele>
        <time>2013-01-27T09:12:16Z</time>
      </trkpt>
      <trkpt lat="42.5874" lon="2.00782">
        <ele>2112.6345215</ele>
        <time>2013-01-27T09:12:18Z</time>
      </trkpt>
      <trkpt lat="42.58744" lon="2.00784">
        <ele>2107.8278809</ele>
        <time>2013-01-27T09:12:27Z</time>
      </trkpt>
      <trkpt lat="42.58747" lon="2.0079">
        <ele>2109.7504883</ele>
        <time>2013-01-27T09:12:34Z</time>
      </trkpt>
      <trkpt lat="42.5875" lon="2.00798">
        <ele>2111.6733398</ele>
        <time>2013-01-27T09:12:42Z</time>
      </trkpt>
      <trkpt lat="42.58754" lon="2.00803">
        <ele>2112.6345215</ele>
        <time>2013-01-27T09:12:50Z</time>
      </trkpt>
      <trkpt lat="42.58757" lon="2.00804">
        <ele>2112.6345215</ele>
        <time>2013-01-27T09:12:56Z</time>
      </trkpt>
      <trkpt lat="42.58764" lon="2.00809">
        <ele>2109.2700195</ele>
        <time>2013-01-27T09:13:07Z</time>
      </trkpt>
      <trkpt lat="42.58766" lon="2.00819">
        <ele>2109.2700195</ele>
        <time>2013-01-27T09:13:14Z</time>
      </trkpt>
      <trkpt lat="42.5877" lon="2.00823">
        <ele>2109.7504883</ele>
        <time>2013-01-27T09:13:21Z</time>
      </trkpt>
      <trkpt lat="42.58775" lon="2.00825">
        <ele>2112.1538086</ele>
        <time>2013-01-27T09:13:27Z</time>
      </trkpt>
      <trkpt lat="42.58782" lon="2.00829">
        <ele>2112.6345215</ele>
        <time>2013-01-27T09:13:35Z</time>
      </trkpt>
      <trkpt lat="42.58789" lon="2.00834">
        <ele>2113.1152344</ele>
        <time>2013-01-27T09:13:44Z</time>
      </trkpt>
      <trkpt lat="42.58796" lon="2.00833">
        <ele>2112.6345215</ele>
        <time>2013-01-27T09:13:52Z</time>
      </trkpt>
      <trkpt lat="42.58798" lon="2.00834">
        <ele>2109.7504883</ele>
        <time>2013-01-27T09:14:03Z</time>
      </trkpt>
      <trkpt lat="42.58801" lon="2.00833">
        <ele>2105.9050293</ele>
        <time>2013-01-27T09:14:25Z</time>
      </trkpt>
      <trkpt lat="42.5881" lon="2.00833">
        <ele>2106.8664551</ele>
        <time>2013-01-27T09:14:33Z</time>
      </trkpt>
      <trkpt lat="42.58818" lon="2.00837">
        <ele>2108.3085938</ele>
        <time>2013-01-27T09:14:40Z</time>
      </trkpt>
      <trkpt lat="42.58821" lon="2.00841">
        <ele>2107.8278809</ele>
        <time>2013-01-27T09:14:47Z</time>
      </trkpt>
      <trkpt lat="42.58825" lon="2.00848">
        <ele>2110.2312012</ele>
        <time>2013-01-27T09:14:55Z</time>
      </trkpt>
      <trkpt lat="42.58829" lon="2.00853">
        <ele>2114.076416</ele>
        <time>2013-01-27T09:15:02Z</time>
      </trkpt>
      <trkpt lat="42.58831" lon="2.00854">
        <ele>2111.6733398</ele>
        <time>2013-01-27T09:15:08Z</time>
      </trkpt>
      <trkpt lat="42.58835" lon="2.00859">
        <ele>2113.5957031</ele>
        <time>2013-01-27T09:15:15Z</time>
      </trkpt>
      <trkpt lat="42.58838" lon="2.00864">
        <ele>2115.0378418</ele>
        <time>2013-01-27T09:15:22Z</time>
      </trkpt>
      <trkpt lat="42.5884" lon="2.00872">
        <ele>2115.5185547</ele>
        <time>2013-01-27T09:15:32Z</time>
      </trkpt>
      <trkpt lat="42.58843" lon="2.00877">
        <ele>2116.9604492</ele>
        <time>2013-01-27T09:15:39Z</time>
      </trkpt>
      <trkpt lat="42.58843" lon="2.00885">
        <ele>2118.8830566</ele>
        <time>2013-01-27T09:15:45Z</time>
      </trkpt>
      <trkpt lat="42.58845" lon="2.00894">
        <ele>2117.440918</ele>
        <time>2013-01-27T09:15:55Z</time>
      </trkpt>
      <trkpt lat="42.58849" lon="2.009">
        <ele>2116.9604492</ele>
        <time>2013-01-27T09:16:03Z</time>
      </trkpt>
      <trkpt lat="42.58854" lon="2.00906">
        <ele>2117.440918</ele>
        <time>2013-01-27T09:16:12Z</time>
      </trkpt>
      <trkpt lat="42.5886" lon="2.00913">
        <ele>2116.4797363</ele>
        <time>2013-01-27T09:16:22Z</time>
      </trkpt>
      <trkpt lat="42.58866" lon="2.0092">
        <ele>2115.5185547</ele>
        <time>2013-01-27T09:16:33Z</time>
      </trkpt>
      <trkpt lat="42.58871" lon="2.00925">
        <ele>2115.9990234</ele>
        <time>2013-01-27T09:16:43Z</time>
      </trkpt>
      <trkpt lat="42.58874" lon="2.00931">
        <ele>2117.440918</ele>
        <time>2013-01-27T09:16:52Z</time>
      </trkpt>
      <trkpt lat="42.58879" lon="2.00937">
        <ele>2118.8830566</ele>
        <time>2013-01-27T09:17:00Z</time>
      </trkpt>
      <trkpt lat="42.58883" lon="2.00945">
        <ele>2123.2089844</ele>
        <time>2013-01-27T09:17:10Z</time>
      </trkpt>
      <trkpt lat="42.58885" lon="2.00956">
        <ele>2126.0930176</ele>
        <time>2013-01-27T09:17:19Z</time>
      </trkpt>
      <trkpt lat="42.58888" lon="2.00962">
        <ele>2124.1704102</ele>
        <time>2013-01-27T09:17:27Z</time>
      </trkpt>
      <trkpt lat="42.58889" lon="2.00963">
        <ele>2121.7668457</ele>
        <time>2013-01-27T09:17:35Z</time>
      </trkpt>
      <trkpt lat="42.58889" lon="2.0097">
        <ele>2122.7282715</ele>
        <time>2013-01-27T09:17:43Z</time>
      </trkpt>
      <trkpt lat="42.58892" lon="2.00976">
        <ele>2125.1315918</ele>
        <time>2013-01-27T09:17:53Z</time>
      </trkpt>
      <trkpt lat="42.58896" lon="2.00981">
        <ele>2126.0930176</ele>
        <time>2013-01-27T09:18:00Z</time>
      </trkpt>
      <trkpt lat="42.58896" lon="2.00982">
        <ele>2125.1315918</ele>
        <time>2013-01-27T09:18:09Z</time>
      </trkpt>
      <trkpt lat="42.58895" lon="2.00983">
        <ele>2125.1315918</ele>
        <time>2013-01-27T09:18:46Z</time>
      </trkpt>
      <trkpt lat="42.58894" lon="2.00992">
        <ele>2122.7282715</ele>
        <time>2013-01-27T09:18:54Z</time>
      </trkpt>
      <trkpt lat="42.58892" lon="2.01">
        <ele>2121.2861328</ele>
        <time>2013-01-27T09:19:01Z</time>
      </trkpt>
      <trkpt lat="42.58891" lon="2.01006">
        <ele>2121.7668457</ele>
        <time>2013-01-27T09:19:08Z</time>
      </trkpt>
      <trkpt lat="42.5889" lon="2.01012">
        <ele>2122.7282715</ele>
        <time>2013-01-27T09:19:14Z</time>
      </trkpt>
      <trkpt lat="42.5889" lon="2.01016">
        <ele>2121.2861328</ele>
        <time>2013-01-27T09:19:20Z</time>
      </trkpt>
      <trkpt lat="42.5889" lon="2.01023">
        <ele>2123.6894531</ele>
        <time>2013-01-27T09:19:26Z</time>
      </trkpt>
      <trkpt lat="42.58893" lon="2.01029">
        <ele>2127.5349121</ele>
        <time>2013-01-27T09:19:32Z</time>
      </trkpt>
      <trkpt lat="42.58897" lon="2.01036">
        <ele>2125.6123047</ele>
        <time>2013-01-27T09:19:41Z</time>
      </trkpt>
      <trkpt lat="42.589" lon="2.01042">
        <ele>2123.6894531</ele>
        <time>2013-01-27T09:19:48Z</time>
      </trkpt>
      <trkpt lat="42.58903" lon="2.01052">
        <ele>2123.2089844</ele>
        <time>2013-01-27T09:19:57Z</time>
      </trkpt>
      <trkpt lat="42.58903" lon="2.01054">
        <ele>2121.7668457</ele>
        <time>2013-01-27T09:20:00Z</time>
      </trkpt>
      <trkpt lat="42.58904" lon="2.01066">
        <ele>2120.3249512</ele>
        <time>2013-01-27T09:20:09Z</time>
      </trkpt>
      <trkpt lat="42.58904" lon="2.01068">
        <ele>2119.8442383</ele>
        <time>2013-01-27T09:20:11Z</time>
      </trkpt>
      <trkpt lat="42.58907" lon="2.01078">
        <ele>2118.8830566</ele>
        <time>2013-01-27T09:20:18Z</time>
      </trkpt>
      <trkpt lat="42.5891" lon="2.01087">
        <ele>2122.2475586</ele>
        <time>2013-01-27T09:20:27Z</time>
      </trkpt>
      <trkpt lat="42.58914" lon="2.0109">
        <ele>2121.2861328</ele>
        <time>2013-01-27T09:20:36Z</time>
      </trkpt>
      <trkpt lat="42.58922" lon="2.01095">
        <ele>2120.8056641</ele>
        <time>2013-01-27T09:20:47Z</time>
      </trkpt>
      <trkpt lat="42.58928" lon="2.011">
        <ele>2118.4023438</ele>
        <time>2013-01-27T09:20:56Z</time>
      </trkpt>
      <trkpt lat="42.58933" lon="2.01106">
        <ele>2116.9604492</ele>
        <time>2013-01-27T09:21:06Z</time>
      </trkpt>
      <trkpt lat="42.58937" lon="2.01111">
        <ele>2116.4797363</ele>
        <time>2013-01-27T09:21:14Z</time>
      </trkpt>
      <trkpt lat="42.58938" lon="2.01113">
        <ele>2118.4023438</ele>
        <time>2013-01-27T09:21:21Z</time>
      </trkpt>
      <trkpt lat="42.58942" lon="2.01116">
        <ele>2115.0378418</ele>
        <time>2013-01-27T09:21:29Z</time>
      </trkpt>
      <trkpt lat="42.58947" lon="2.01125">
        <ele>2118.8830566</ele>
        <time>2013-01-27T09:21:38Z</time>
      </trkpt>
      <trkpt lat="42.58949" lon="2.01133">
        <ele>2123.6894531</ele>
        <time>2013-01-27T09:21:47Z</time>
      </trkpt>
      <trkpt lat="42.58953" lon="2.01135">
        <ele>2122.7282715</ele>
        <time>2013-01-27T09:21:54Z</time>
      </trkpt>
      <trkpt lat="42.58959" lon="2.01139">
        <ele>2123.6894531</ele>
        <time>2013-01-27T09:22:02Z</time>
      </trkpt>
      <trkpt lat="42.58964" lon="2.01142">
        <ele>2121.2861328</ele>
        <time>2013-01-27T09:22:10Z</time>
      </trkpt>
      <trkpt lat="42.58969" lon="2.01147">
        <ele>2118.8830566</ele>
        <time>2013-01-27T09:22:18Z</time>
      </trkpt>
      <trkpt lat="42.58974" lon="2.01154">
        <ele>2120.3249512</ele>
        <time>2013-01-27T09:22:27Z</time>
      </trkpt>
      <trkpt lat="42.58978" lon="2.01162">
        <ele>2122.2475586</ele>
        <time>2013-01-27T09:22:36Z</time>
      </trkpt>
      <trkpt lat="42.58985" lon="2.01168">
        <ele>2126.0930176</ele>
        <time>2013-01-27T09:22:43Z</time>
      </trkpt>
      <trkpt lat="42.58987" lon="2.01177">
        <ele>2124.651123</ele>
        <time>2013-01-27T09:22:52Z</time>
      </trkpt>
      <trkpt lat="42.58991" lon="2.01186">
        <ele>2124.651123</ele>
        <time>2013-01-27T09:23:01Z</time>
      </trkpt>
      <trkpt lat="42.58994" lon="2.01192">
        <ele>2125.6123047</ele>
        <time>2013-01-27T09:23:08Z</time>
      </trkpt>
      <trkpt lat="42.58994" lon="2.01199">
        <ele>2124.651123</ele>
        <time>2013-01-27T09:23:15Z</time>
      </trkpt>
      <trkpt lat="42.58995" lon="2.01204">
        <ele>2123.6894531</ele>
        <time>2013-01-27T09:23:23Z</time>
      </trkpt>
      <trkpt lat="42.58994" lon="2.01206">
        <ele>2123.6894531</ele>
        <time>2013-01-27T09:23:30Z</time>
      </trkpt>
      <trkpt lat="42.58992" lon="2.0121">
        <ele>2122.2475586</ele>
        <time>2013-01-27T09:23:41Z</time>
      </trkpt>
      <trkpt lat="42.58995" lon="2.01208">
        <ele>2124.1704102</ele>
        <time>2013-01-27T09:23:48Z</time>
      </trkpt>
      <trkpt lat="42.58999" lon="2.01207">
        <ele>2123.2089844</ele>
        <time>2013-01-27T09:23:51Z</time>
      </trkpt>
      <trkpt lat="42.59001" lon="2.01205">
        <ele>2123.6894531</ele>
        <time>2013-01-27T09:23:56Z</time>
      </trkpt>
      <trkpt lat="42.59" lon="2.01205">
        <ele>2124.651123</ele>
        <time>2013-01-27T09:23:59Z</time>
      </trkpt>
      <trkpt lat="42.58988" lon="2.01222">
        <ele>2126.5737305</ele>
        <time>2013-01-27T09:24:13Z</time>
      </trkpt>
      <trkpt lat="42.59" lon="2.01204">
        <ele>2105.4245605</ele>
        <time>2013-01-27T09:24:32Z</time>
      </trkpt>
      <trkpt lat="42.58999" lon="2.01206">
        <ele>2107.8278809</ele>
        <time>2013-01-27T09:24:38Z</time>
      </trkpt>
      <trkpt lat="42.59004" lon="2.01206">
        <ele>2113.1152344</ele>
        <time>2013-01-27T09:24:43Z</time>
      </trkpt>
      <trkpt lat="42.59007" lon="2.01197">
        <ele>2117.9216309</ele>
        <time>2013-01-27T09:24:50Z</time>
      </trkpt>
      <trkpt lat="42.59007" lon="2.01197">
        <ele>2117.9216309</ele>
        <time>2013-01-27T09:24:52Z</time>
      </trkpt>
      <trkpt lat="42.58982" lon="2.01208">
        <ele>2107.8278809</ele>
        <time>2013-01-27T09:25:01Z</time>
      </trkpt>
      <trkpt lat="42.5898" lon="2.01206">
        <ele>2111.6733398</ele>
        <time>2013-01-27T09:25:06Z</time>
      </trkpt>
      <trkpt lat="42.58984" lon="2.01206">
        <ele>2114.076416</ele>
        <time>2013-01-27T09:25:23Z</time>
      </trkpt>
      <trkpt lat="42.58981" lon="2.01201">
        <ele>2116.9604492</ele>
        <time>2013-01-27T09:25:30Z</time>
      </trkpt>
      <trkpt lat="42.58981" lon="2.01198">
        <ele>2121.2861328</ele>
        <time>2013-01-27T09:25:36Z</time>
      </trkpt>
      <trkpt lat="42.58982" lon="2.01201">
        <ele>2133.3027344</ele>
        <time>2013-01-27T09:25:45Z</time>
      </trkpt>
      <trkpt lat="42.58987" lon="2.01197">
        <ele>2144.838623</ele>
        <time>2013-01-27T09:26:04Z</time>
      </trkpt>
      <trkpt lat="42.58991" lon="2.012">
        <ele>2144.3579102</ele>
        <time>2013-01-27T09:26:10Z</time>
      </trkpt>
      <trkpt lat="42.58989" lon="2.012">
        <ele>2146.2807617</ele>
        <time>2013-01-27T09:26:17Z</time>
      </trkpt>
      <trkpt lat="42.58986" lon="2.01198">
        <ele>2144.838623</ele>
        <time>2013-01-27T09:26:25Z</time>
      </trkpt>
      <trkpt lat="42.58987" lon="2.01201">
        <ele>2138.5900879</ele>
        <time>2013-01-27T09:26:30Z</time>
      </trkpt>
      <trkpt lat="42.58992" lon="2.01198">
        <ele>2142.4355469</ele>
        <time>2013-01-27T09:26:36Z</time>
      </trkpt>
      <trkpt lat="42.58994" lon="2.012">
        <ele>2147.2419434</ele>
        <time>2013-01-27T09:26:43Z</time>
      </trkpt>
      <trkpt lat="42.58999" lon="2.01209">
        <ele>2148.203125</ele>
        <time>2013-01-27T09:26:48Z</time>
      </trkpt>
      <trkpt lat="42.59003" lon="2.01209">
        <ele>2153.0097656</ele>
        <time>2013-01-27T09:26:54Z</time>
      </trkpt>
      <trkpt lat="42.59005" lon="2.01209">
        <ele>2153.0097656</ele>
        <time>2013-01-27T09:26:55Z</time>
      </trkpt>
      <trkpt lat="42.59012" lon="2.01219">
        <ele>2155.8935547</ele>
        <time>2013-01-27T09:27:01Z</time>
      </trkpt>
      <trkpt lat="42.59001" lon="2.01204">
        <ele>2161.1811523</ele>
        <time>2013-01-27T09:27:19Z</time>
      </trkpt>
      <trkpt lat="42.59" lon="2.01186">
        <ele>2156.3745117</ele>
        <time>2013-01-27T09:27:46Z</time>
      </trkpt>
      <trkpt lat="42.58996" lon="2.01186">
        <ele>2148.6838379</ele>
        <time>2013-01-27T09:27:53Z</time>
      </trkpt>
      <trkpt lat="42.58996" lon="2.0119">
        <ele>2136.1867676</ele>
        <time>2013-01-27T09:27:57Z</time>
      </trkpt>
      <trkpt lat="42.5899" lon="2.01201">
        <ele>2122.2475586</ele>
        <time>2013-01-27T09:28:02Z</time>
      </trkpt>
      <trkpt lat="42.58987" lon="2.01194">
        <ele>2113.1152344</ele>
        <time>2013-01-27T09:28:08Z</time>
      </trkpt>
      <trkpt lat="42.5899" lon="2.01177">
        <ele>2125.6123047</ele>
        <time>2013-01-27T09:28:26Z</time>
      </trkpt>
      <trkpt lat="42.58987" lon="2.01179">
        <ele>2127.5349121</ele>
        <time>2013-01-27T09:28:32Z</time>
      </trkpt>
      <trkpt lat="42.58986" lon="2.01185">
        <ele>2131.8608398</ele>
        <time>2013-01-27T09:28:35Z</time>
      </trkpt>
      <trkpt lat="42.58986" lon="2.01188">
        <ele>2132.8220215</ele>
        <time>2013-01-27T09:28:39Z</time>
      </trkpt>
      <trkpt lat="42.58979" lon="2.01193">
        <ele>2133.7834473</ele>
        <time>2013-01-27T09:28:47Z</time>
      </trkpt>
      <trkpt lat="42.58979" lon="2.01191">
        <ele>2133.3027344</ele>
        <time>2013-01-27T09:28:55Z</time>
      </trkpt>
      <trkpt lat="42.58988" lon="2.01193">
        <ele>2128.015625</ele>
        <time>2013-01-27T09:29:32Z</time>
      </trkpt>
      <trkpt lat="42.58988" lon="2.01202">
        <ele>2127.5349121</ele>
        <time>2013-01-27T09:29:41Z</time>
      </trkpt>
      <trkpt lat="42.58991" lon="2.01204">
        <ele>2114.076416</ele>
        <time>2013-01-27T09:30:22Z</time>
      </trkpt>
      <trkpt lat="42.59004" lon="2.01216">
        <ele>2093.4082031</ele>
        <time>2013-01-27T09:30:43Z</time>
      </trkpt>
      <trkpt lat="42.58998" lon="2.01217">
        <ele>2118.4023438</ele>
        <time>2013-01-27T09:30:49Z</time>
      </trkpt>
      <trkpt lat="42.59006" lon="2.01209">
        <ele>2122.7282715</ele>
        <time>2013-01-27T09:31:05Z</time>
      </trkpt>
      <trkpt lat="42.58968" lon="2.01206">
        <ele>2120.8056641</ele>
        <time>2013-01-27T09:31:12Z</time>
      </trkpt>
      <trkpt lat="42.58986" lon="2.01205">
        <ele>2113.5957031</ele>
        <time>2013-01-27T09:31:36Z</time>
      </trkpt>
      <trkpt lat="42.58991" lon="2.01204">
        <ele>2111.6733398</ele>
        <time>2013-01-27T09:32:46Z</time>
      </trkpt>
      <trkpt lat="42.58991" lon="2.01197">
        <ele>2099.1760254</ele>
        <time>2013-01-27T09:32:55Z</time>
      </trkpt>
      <trkpt lat="42.5899" lon="2.01204">
        <ele>2108.3085938</ele>
        <time>2013-01-27T09:33:13Z</time>
      </trkpt>
      <trkpt lat="42.58991" lon="2.01204">
        <ele>2113.1152344</ele>
        <time>2013-01-27T09:33:22Z</time>
      </trkpt>
      <trkpt lat="42.58991" lon="2.01205">
        <ele>2113.1152344</ele>
        <time>2013-01-27T09:33:24Z</time>
      </trkpt>
      <trkpt lat="42.58992" lon="2.01206">
        <ele>2111.192627</ele>
        <time>2013-01-27T09:33:31Z</time>
      </trkpt>
      <trkpt lat="42.58992" lon="2.01211">
        <ele>2117.9216309</ele>
        <time>2013-01-27T09:33:39Z</time>
      </trkpt>
      <trkpt lat="42.58997" lon="2.01225">
        <ele>2120.3249512</ele>
        <time>2013-01-27T09:33:51Z</time>
      </trkpt>
      <trkpt lat="42.58982" lon="2.01191">
        <ele>2126.5737305</ele>
        <time>2013-01-27T09:33:56Z</time>
      </trkpt>
      <trkpt lat="42.58983" lon="2.01197">
        <ele>2122.7282715</ele>
        <time>2013-01-27T09:34:00Z</time>
      </trkpt>
      <trkpt lat="42.58983" lon="2.01198">
        <ele>2125.6123047</ele>
        <time>2013-01-27T09:34:02Z</time>
      </trkpt>
      <trkpt lat="42.58991" lon="2.01204">
        <ele>2128.9768066</ele>
        <time>2013-01-27T09:34:09Z</time>
      </trkpt>
      <trkpt lat="42.58989" lon="2.01207">
        <ele>2122.7282715</ele>
        <time>2013-01-27T09:34:18Z</time>
      </trkpt>
      <trkpt lat="42.59004" lon="2.01207">
        <ele>2124.1704102</ele>
        <time>2013-01-27T09:38:44Z</time>
      </trkpt>
      <trkpt lat="42.58989" lon="2.01211">
        <ele>2114.076416</ele>
        <time>2013-01-27T09:39:52Z</time>
      </trkpt>
      <trkpt lat="42.58995" lon="2.01211">
        <ele>2121.2861328</ele>
        <time>2013-01-27T09:40:44Z</time>
      </trkpt>
      <trkpt lat="42.58993" lon="2.01201">
        <ele>2118.8830566</ele>
        <time>2013-01-27T09:41:09Z</time>
      </trkpt>
      <trkpt lat="42.58993" lon="2.01197">
        <ele>2118.8830566</ele>
        <time>2013-01-27T09:41:16Z</time>
      </trkpt>
      <trkpt lat="42.58989" lon="2.01196">
        <ele>2118.4023438</ele>
        <time>2013-01-27T09:41:27Z</time>
      </trkpt>
      <trkpt lat="42.58991" lon="2.01196">
        <ele>2116.4797363</ele>
        <time>2013-01-27T09:41:38Z</time>
      </trkpt>
      <trkpt lat="42.58991" lon="2.01188">
        <ele>2113.5957031</ele>
        <time>2013-01-27T09:42:20Z</time>
      </trkpt>
      <trkpt lat="42.58989" lon="2.01185">
        <ele>2114.076416</ele>
        <time>2013-01-27T09:42:25Z</time>
      </trkpt>
      <trkpt lat="42.58987" lon="2.0118">
        <ele>2115.0378418</ele>
        <time>2013-01-27T09:42:30Z</time>
      </trkpt>
      <trkpt lat="42.58984" lon="2.01172">
        <ele>2120.3249512</ele>
        <time>2013-01-27T09:42:36Z</time>
      </trkpt>
      <trkpt lat="42.58983" lon="2.01172">
        <ele>2120.3249512</ele>
        <time>2013-01-27T09:42:37Z</time>
      </trkpt>
      <trkpt lat="42.5898" lon="2.01165">
        <ele>2120.8056641</ele>
        <time>2013-01-27T09:42:46Z</time>
      </trkpt>
      <trkpt lat="42.58974" lon="2.01159">
        <ele>2124.1704102</ele>
        <time>2013-01-27T09:42:54Z</time>
      </trkpt>
      <trkpt lat="42.58968" lon="2.01151">
        <ele>2121.2861328</ele>
        <time>2013-01-27T09:43:03Z</time>
      </trkpt>
      <trkpt lat="42.58963" lon="2.01144">
        <ele>2120.8056641</ele>
        <time>2013-01-27T09:43:11Z</time>
      </trkpt>
      <trkpt lat="42.58957" lon="2.01137">
        <ele>2117.9216309</ele>
        <time>2013-01-27T09:43:18Z</time>
      </trkpt>
      <trkpt lat="42.58948" lon="2.01127">
        <ele>2114.076416</ele>
        <time>2013-01-27T09:43:27Z</time>
      </trkpt>
      <trkpt lat="42.58943" lon="2.01121">
        <ele>2114.076416</ele>
        <time>2013-01-27T09:43:33Z</time>
      </trkpt>
      <trkpt lat="42.58937" lon="2.01114">
        <ele>2113.1152344</ele>
        <time>2013-01-27T09:43:41Z</time>
      </trkpt>
      <trkpt lat="42.5893" lon="2.01108">
        <ele>2109.2700195</ele>
        <time>2013-01-27T09:43:48Z</time>
      </trkpt>
      <trkpt lat="42.58923" lon="2.01098">
        <ele>2110.2312012</ele>
        <time>2013-01-27T09:43:55Z</time>
      </trkpt>
      <trkpt lat="42.58918" lon="2.01089">
        <ele>2114.076416</ele>
        <time>2013-01-27T09:44:04Z</time>
      </trkpt>
      <trkpt lat="42.58915" lon="2.01085">
        <ele>2114.076416</ele>
        <time>2013-01-27T09:44:06Z</time>
      </trkpt>
      <trkpt lat="42.58909" lon="2.01075">
        <ele>2116.4797363</ele>
        <time>2013-01-27T09:44:16Z</time>
      </trkpt>
      <trkpt lat="42.58905" lon="2.01071">
        <ele>2116.4797363</ele>
        <time>2013-01-27T09:44:24Z</time>
      </trkpt>
      <trkpt lat="42.58903" lon="2.01066">
        <ele>2117.9216309</ele>
        <time>2013-01-27T09:44:32Z</time>
      </trkpt>
      <trkpt lat="42.58902" lon="2.01062">
        <ele>2118.8830566</ele>
        <time>2013-01-27T09:44:38Z</time>
      </trkpt>
      <trkpt lat="42.58902" lon="2.01055">
        <ele>2120.3249512</ele>
        <time>2013-01-27T09:44:47Z</time>
      </trkpt>
      <trkpt lat="42.58901" lon="2.0105">
        <ele>2118.8830566</ele>
        <time>2013-01-27T09:44:54Z</time>
      </trkpt>
      <trkpt lat="42.589" lon="2.01043">
        <ele>2120.8056641</ele>
        <time>2013-01-27T09:45:00Z</time>
      </trkpt>
      <trkpt lat="42.58896" lon="2.01034">
        <ele>2121.2861328</ele>
        <time>2013-01-27T09:45:07Z</time>
      </trkpt>
      <trkpt lat="42.58893" lon="2.01028">
        <ele>2123.6894531</ele>
        <time>2013-01-27T09:45:15Z</time>
      </trkpt>
      <trkpt lat="42.5889" lon="2.01022">
        <ele>2123.6894531</ele>
        <time>2013-01-27T09:45:22Z</time>
      </trkpt>
      <trkpt lat="42.58889" lon="2.01012">
        <ele>2121.2861328</ele>
        <time>2013-01-27T09:45:29Z</time>
      </trkpt>
      <trkpt lat="42.58889" lon="2.0101">
        <ele>2121.7668457</ele>
        <time>2013-01-27T09:45:31Z</time>
      </trkpt>
      <trkpt lat="42.58891" lon="2.00998">
        <ele>2121.7668457</ele>
        <time>2013-01-27T09:45:41Z</time>
      </trkpt>
      <trkpt lat="42.58893" lon="2.00989">
        <ele>2121.7668457</ele>
        <time>2013-01-27T09:45:51Z</time>
      </trkpt>
      <trkpt lat="42.58894" lon="2.00981">
        <ele>2120.3249512</ele>
        <time>2013-01-27T09:45:59Z</time>
      </trkpt>
      <trkpt lat="42.58891" lon="2.00973">
        <ele>2121.2861328</ele>
        <time>2013-01-27T09:46:06Z</time>
      </trkpt>
      <trkpt lat="42.58889" lon="2.00966">
        <ele>2121.7668457</ele>
        <time>2013-01-27T09:46:13Z</time>
      </trkpt>
      <trkpt lat="42.58889" lon="2.00964">
        <ele>2121.7668457</ele>
        <time>2013-01-27T09:46:14Z</time>
      </trkpt>
      <trkpt lat="42.58886" lon="2.00952">
        <ele>2122.2475586</ele>
        <time>2013-01-27T09:46:24Z</time>
      </trkpt>
      <trkpt lat="42.58883" lon="2.00943">
        <ele>2123.2089844</ele>
        <time>2013-01-27T09:46:32Z</time>
      </trkpt>
      <trkpt lat="42.5888" lon="2.00939">
        <ele>2123.2089844</ele>
        <time>2013-01-27T09:46:40Z</time>
      </trkpt>
      <trkpt lat="42.58878" lon="2.00936">
        <ele>2119.3637695</ele>
        <time>2013-01-27T09:46:47Z</time>
      </trkpt>
      <trkpt lat="42.58873" lon="2.00929">
        <ele>2116.9604492</ele>
        <time>2013-01-27T09:46:54Z</time>
      </trkpt>
      <trkpt lat="42.58871" lon="2.00926">
        <ele>2117.440918</ele>
        <time>2013-01-27T09:46:57Z</time>
      </trkpt>
      <trkpt lat="42.58866" lon="2.00919">
        <ele>2117.440918</ele>
        <time>2013-01-27T09:47:05Z</time>
      </trkpt>
      <trkpt lat="42.5886" lon="2.00913">
        <ele>2115.5185547</ele>
        <time>2013-01-27T09:47:13Z</time>
      </trkpt>
      <trkpt lat="42.58855" lon="2.00906">
        <ele>2114.076416</ele>
        <time>2013-01-27T09:47:23Z</time>
      </trkpt>
      <trkpt lat="42.58851" lon="2.009">
        <ele>2111.6733398</ele>
        <time>2013-01-27T09:47:31Z</time>
      </trkpt>
      <trkpt lat="42.58846" lon="2.00893">
        <ele>2112.6345215</ele>
        <time>2013-01-27T09:47:37Z</time>
      </trkpt>
      <trkpt lat="42.58845" lon="2.00885">
        <ele>2113.1152344</ele>
        <time>2013-01-27T09:47:43Z</time>
      </trkpt>
      <trkpt lat="42.58841" lon="2.00875">
        <ele>2111.6733398</ele>
        <time>2013-01-27T09:47:51Z</time>
      </trkpt>
      <trkpt lat="42.58839" lon="2.00871">
        <ele>2113.5957031</ele>
        <time>2013-01-27T09:47:55Z</time>
      </trkpt>
      <trkpt lat="42.58835" lon="2.00862">
        <ele>2113.5957031</ele>
        <time>2013-01-27T09:48:03Z</time>
      </trkpt>
      <trkpt lat="42.58832" lon="2.00853">
        <ele>2113.1152344</ele>
        <time>2013-01-27T09:48:11Z</time>
      </trkpt>
      <trkpt lat="42.58825" lon="2.00849">
        <ele>2110.2312012</ele>
        <time>2013-01-27T09:48:20Z</time>
      </trkpt>
      <trkpt lat="42.5882" lon="2.00846">
        <ele>2107.347168</ele>
        <time>2013-01-27T09:48:28Z</time>
      </trkpt>
      <trkpt lat="42.58817" lon="2.00841">
        <ele>2107.8278809</ele>
        <time>2013-01-27T09:48:35Z</time>
      </trkpt>
      <trkpt lat="42.58812" lon="2.00835">
        <ele>2108.7893066</ele>
        <time>2013-01-27T09:48:43Z</time>
      </trkpt>
      <trkpt lat="42.58808" lon="2.00831">
        <ele>2107.347168</ele>
        <time>2013-01-27T09:48:50Z</time>
      </trkpt>
      <trkpt lat="42.58803" lon="2.0083">
        <ele>2106.3857422</ele>
        <time>2013-01-27T09:48:57Z</time>
      </trkpt>
      <trkpt lat="42.588" lon="2.00826">
        <ele>2107.8278809</ele>
        <time>2013-01-27T09:49:07Z</time>
      </trkpt>
      <trkpt lat="42.58801" lon="2.00822">
        <ele>2106.8664551</ele>
        <time>2013-01-27T09:49:20Z</time>
      </trkpt>
      <trkpt lat="42.58801" lon="2.00821">
        <ele>2103.982666</ele>
        <time>2013-01-27T09:49:25Z</time>
      </trkpt>
      <trkpt lat="42.588" lon="2.00822">
        <ele>2106.8664551</ele>
        <time>2013-01-27T09:49:43Z</time>
      </trkpt>
      <trkpt lat="42.58795" lon="2.00826">
        <ele>2104.4631348</ele>
        <time>2013-01-27T09:49:50Z</time>
      </trkpt>
      <trkpt lat="42.58789" lon="2.00827">
        <ele>2107.8278809</ele>
        <time>2013-01-27T09:49:59Z</time>
      </trkpt>
      <trkpt lat="42.58786" lon="2.00827">
        <ele>2107.8278809</ele>
        <time>2013-01-27T09:50:04Z</time>
      </trkpt>
      <trkpt lat="42.58782" lon="2.00824">
        <ele>2106.3857422</ele>
        <time>2013-01-27T09:50:12Z</time>
      </trkpt>
      <trkpt lat="42.58778" lon="2.00822">
        <ele>2104.4631348</ele>
        <time>2013-01-27T09:50:20Z</time>
      </trkpt>
      <trkpt lat="42.58772" lon="2.00826">
        <ele>2100.1374512</ele>
        <time>2013-01-27T09:50:29Z</time>
      </trkpt>
      <trkpt lat="42.58767" lon="2.00821">
        <ele>2100.1374512</ele>
        <time>2013-01-27T09:50:36Z</time>
      </trkpt>
      <trkpt lat="42.58765" lon="2.00818">
        <ele>2101.0986328</ele>
        <time>2013-01-27T09:50:38Z</time>
      </trkpt>
      <trkpt lat="42.58759" lon="2.00811">
        <ele>2104.4631348</ele>
        <time>2013-01-27T09:50:45Z</time>
      </trkpt>
      <trkpt lat="42.58754" lon="2.00805">
        <ele>2105.4245605</ele>
        <time>2013-01-27T09:50:52Z</time>
      </trkpt>
      <trkpt lat="42.58749" lon="2.00797">
        <ele>2105.9050293</ele>
        <time>2013-01-27T09:51:01Z</time>
      </trkpt>
      <trkpt lat="42.58744" lon="2.00788">
        <ele>2107.8278809</ele>
        <time>2013-01-27T09:51:10Z</time>
      </trkpt>
      <trkpt lat="42.58739" lon="2.00783">
        <ele>2107.347168</ele>
        <time>2013-01-27T09:51:18Z</time>
      </trkpt>
      <trkpt lat="42.58735" lon="2.00781">
        <ele>2105.9050293</ele>
        <time>2013-01-27T09:51:24Z</time>
      </trkpt>
      <trkpt lat="42.58732" lon="2.00775">
        <ele>2107.347168</ele>
        <time>2013-01-27T09:51:29Z</time>
      </trkpt>
      <trkpt lat="42.58731" lon="2.00772">
        <ele>2108.7893066</ele>
        <time>2013-01-27T09:51:31Z</time>
      </trkpt>
      <trkpt lat="42.58728" lon="2.00768">
        <ele>2109.2700195</ele>
        <time>2013-01-27T09:51:35Z</time>
      </trkpt>
      <trkpt lat="42.58725" lon="2.00761">
        <ele>2108.7893066</ele>
        <time>2013-01-27T09:51:43Z</time>
      </trkpt>
      <trkpt lat="42.58721" lon="2.00755">
        <ele>2108.7893066</ele>
        <time>2013-01-27T09:51:50Z</time>
      </trkpt>
      <trkpt lat="42.58719" lon="2.00753">
        <ele>2105.9050293</ele>
        <time>2013-01-27T09:51:55Z</time>
      </trkpt>
      <trkpt lat="42.58717" lon="2.00746">
        <ele>2107.347168</ele>
        <time>2013-01-27T09:52:07Z</time>
      </trkpt>
      <trkpt lat="42.58714" lon="2.0074">
        <ele>2108.3085938</ele>
        <time>2013-01-27T09:52:14Z</time>
      </trkpt>
      <trkpt lat="42.5871" lon="2.00733">
        <ele>2109.2700195</ele>
        <time>2013-01-27T09:52:23Z</time>
      </trkpt>
      <trkpt lat="42.58707" lon="2.00731">
        <ele>2107.8278809</ele>
        <time>2013-01-27T09:52:29Z</time>
      </trkpt>
      <trkpt lat="42.58706" lon="2.00728">
        <ele>2109.7504883</ele>
        <time>2013-01-27T09:52:36Z</time>
      </trkpt>
      <trkpt lat="42.58703" lon="2.00724">
        <ele>2110.7119141</ele>
        <time>2013-01-27T09:52:42Z</time>
      </trkpt>
      <trkpt lat="42.587" lon="2.00717">
        <ele>2112.6345215</ele>
        <time>2013-01-27T09:52:52Z</time>
      </trkpt>
      <trkpt lat="42.58699" lon="2.00714">
        <ele>2112.6345215</ele>
        <time>2013-01-27T09:52:58Z</time>
      </trkpt>
      <trkpt lat="42.58696" lon="2.00708">
        <ele>2110.2312012</ele>
        <time>2013-01-27T09:53:05Z</time>
      </trkpt>
      <trkpt lat="42.58694" lon="2.00703">
        <ele>2109.2700195</ele>
        <time>2013-01-27T09:53:12Z</time>
      </trkpt>
      <trkpt lat="42.58691" lon="2.00696">
        <ele>2113.5957031</ele>
        <time>2013-01-27T09:53:19Z</time>
      </trkpt>
      <trkpt lat="42.58687" lon="2.00691">
        <ele>2114.076416</ele>
        <time>2013-01-27T09:53:28Z</time>
      </trkpt>
      <trkpt lat="42.58686" lon="2.00685">
        <ele>2115.5185547</ele>
        <time>2013-01-27T09:53:33Z</time>
      </trkpt>
      <trkpt lat="42.58686" lon="2.0068">
        <ele>2118.4023438</ele>
        <time>2013-01-27T09:53:40Z</time>
      </trkpt>
      <trkpt lat="42.58684" lon="2.0068">
        <ele>2117.440918</ele>
        <time>2013-01-27T09:53:57Z</time>
      </trkpt>
      <trkpt lat="42.58682" lon="2.00675">
        <ele>2115.9990234</ele>
        <time>2013-01-27T09:54:03Z</time>
      </trkpt>
      <trkpt lat="42.5868" lon="2.00671">
        <ele>2113.5957031</ele>
        <time>2013-01-27T09:54:09Z</time>
      </trkpt>
      <trkpt lat="42.58676" lon="2.00667">
        <ele>2112.6345215</ele>
        <time>2013-01-27T09:54:17Z</time>
      </trkpt>
      <trkpt lat="42.58671" lon="2.00662">
        <ele>2109.7504883</ele>
        <time>2013-01-27T09:54:27Z</time>
      </trkpt>
      <trkpt lat="42.58668" lon="2.00656">
        <ele>2111.6733398</ele>
        <time>2013-01-27T09:54:33Z</time>
      </trkpt>
      <trkpt lat="42.58663" lon="2.00655">
        <ele>2109.7504883</ele>
        <time>2013-01-27T09:54:40Z</time>
      </trkpt>
      <trkpt lat="42.58658" lon="2.00656">
        <ele>2108.3085938</ele>
        <time>2013-01-27T09:54:46Z</time>
      </trkpt>
      <trkpt lat="42.58656" lon="2.00655">
        <ele>2108.7893066</ele>
        <time>2013-01-27T09:54:53Z</time>
      </trkpt>
      <trkpt lat="42.58653" lon="2.00648">
        <ele>2107.347168</ele>
        <time>2013-01-27T09:55:00Z</time>
      </trkpt>
      <trkpt lat="42.5865" lon="2.00641">
        <ele>2109.2700195</ele>
        <time>2013-01-27T09:55:07Z</time>
      </trkpt>
      <trkpt lat="42.58649" lon="2.00638">
        <ele>2110.2312012</ele>
        <time>2013-01-27T09:55:09Z</time>
      </trkpt>
      <trkpt lat="42.58646" lon="2.00628">
        <ele>2112.6345215</ele>
        <time>2013-01-27T09:55:17Z</time>
      </trkpt>
      <trkpt lat="42.58641" lon="2.00622">
        <ele>2113.5957031</ele>
        <time>2013-01-27T09:55:29Z</time>
      </trkpt>
      <trkpt lat="42.58639" lon="2.00619">
        <ele>2111.6733398</ele>
        <time>2013-01-27T09:55:38Z</time>
      </trkpt>
      <trkpt lat="42.58633" lon="2.00617">
        <ele>2110.2312012</ele>
        <time>2013-01-27T09:55:46Z</time>
      </trkpt>
      <trkpt lat="42.5863" lon="2.00617">
        <ele>2108.7893066</ele>
        <time>2013-01-27T09:55:53Z</time>
      </trkpt>
      <trkpt lat="42.58624" lon="2.00609">
        <ele>2104.4631348</ele>
        <time>2013-01-27T09:56:01Z</time>
      </trkpt>
      <trkpt lat="42.58623" lon="2.00608">
        <ele>2105.4245605</ele>
        <time>2013-01-27T09:56:02Z</time>
      </trkpt>
      <trkpt lat="42.58616" lon="2.00599">
        <ele>2101.5793457</ele>
        <time>2013-01-27T09:56:10Z</time>
      </trkpt>
      <trkpt lat="42.58613" lon="2.00596">
        <ele>2098.6953125</ele>
        <time>2013-01-27T09:56:17Z</time>
      </trkpt>
      <trkpt lat="42.5861" lon="2.0059">
        <ele>2098.6953125</ele>
        <time>2013-01-27T09:56:23Z</time>
      </trkpt>
      <trkpt lat="42.58608" lon="2.0059">
        <ele>2097.253418</ele>
        <time>2013-01-27T09:56:25Z</time>
      </trkpt>
      <trkpt lat="42.58602" lon="2.00589">
        <ele>2093.4082031</ele>
        <time>2013-01-27T09:56:33Z</time>
      </trkpt>
      <trkpt lat="42.58598" lon="2.00585">
        <ele>2091.0046387</ele>
        <time>2013-01-27T09:56:40Z</time>
      </trkpt>
      <trkpt lat="42.58583" lon="2.00573">
        <ele>2087.1594238</ele>
        <time>2013-01-27T09:57:02Z</time>
      </trkpt>
      <trkpt lat="42.58574" lon="2.0057">
        <ele>2088.1208496</ele>
        <time>2013-01-27T09:57:11Z</time>
      </trkpt>
      <trkpt lat="42.58567" lon="2.00562">
        <ele>2087.1594238</ele>
        <time>2013-01-27T09:57:22Z</time>
      </trkpt>
      <trkpt lat="42.58562" lon="2.00557">
        <ele>2087.6401367</ele>
        <time>2013-01-27T09:57:28Z</time>
      </trkpt>
      <trkpt lat="42.58558" lon="2.00556">
        <ele>2083.314209</ele>
        <time>2013-01-27T09:57:34Z</time>
      </trkpt>
      <trkpt lat="42.58554" lon="2.00553">
        <ele>2078.5078125</ele>
        <time>2013-01-27T09:57:40Z</time>
      </trkpt>
      <trkpt lat="42.58548" lon="2.00549">
        <ele>2078.0270996</ele>
        <time>2013-01-27T09:57:46Z</time>
      </trkpt>
      <trkpt lat="42.58543" lon="2.00546">
        <ele>2082.8334961</ele>
        <time>2013-01-27T09:57:51Z</time>
      </trkpt>
      <trkpt lat="42.5854" lon="2.00541">
        <ele>2088.1208496</ele>
        <time>2013-01-27T09:58:03Z</time>
      </trkpt>
      <trkpt lat="42.58539" lon="2.00539">
        <ele>2091.0046387</ele>
        <time>2013-01-27T09:58:12Z</time>
      </trkpt>
      <trkpt lat="42.58539" lon="2.00537">
        <ele>2090.5239258</ele>
        <time>2013-01-27T09:58:21Z</time>
      </trkpt>
      <trkpt lat="42.58537" lon="2.00534">
        <ele>2090.043457</ele>
        <time>2013-01-27T09:58:31Z</time>
      </trkpt>
      <trkpt lat="42.58538" lon="2.00539">
        <ele>2086.6787109</ele>
        <time>2013-01-27T09:59:12Z</time>
      </trkpt>
      <trkpt lat="42.58537" lon="2.00544">
        <ele>2080.9111328</ele>
        <time>2013-01-27T09:59:19Z</time>
      </trkpt>
      <trkpt lat="42.58524" lon="2.00552">
        <ele>2087.1594238</ele>
        <time>2013-01-27T09:59:35Z</time>
      </trkpt>
      <trkpt lat="42.5852" lon="2.00554">
        <ele>2081.3916016</ele>
        <time>2013-01-27T09:59:45Z</time>
      </trkpt>
      <trkpt lat="42.58521" lon="2.00557">
        <ele>2071.7783203</ele>
        <time>2013-01-27T09:59:54Z</time>
      </trkpt>
      <trkpt lat="42.58515" lon="2.00556">
        <ele>2079.949707</ele>
        <time>2013-01-27T10:00:02Z</time>
      </trkpt>
      <trkpt lat="42.58514" lon="2.00558">
        <ele>2082.3530273</ele>
        <time>2013-01-27T10:00:07Z</time>
      </trkpt>
      <trkpt lat="42.58513" lon="2.00564">
        <ele>2082.8334961</ele>
        <time>2013-01-27T10:00:15Z</time>
      </trkpt>
      <trkpt lat="42.58512" lon="2.00568">
        <ele>2082.3530273</ele>
        <time>2013-01-27T10:00:23Z</time>
      </trkpt>
      <trkpt lat="42.5851" lon="2.00574">
        <ele>2081.8723145</ele>
        <time>2013-01-27T10:00:31Z</time>
      </trkpt>
      <trkpt lat="42.58507" lon="2.00581">
        <ele>2080.4304199</ele>
        <time>2013-01-27T10:00:43Z</time>
      </trkpt>
      <trkpt lat="42.58506" lon="2.00583">
        <ele>2080.9111328</ele>
        <time>2013-01-27T10:00:51Z</time>
      </trkpt>
      <trkpt lat="42.58503" lon="2.00589">
        <ele>2085.2368164</ele>
        <time>2013-01-27T10:00:57Z</time>
      </trkpt>
      <trkpt lat="42.58501" lon="2.00601">
        <ele>2085.7175293</ele>
        <time>2013-01-27T10:01:14Z</time>
      </trkpt>
      <trkpt lat="42.58503" lon="2.00607">
        <ele>2085.2368164</ele>
        <time>2013-01-27T10:01:23Z</time>
      </trkpt>
      <trkpt lat="42.585" lon="2.00612">
        <ele>2084.7563477</ele>
        <time>2013-01-27T10:01:30Z</time>
      </trkpt>
      <trkpt lat="42.58498" lon="2.00615">
        <ele>2088.6015625</ele>
        <time>2013-01-27T10:01:40Z</time>
      </trkpt>
      <trkpt lat="42.58495" lon="2.00621">
        <ele>2091.4853516</ele>
        <time>2013-01-27T10:01:55Z</time>
      </trkpt>
      <trkpt lat="42.58495" lon="2.00627">
        <ele>2089.5627441</ele>
        <time>2013-01-27T10:02:04Z</time>
      </trkpt>
      <trkpt lat="42.58492" lon="2.0064">
        <ele>2091.4853516</ele>
        <time>2013-01-27T10:02:23Z</time>
      </trkpt>
      <trkpt lat="42.58488" lon="2.00642">
        <ele>2095.8115234</ele>
        <time>2013-01-27T10:02:28Z</time>
      </trkpt>
      <trkpt lat="42.58487" lon="2.0065">
        <ele>2091.9660645</ele>
        <time>2013-01-27T10:02:34Z</time>
      </trkpt>
      <trkpt lat="42.58488" lon="2.00654">
        <ele>2088.6015625</ele>
        <time>2013-01-27T10:02:37Z</time>
      </trkpt>
      <trkpt lat="42.58485" lon="2.00657">
        <ele>2087.1594238</ele>
        <time>2013-01-27T10:02:43Z</time>
      </trkpt>
      <trkpt lat="42.58483" lon="2.00665">
        <ele>2083.7949219</ele>
        <time>2013-01-27T10:02:49Z</time>
      </trkpt>
      <trkpt lat="42.58481" lon="2.00666">
        <ele>2082.3530273</ele>
        <time>2013-01-27T10:02:54Z</time>
      </trkpt>
      <trkpt lat="42.58475" lon="2.00668">
        <ele>2088.6015625</ele>
        <time>2013-01-27T10:03:06Z</time>
      </trkpt>
      <trkpt lat="42.58469" lon="2.00661">
        <ele>2098.6953125</ele>
        <time>2013-01-27T10:03:22Z</time>
      </trkpt>
      <trkpt lat="42.58469" lon="2.00671">
        <ele>2098.2145996</ele>
        <time>2013-01-27T10:03:31Z</time>
      </trkpt>
      <trkpt lat="42.58468" lon="2.00672">
        <ele>2100.1374512</ele>
        <time>2013-01-27T10:03:34Z</time>
      </trkpt>
      <trkpt lat="42.58466" lon="2.00676">
        <ele>2101.5793457</ele>
        <time>2013-01-27T10:03:41Z</time>
      </trkpt>
      <trkpt lat="42.58464" lon="2.00683">
        <ele>2101.0986328</ele>
        <time>2013-01-27T10:03:50Z</time>
      </trkpt>
      <trkpt lat="42.58463" lon="2.00688">
        <ele>2100.6179199</ele>
        <time>2013-01-27T10:03:57Z</time>
      </trkpt>
      <trkpt lat="42.58463" lon="2.00696">
        <ele>2099.1760254</ele>
        <time>2013-01-27T10:04:01Z</time>
      </trkpt>
      <trkpt lat="42.58464" lon="2.00706">
        <ele>2096.2922363</ele>
        <time>2013-01-27T10:04:07Z</time>
      </trkpt>
      <trkpt lat="42.58463" lon="2.0071">
        <ele>2095.3308105</ele>
        <time>2013-01-27T10:04:12Z</time>
      </trkpt>
      <trkpt lat="42.58461" lon="2.00713">
        <ele>2096.7727051</ele>
        <time>2013-01-27T10:04:17Z</time>
      </trkpt>
      <trkpt lat="42.58459" lon="2.00718">
        <ele>2094.8500977</ele>
        <time>2013-01-27T10:04:21Z</time>
      </trkpt>
      <trkpt lat="42.58454" lon="2.0072">
        <ele>2096.7727051</ele>
        <time>2013-01-27T10:04:29Z</time>
      </trkpt>
      <trkpt lat="42.58451" lon="2.00723">
        <ele>2096.2922363</ele>
        <time>2013-01-27T10:04:35Z</time>
      </trkpt>
      <trkpt lat="42.58446" lon="2.00726">
        <ele>2097.7341309</ele>
        <time>2013-01-27T10:04:42Z</time>
      </trkpt>
      <trkpt lat="42.58441" lon="2.00729">
        <ele>2095.8115234</ele>
        <time>2013-01-27T10:04:48Z</time>
      </trkpt>
      <trkpt lat="42.58438" lon="2.00735">
        <ele>2093.4082031</ele>
        <time>2013-01-27T10:04:56Z</time>
      </trkpt>
      <trkpt lat="42.58435" lon="2.00742">
        <ele>2089.0820313</ele>
        <time>2013-01-27T10:05:04Z</time>
      </trkpt>
      <trkpt lat="42.5843" lon="2.0075">
        <ele>2089.5627441</ele>
        <time>2013-01-27T10:05:13Z</time>
      </trkpt>
      <trkpt lat="42.58425" lon="2.00755">
        <ele>2089.0820313</ele>
        <time>2013-01-27T10:05:20Z</time>
      </trkpt>
      <trkpt lat="42.58419" lon="2.00754">
        <ele>2093.4082031</ele>
        <time>2013-01-27T10:05:28Z</time>
      </trkpt>
      <trkpt lat="42.58408" lon="2.00759">
        <ele>2104.4631348</ele>
        <time>2013-01-27T10:05:37Z</time>
      </trkpt>
      <trkpt lat="42.58404" lon="2.00763">
        <ele>2101.5793457</ele>
        <time>2013-01-27T10:05:45Z</time>
      </trkpt>
      <trkpt lat="42.584" lon="2.00765">
        <ele>2101.0986328</ele>
        <time>2013-01-27T10:05:52Z</time>
      </trkpt>
      <trkpt lat="42.58397" lon="2.00767">
        <ele>2102.5405273</ele>
        <time>2013-01-27T10:05:58Z</time>
      </trkpt>
      <trkpt lat="42.58393" lon="2.00771">
        <ele>2105.9050293</ele>
        <time>2013-01-27T10:06:06Z</time>
      </trkpt>
      <trkpt lat="42.58389" lon="2.00773">
        <ele>2111.6733398</ele>
        <time>2013-01-27T10:06:14Z</time>
      </trkpt>
      <trkpt lat="42.58387" lon="2.00776">
        <ele>2114.076416</ele>
        <time>2013-01-27T10:06:21Z</time>
      </trkpt>
      <trkpt lat="42.58381" lon="2.00779">
        <ele>2114.5571289</ele>
        <time>2013-01-27T10:06:29Z</time>
      </trkpt>
      <trkpt lat="42.58376" lon="2.00782">
        <ele>2113.5957031</ele>
        <time>2013-01-27T10:06:40Z</time>
      </trkpt>
      <trkpt lat="42.58373" lon="2.00783">
        <ele>2112.1538086</ele>
        <time>2013-01-27T10:06:50Z</time>
      </trkpt>
      <trkpt lat="42.58372" lon="2.00789">
        <ele>2107.8278809</ele>
        <time>2013-01-27T10:06:59Z</time>
      </trkpt>
      <trkpt lat="42.58367" lon="2.00788">
        <ele>2109.2700195</ele>
        <time>2013-01-27T10:07:04Z</time>
      </trkpt>
      <trkpt lat="42.58364" lon="2.00787">
        <ele>2107.347168</ele>
        <time>2013-01-27T10:07:10Z</time>
      </trkpt>
      <trkpt lat="42.58359" lon="2.00791">
        <ele>2111.192627</ele>
        <time>2013-01-27T10:07:16Z</time>
      </trkpt>
      <trkpt lat="42.58351" lon="2.00794">
        <ele>2109.2700195</ele>
        <time>2013-01-27T10:07:29Z</time>
      </trkpt>
      <trkpt lat="42.58351" lon="2.00799">
        <ele>2106.8664551</ele>
        <time>2013-01-27T10:07:36Z</time>
      </trkpt>
      <trkpt lat="42.58347" lon="2.00804">
        <ele>2103.982666</ele>
        <time>2013-01-27T10:07:44Z</time>
      </trkpt>
      <trkpt lat="42.5834" lon="2.00803">
        <ele>2110.7119141</ele>
        <time>2013-01-27T10:07:54Z</time>
      </trkpt>
      <trkpt lat="42.58338" lon="2.00808">
        <ele>2112.1538086</ele>
        <time>2013-01-27T10:08:00Z</time>
      </trkpt>
      <trkpt lat="42.58336" lon="2.00813">
        <ele>2113.5957031</ele>
        <time>2013-01-27T10:08:06Z</time>
      </trkpt>
      <trkpt lat="42.58335" lon="2.00818">
        <ele>2110.2312012</ele>
        <time>2013-01-27T10:08:12Z</time>
      </trkpt>
      <trkpt lat="42.58331" lon="2.00822">
        <ele>2109.7504883</ele>
        <time>2013-01-27T10:08:19Z</time>
      </trkpt>
      <trkpt lat="42.58326" lon="2.00823">
        <ele>2111.192627</ele>
        <time>2013-01-27T10:08:28Z</time>
      </trkpt>
      <trkpt lat="42.58324" lon="2.0083">
        <ele>2106.8664551</ele>
        <time>2013-01-27T10:08:34Z</time>
      </trkpt>
      <trkpt lat="42.58322" lon="2.00836">
        <ele>2105.9050293</ele>
        <time>2013-01-27T10:08:41Z</time>
      </trkpt>
      <trkpt lat="42.58321" lon="2.0084">
        <ele>2103.982666</ele>
        <time>2013-01-27T10:09:25Z</time>
      </trkpt>
      <trkpt lat="42.5833" lon="2.00855">
        <ele>2095.8115234</ele>
        <time>2013-01-27T10:09:35Z</time>
      </trkpt>
      <trkpt lat="42.58327" lon="2.00845">
        <ele>2107.347168</ele>
        <time>2013-01-27T10:09:50Z</time>
      </trkpt>
      <trkpt lat="42.58322" lon="2.00839">
        <ele>2112.1538086</ele>
        <time>2013-01-27T10:09:55Z</time>
      </trkpt>
      <trkpt lat="42.58315" lon="2.00837">
        <ele>2115.5185547</ele>
        <time>2013-01-27T10:10:05Z</time>
      </trkpt>
      <trkpt lat="42.58311" lon="2.00836">
        <ele>2112.6345215</ele>
        <time>2013-01-27T10:10:12Z</time>
      </trkpt>
      <trkpt lat="42.58309" lon="2.00837">
        <ele>2111.192627</ele>
        <time>2013-01-27T10:10:22Z</time>
      </trkpt>
      <trkpt lat="42.58309" lon="2.00837">
        <ele>2110.7119141</ele>
        <time>2013-01-27T10:10:23Z</time>
      </trkpt>
      <trkpt lat="42.58306" lon="2.0084">
        <ele>2113.1152344</ele>
        <time>2013-01-27T10:10:32Z</time>
      </trkpt>
      <trkpt lat="42.58303" lon="2.00847">
        <ele>2112.6345215</ele>
        <time>2013-01-27T10:10:47Z</time>
      </trkpt>
      <trkpt lat="42.58303" lon="2.00851">
        <ele>2109.2700195</ele>
        <time>2013-01-27T10:10:53Z</time>
      </trkpt>
      <trkpt lat="42.58304" lon="2.00849">
        <ele>2110.2312012</ele>
        <time>2013-01-27T10:11:03Z</time>
      </trkpt>
      <trkpt lat="42.58305" lon="2.00851">
        <ele>2110.7119141</ele>
        <time>2013-01-27T10:11:31Z</time>
      </trkpt>
      <trkpt lat="42.58306" lon="2.00853">
        <ele>2111.192627</ele>
        <time>2013-01-27T10:11:40Z</time>
      </trkpt>
      <trkpt lat="42.58296" lon="2.00847">
        <ele>2127.5349121</ele>
        <time>2013-01-27T10:12:04Z</time>
      </trkpt>
      <trkpt lat="42.58294" lon="2.0085">
        <ele>2127.0544434</ele>
        <time>2013-01-27T10:12:11Z</time>
      </trkpt>
      <trkpt lat="42.58292" lon="2.00854">
        <ele>2122.2475586</ele>
        <time>2013-01-27T10:12:17Z</time>
      </trkpt>
      <trkpt lat="42.5829" lon="2.00859">
        <ele>2119.3637695</ele>
        <time>2013-01-27T10:12:23Z</time>
      </trkpt>
      <trkpt lat="42.58288" lon="2.00863">
        <ele>2115.9990234</ele>
        <time>2013-01-27T10:12:29Z</time>
      </trkpt>
      <trkpt lat="42.58286" lon="2.00865">
        <ele>2113.5957031</ele>
        <time>2013-01-27T10:12:37Z</time>
      </trkpt>
      <trkpt lat="42.5828" lon="2.00865">
        <ele>2115.9990234</ele>
        <time>2013-01-27T10:12:45Z</time>
      </trkpt>
      <trkpt lat="42.58277" lon="2.00866">
        <ele>2113.5957031</ele>
        <time>2013-01-27T10:12:52Z</time>
      </trkpt>
      <trkpt lat="42.58272" lon="2.00864">
        <ele>2118.4023438</ele>
        <time>2013-01-27T10:12:56Z</time>
      </trkpt>
      <trkpt lat="42.58267" lon="2.00864">
        <ele>2121.7668457</ele>
        <time>2013-01-27T10:13:05Z</time>
      </trkpt>
      <trkpt lat="42.58265" lon="2.00865">
        <ele>2121.2861328</ele>
        <time>2013-01-27T10:13:11Z</time>
      </trkpt>
      <trkpt lat="42.58262" lon="2.00865">
        <ele>2119.8442383</ele>
        <time>2013-01-27T10:13:19Z</time>
      </trkpt>
      <trkpt lat="42.58245" lon="2.0087">
        <ele>2129.4575195</ele>
        <time>2013-01-27T10:13:41Z</time>
      </trkpt>
      <trkpt lat="42.58223" lon="2.00876">
        <ele>2140.5126953</ele>
        <time>2013-01-27T10:14:26Z</time>
      </trkpt>
      <trkpt lat="42.58225" lon="2.00885">
        <ele>2130.8996582</ele>
        <time>2013-01-27T10:14:36Z</time>
      </trkpt>
      <trkpt lat="42.58225" lon="2.00884">
        <ele>2126.5737305</ele>
        <time>2013-01-27T10:15:52Z</time>
      </trkpt>
      <trkpt lat="42.58221" lon="2.00881">
        <ele>2134.744873</ele>
        <time>2013-01-27T10:16:08Z</time>
      </trkpt>
      <trkpt lat="42.58219" lon="2.0088">
        <ele>2136.6672363</ele>
        <time>2013-01-27T10:16:10Z</time>
      </trkpt>
      <trkpt lat="42.5821" lon="2.0089">
        <ele>2128.4963379</ele>
        <time>2013-01-27T10:16:32Z</time>
      </trkpt>
      <trkpt lat="42.58207" lon="2.00905">
        <ele>2127.5349121</ele>
        <time>2013-01-27T10:16:54Z</time>
      </trkpt>
      <trkpt lat="42.58211" lon="2.00911">
        <ele>2131.380127</ele>
        <time>2013-01-27T10:17:06Z</time>
      </trkpt>
      <trkpt lat="42.58205" lon="2.00924">
        <ele>2137.6286621</ele>
        <time>2013-01-27T10:17:28Z</time>
      </trkpt>
      <trkpt lat="42.58205" lon="2.00929">
        <ele>2136.1867676</ele>
        <time>2013-01-27T10:17:33Z</time>
      </trkpt>
      <trkpt lat="42.58205" lon="2.00932">
        <ele>2133.3027344</ele>
        <time>2013-01-27T10:17:43Z</time>
      </trkpt>
      <trkpt lat="42.58203" lon="2.00938">
        <ele>2141.954834</ele>
        <time>2013-01-27T10:18:06Z</time>
      </trkpt>
      <trkpt lat="42.58209" lon="2.00942">
        <ele>2143.3967285</ele>
        <time>2013-01-27T10:18:18Z</time>
      </trkpt>
      <trkpt lat="42.58219" lon="2.0095">
        <ele>2142.9160156</ele>
        <time>2013-01-27T10:18:40Z</time>
      </trkpt>
      <trkpt lat="42.58225" lon="2.00953">
        <ele>2143.8774414</ele>
        <time>2013-01-27T10:18:52Z</time>
      </trkpt>
      <trkpt lat="42.58228" lon="2.00958">
        <ele>2140.0322266</ele>
        <time>2013-01-27T10:19:09Z</time>
      </trkpt>
      <trkpt lat="42.58227" lon="2.00961">
        <ele>2137.6286621</ele>
        <time>2013-01-27T10:19:15Z</time>
      </trkpt>
      <trkpt lat="42.58228" lon="2.00966">
        <ele>2138.109375</ele>
        <time>2013-01-27T10:19:23Z</time>
      </trkpt>
      <trkpt lat="42.58231" lon="2.0097">
        <ele>2140.5126953</ele>
        <time>2013-01-27T10:19:31Z</time>
      </trkpt>
      <trkpt lat="42.58232" lon="2.00974">
        <ele>2140.9934082</ele>
        <time>2013-01-27T10:19:36Z</time>
      </trkpt>
      <trkpt lat="42.58228" lon="2.00978">
        <ele>2144.838623</ele>
        <time>2013-01-27T10:19:46Z</time>
      </trkpt>
      <trkpt lat="42.58232" lon="2.00981">
        <ele>2144.838623</ele>
        <time>2013-01-27T10:19:58Z</time>
      </trkpt>
      <trkpt lat="42.58237" lon="2.00984">
        <ele>2146.2807617</ele>
        <time>2013-01-27T10:20:06Z</time>
      </trkpt>
      <trkpt lat="42.5824" lon="2.00986">
        <ele>2146.7612305</ele>
        <time>2013-01-27T10:20:12Z</time>
      </trkpt>
      <trkpt lat="42.58243" lon="2.00989">
        <ele>2147.7226563</ele>
        <time>2013-01-27T10:20:20Z</time>
      </trkpt>
      <trkpt lat="42.58245" lon="2.00991">
        <ele>2148.6838379</ele>
        <time>2013-01-27T10:20:25Z</time>
      </trkpt>
      <trkpt lat="42.58249" lon="2.00991">
        <ele>2152.0483398</ele>
        <time>2013-01-27T10:20:33Z</time>
      </trkpt>
      <trkpt lat="42.5825" lon="2.00994">
        <ele>2152.0483398</ele>
        <time>2013-01-27T10:20:41Z</time>
      </trkpt>
      <trkpt lat="42.58252" lon="2.00994">
        <ele>2152.5290527</ele>
        <time>2013-01-27T10:20:51Z</time>
      </trkpt>
      <trkpt lat="42.58254" lon="2.00996">
        <ele>2153.0097656</ele>
        <time>2013-01-27T10:20:56Z</time>
      </trkpt>
      <trkpt lat="42.58256" lon="2.01">
        <ele>2153.0097656</ele>
        <time>2013-01-27T10:21:02Z</time>
      </trkpt>
      <trkpt lat="42.58256" lon="2.01008">
        <ele>2153.0097656</ele>
        <time>2013-01-27T10:21:10Z</time>
      </trkpt>
      <trkpt lat="42.58257" lon="2.01013">
        <ele>2153.4904785</ele>
        <time>2013-01-27T10:21:16Z</time>
      </trkpt>
      <trkpt lat="42.58257" lon="2.01016">
        <ele>2151.5678711</ele>
        <time>2013-01-27T10:21:22Z</time>
      </trkpt>
      <trkpt lat="42.58259" lon="2.01017">
        <ele>2153.9711914</ele>
        <time>2013-01-27T10:21:34Z</time>
      </trkpt>
      <trkpt lat="42.58261" lon="2.01021">
        <ele>2156.3745117</ele>
        <time>2013-01-27T10:21:42Z</time>
      </trkpt>
      <trkpt lat="42.58263" lon="2.01023">
        <ele>2155.8935547</ele>
        <time>2013-01-27T10:21:48Z</time>
      </trkpt>
      <trkpt lat="42.58265" lon="2.01023">
        <ele>2154.4516602</ele>
        <time>2013-01-27T10:21:56Z</time>
      </trkpt>
      <trkpt lat="42.58269" lon="2.01027">
        <ele>2155.8935547</ele>
        <time>2013-01-27T10:22:04Z</time>
      </trkpt>
      <trkpt lat="42.58274" lon="2.01031">
        <ele>2158.2971191</ele>
        <time>2013-01-27T10:22:13Z</time>
      </trkpt>
      <trkpt lat="42.58278" lon="2.01035">
        <ele>2161.6618652</ele>
        <time>2013-01-27T10:22:20Z</time>
      </trkpt>
      <trkpt lat="42.58279" lon="2.01039">
        <ele>2158.777832</ele>
        <time>2013-01-27T10:22:27Z</time>
      </trkpt>
      <trkpt lat="42.58285" lon="2.01043">
        <ele>2160.7004395</ele>
        <time>2013-01-27T10:22:37Z</time>
      </trkpt>
      <trkpt lat="42.5829" lon="2.01047">
        <ele>2158.2971191</ele>
        <time>2013-01-27T10:22:45Z</time>
      </trkpt>
      <trkpt lat="42.58296" lon="2.01051">
        <ele>2157.3359375</ele>
        <time>2013-01-27T10:22:55Z</time>
      </trkpt>
      <trkpt lat="42.58301" lon="2.01052">
        <ele>2156.3745117</ele>
        <time>2013-01-27T10:23:02Z</time>
      </trkpt>
      <trkpt lat="42.58308" lon="2.01055">
        <ele>2158.777832</ele>
        <time>2013-01-27T10:23:11Z</time>
      </trkpt>
      <trkpt lat="42.58314" lon="2.0106">
        <ele>2159.2585449</ele>
        <time>2013-01-27T10:23:21Z</time>
      </trkpt>
      <trkpt lat="42.58318" lon="2.01064">
        <ele>2160.7004395</ele>
        <time>2013-01-27T10:23:29Z</time>
      </trkpt>
      <trkpt lat="42.58319" lon="2.01067">
        <ele>2159.7390137</ele>
        <time>2013-01-27T10:23:37Z</time>
      </trkpt>
      <trkpt lat="42.58323" lon="2.01063">
        <ele>2161.1811523</ele>
        <time>2013-01-27T10:24:07Z</time>
      </trkpt>
      <trkpt lat="42.58324" lon="2.01068">
        <ele>2160.7004395</ele>
        <time>2013-01-27T10:24:14Z</time>
      </trkpt>
      <trkpt lat="42.58325" lon="2.01075">
        <ele>2160.7004395</ele>
        <time>2013-01-27T10:24:21Z</time>
      </trkpt>
      <trkpt lat="42.5833" lon="2.01078">
        <ele>2162.6230469</ele>
        <time>2013-01-27T10:24:28Z</time>
      </trkpt>
      <trkpt lat="42.58332" lon="2.01075">
        <ele>2167.9101563</ele>
        <time>2013-01-27T10:24:41Z</time>
      </trkpt>
      <trkpt lat="42.58332" lon="2.0108">
        <ele>2163.5842285</ele>
        <time>2013-01-27T10:24:50Z</time>
      </trkpt>
      <trkpt lat="42.58337" lon="2.01089">
        <ele>2153.4904785</ele>
        <time>2013-01-27T10:24:57Z</time>
      </trkpt>
      <trkpt lat="42.58334" lon="2.01089">
        <ele>2154.932373</ele>
        <time>2013-01-27T10:25:05Z</time>
      </trkpt>
      <trkpt lat="42.5833" lon="2.01082">
        <ele>2162.6230469</ele>
        <time>2013-01-27T10:25:19Z</time>
      </trkpt>
      <trkpt lat="42.58322" lon="2.0107">
        <ele>2176.5622559</ele>
        <time>2013-01-27T10:25:31Z</time>
      </trkpt>
      <trkpt lat="42.5832" lon="2.01067">
        <ele>2180.8881836</ele>
        <time>2013-01-27T10:25:38Z</time>
      </trkpt>
      <trkpt lat="42.5832" lon="2.01069">
        <ele>2177.5234375</ele>
        <time>2013-01-27T10:25:47Z</time>
      </trkpt>
      <trkpt lat="42.58317" lon="2.01068">
        <ele>2171.7553711</ele>
        <time>2013-01-27T10:25:54Z</time>
      </trkpt>
      <trkpt lat="42.58317" lon="2.01077">
        <ele>2160.7004395</ele>
        <time>2013-01-27T10:26:08Z</time>
      </trkpt>
      <trkpt lat="42.58315" lon="2.01073">
        <ele>2155.4130859</ele>
        <time>2013-01-27T10:26:17Z</time>
      </trkpt>
      <trkpt lat="42.58313" lon="2.0107">
        <ele>2153.4904785</ele>
        <time>2013-01-27T10:26:24Z</time>
      </trkpt>
      <trkpt lat="42.58309" lon="2.01066">
        <ele>2156.8552246</ele>
        <time>2013-01-27T10:26:31Z</time>
      </trkpt>
      <trkpt lat="42.58305" lon="2.01063">
        <ele>2153.4904785</ele>
        <time>2013-01-27T10:26:39Z</time>
      </trkpt>
      <trkpt lat="42.583" lon="2.01063">
        <ele>2151.0871582</ele>
        <time>2013-01-27T10:26:51Z</time>
      </trkpt>
      <trkpt lat="42.58292" lon="2.01064">
        <ele>2150.6064453</ele>
        <time>2013-01-27T10:27:00Z</time>
      </trkpt>
      <trkpt lat="42.58287" lon="2.01063">
        <ele>2150.1259766</ele>
        <time>2013-01-27T10:27:05Z</time>
      </trkpt>
      <trkpt lat="42.58281" lon="2.01062">
        <ele>2153.4904785</ele>
        <time>2013-01-27T10:27:13Z</time>
      </trkpt>
      <trkpt lat="42.58274" lon="2.0106">
        <ele>2151.5678711</ele>
        <time>2013-01-27T10:27:21Z</time>
      </trkpt>
      <trkpt lat="42.58267" lon="2.01055">
        <ele>2155.4130859</ele>
        <time>2013-01-27T10:27:30Z</time>
      </trkpt>
      <trkpt lat="42.58258" lon="2.01052">
        <ele>2157.3359375</ele>
        <time>2013-01-27T10:27:39Z</time>
      </trkpt>
      <trkpt lat="42.5825" lon="2.01049">
        <ele>2155.8935547</ele>
        <time>2013-01-27T10:27:47Z</time>
      </trkpt>
      <trkpt lat="42.58244" lon="2.01047">
        <ele>2155.8935547</ele>
        <time>2013-01-27T10:27:55Z</time>
      </trkpt>
      <trkpt lat="42.5824" lon="2.01046">
        <ele>2156.3745117</ele>
        <time>2013-01-27T10:28:03Z</time>
      </trkpt>
      <trkpt lat="42.58235" lon="2.01046">
        <ele>2158.2971191</ele>
        <time>2013-01-27T10:28:09Z</time>
      </trkpt>
      <trkpt lat="42.58232" lon="2.01052">
        <ele>2155.8935547</ele>
        <time>2013-01-27T10:28:17Z</time>
      </trkpt>
      <trkpt lat="42.5823" lon="2.01054">
        <ele>2155.4130859</ele>
        <time>2013-01-27T10:28:23Z</time>
      </trkpt>
      <trkpt lat="42.58225" lon="2.01058">
        <ele>2157.8166504</ele>
        <time>2013-01-27T10:28:31Z</time>
      </trkpt>
      <trkpt lat="42.58227" lon="2.0108">
        <ele>2152.5290527</ele>
        <time>2013-01-27T10:28:53Z</time>
      </trkpt>
      <trkpt lat="42.58224" lon="2.01082">
        <ele>2156.3745117</ele>
        <time>2013-01-27T10:28:59Z</time>
      </trkpt>
      <trkpt lat="42.58215" lon="2.01088">
        <ele>2165.9875488</ele>
        <time>2013-01-27T10:29:25Z</time>
      </trkpt>
      <trkpt lat="42.58203" lon="2.01083">
        <ele>2172.717041</ele>
        <time>2013-01-27T10:29:42Z</time>
      </trkpt>
      <trkpt lat="42.582" lon="2.01085">
        <ele>2175.6008301</ele>
        <time>2013-01-27T10:29:48Z</time>
      </trkpt>
      <trkpt lat="42.582" lon="2.01088">
        <ele>2173.6782227</ele>
        <time>2013-01-27T10:29:58Z</time>
      </trkpt>
      <trkpt lat="42.58202" lon="2.0109">
        <ele>2171.7553711</ele>
        <time>2013-01-27T10:30:08Z</time>
      </trkpt>
      <trkpt lat="42.58205" lon="2.01093">
        <ele>2170.3134766</ele>
        <time>2013-01-27T10:30:16Z</time>
      </trkpt>
      <trkpt lat="42.58209" lon="2.01102">
        <ele>2167.9101563</ele>
        <time>2013-01-27T10:30:24Z</time>
      </trkpt>
      <trkpt lat="42.58214" lon="2.01106">
        <ele>2166.4682617</ele>
        <time>2013-01-27T10:30:33Z</time>
      </trkpt>
      <trkpt lat="42.58218" lon="2.01112">
        <ele>2167.4294434</ele>
        <time>2013-01-27T10:30:40Z</time>
      </trkpt>
      <trkpt lat="42.58221" lon="2.01118">
        <ele>2167.4294434</ele>
        <time>2013-01-27T10:30:48Z</time>
      </trkpt>
      <trkpt lat="42.58222" lon="2.0112">
        <ele>2169.3522949</ele>
        <time>2013-01-27T10:30:57Z</time>
      </trkpt>
      <trkpt lat="42.5822" lon="2.01122">
        <ele>2170.3134766</ele>
        <time>2013-01-27T10:31:09Z</time>
      </trkpt>
      <trkpt lat="42.58217" lon="2.01129">
        <ele>2171.2746582</ele>
        <time>2013-01-27T10:31:17Z</time>
      </trkpt>
      <trkpt lat="42.58215" lon="2.01133">
        <ele>2172.2363281</ele>
        <time>2013-01-27T10:31:24Z</time>
      </trkpt>
      <trkpt lat="42.58215" lon="2.01139">
        <ele>2173.6782227</ele>
        <time>2013-01-27T10:31:37Z</time>
      </trkpt>
      <trkpt lat="42.58217" lon="2.01142">
        <ele>2175.6008301</ele>
        <time>2013-01-27T10:31:47Z</time>
      </trkpt>
      <trkpt lat="42.58213" lon="2.01145">
        <ele>2175.1201172</ele>
        <time>2013-01-27T10:32:03Z</time>
      </trkpt>
      <trkpt lat="42.58208" lon="2.01152">
        <ele>2172.717041</ele>
        <time>2013-01-27T10:32:18Z</time>
      </trkpt>
      <trkpt lat="42.58207" lon="2.01157">
        <ele>2174.1589355</ele>
        <time>2013-01-27T10:32:28Z</time>
      </trkpt>
      <trkpt lat="42.58213" lon="2.01156">
        <ele>2173.1977539</ele>
        <time>2013-01-27T10:32:38Z</time>
      </trkpt>
      <trkpt lat="42.58217" lon="2.01156">
        <ele>2171.2746582</ele>
        <time>2013-01-27T10:32:44Z</time>
      </trkpt>
      <trkpt lat="42.58218" lon="2.01161">
        <ele>2169.8327637</ele>
        <time>2013-01-27T10:32:51Z</time>
      </trkpt>
      <trkpt lat="42.58221" lon="2.01171">
        <ele>2168.871582</ele>
        <time>2013-01-27T10:33:01Z</time>
      </trkpt>
      <trkpt lat="42.58217" lon="2.01173">
        <ele>2171.2746582</ele>
        <time>2013-01-27T10:33:08Z</time>
      </trkpt>
      <trkpt lat="42.58212" lon="2.01173">
        <ele>2173.6782227</ele>
        <time>2013-01-27T10:33:15Z</time>
      </trkpt>
      <trkpt lat="42.58208" lon="2.01174">
        <ele>2175.1201172</ele>
        <time>2013-01-27T10:33:22Z</time>
      </trkpt>
      <trkpt lat="42.58204" lon="2.01174">
        <ele>2177.0429688</ele>
        <time>2013-01-27T10:33:29Z</time>
      </trkpt>
      <trkpt lat="42.58199" lon="2.01176">
        <ele>2177.0429688</ele>
        <time>2013-01-27T10:33:36Z</time>
      </trkpt>
      <trkpt lat="42.58193" lon="2.01177">
        <ele>2179.4460449</ele>
        <time>2013-01-27T10:33:43Z</time>
      </trkpt>
      <trkpt lat="42.58189" lon="2.01174">
        <ele>2181.8493652</ele>
        <time>2013-01-27T10:33:50Z</time>
      </trkpt>
      <trkpt lat="42.58189" lon="2.01172">
        <ele>2178.965332</ele>
        <time>2013-01-27T10:33:55Z</time>
      </trkpt>
      <trkpt lat="42.58186" lon="2.01173">
        <ele>2178.4848633</ele>
        <time>2013-01-27T10:34:06Z</time>
      </trkpt>
      <trkpt lat="42.58187" lon="2.01174">
        <ele>2178.965332</ele>
        <time>2013-01-27T10:34:23Z</time>
      </trkpt>
      <trkpt lat="42.58183" lon="2.01173">
        <ele>2178.965332</ele>
        <time>2013-01-27T10:34:33Z</time>
      </trkpt>
      <trkpt lat="42.58182" lon="2.01178">
        <ele>2178.0041504</ele>
        <time>2013-01-27T10:34:48Z</time>
      </trkpt>
      <trkpt lat="42.5818" lon="2.01179">
        <ele>2178.4848633</ele>
        <time>2013-01-27T10:34:55Z</time>
      </trkpt>
      <trkpt lat="42.58177" lon="2.01175">
        <ele>2180.4074707</ele>
        <time>2013-01-27T10:35:03Z</time>
      </trkpt>
      <trkpt lat="42.58178" lon="2.01176">
        <ele>2178.4848633</ele>
        <time>2013-01-27T10:35:14Z</time>
      </trkpt>
      <trkpt lat="42.5818" lon="2.01173">
        <ele>2177.5234375</ele>
        <time>2013-01-27T10:35:32Z</time>
      </trkpt>
      <trkpt lat="42.58183" lon="2.01174">
        <ele>2176.5622559</ele>
        <time>2013-01-27T10:36:46Z</time>
      </trkpt>
      <trkpt lat="42.58183" lon="2.01176">
        <ele>2177.0429688</ele>
        <time>2013-01-27T10:37:08Z</time>
      </trkpt>
      <trkpt lat="42.58182" lon="2.01173">
        <ele>2179.4460449</ele>
        <time>2013-01-27T10:37:45Z</time>
      </trkpt>
      <trkpt lat="42.58181" lon="2.01174">
        <ele>2178.0041504</ele>
        <time>2013-01-27T10:37:57Z</time>
      </trkpt>
      <trkpt lat="42.58181" lon="2.01172">
        <ele>2174.1589355</ele>
        <time>2013-01-27T10:38:09Z</time>
      </trkpt>
      <trkpt lat="42.58182" lon="2.01169">
        <ele>2170.3134766</ele>
        <time>2013-01-27T10:38:25Z</time>
      </trkpt>
      <trkpt lat="42.58184" lon="2.01173">
        <ele>2165.9875488</ele>
        <time>2013-01-27T10:38:48Z</time>
      </trkpt>
      <trkpt lat="42.58185" lon="2.0117">
        <ele>2167.9101563</ele>
        <time>2013-01-27T10:39:02Z</time>
      </trkpt>
      <trkpt lat="42.58186" lon="2.01175">
        <ele>2167.9101563</ele>
        <time>2013-01-27T10:39:25Z</time>
      </trkpt>
      <trkpt lat="42.58184" lon="2.01175">
        <ele>2166.9489746</ele>
        <time>2013-01-27T10:39:32Z</time>
      </trkpt>
      <trkpt lat="42.58179" lon="2.01176">
        <ele>2165.0263672</ele>
        <time>2013-01-27T10:39:41Z</time>
      </trkpt>
      <trkpt lat="42.58173" lon="2.01176">
        <ele>2166.9489746</ele>
        <time>2013-01-27T10:39:50Z</time>
      </trkpt>
      <trkpt lat="42.58167" lon="2.01176">
        <ele>2166.9489746</ele>
        <time>2013-01-27T10:39:58Z</time>
      </trkpt>
      <trkpt lat="42.58161" lon="2.01176">
        <ele>2166.9489746</ele>
        <time>2013-01-27T10:40:07Z</time>
      </trkpt>
      <trkpt lat="42.58151" lon="2.01177">
        <ele>2170.3134766</ele>
        <time>2013-01-27T10:40:16Z</time>
      </trkpt>
      <trkpt lat="42.58146" lon="2.01177">
        <ele>2171.2746582</ele>
        <time>2013-01-27T10:40:23Z</time>
      </trkpt>
      <trkpt lat="42.58141" lon="2.0118">
        <ele>2169.8327637</ele>
        <time>2013-01-27T10:40:32Z</time>
      </trkpt>
      <trkpt lat="42.58137" lon="2.01181">
        <ele>2167.9101563</ele>
        <time>2013-01-27T10:40:40Z</time>
      </trkpt>
      <trkpt lat="42.58132" lon="2.01184">
        <ele>2167.9101563</ele>
        <time>2013-01-27T10:40:49Z</time>
      </trkpt>
      <trkpt lat="42.58124" lon="2.01185">
        <ele>2169.8327637</ele>
        <time>2013-01-27T10:40:56Z</time>
      </trkpt>
      <trkpt lat="42.58117" lon="2.01188">
        <ele>2168.871582</ele>
        <time>2013-01-27T10:41:03Z</time>
      </trkpt>
      <trkpt lat="42.58113" lon="2.01188">
        <ele>2167.9101563</ele>
        <time>2013-01-27T10:41:09Z</time>
      </trkpt>
      <trkpt lat="42.58108" lon="2.01187">
        <ele>2166.9489746</ele>
        <time>2013-01-27T10:41:15Z</time>
      </trkpt>
      <trkpt lat="42.58102" lon="2.01188">
        <ele>2165.9875488</ele>
        <time>2013-01-27T10:41:23Z</time>
      </trkpt>
      <trkpt lat="42.58098" lon="2.01185">
        <ele>2165.5070801</ele>
        <time>2013-01-27T10:41:32Z</time>
      </trkpt>
      <trkpt lat="42.58097" lon="2.01187">
        <ele>2163.5842285</ele>
        <time>2013-01-27T10:41:35Z</time>
      </trkpt>
      <trkpt lat="42.58092" lon="2.0119">
        <ele>2163.1037598</ele>
        <time>2013-01-27T10:41:42Z</time>
      </trkpt>
      <trkpt lat="42.58091" lon="2.01189">
        <ele>2160.7004395</ele>
        <time>2013-01-27T10:41:46Z</time>
      </trkpt>
      <trkpt lat="42.58086" lon="2.01192">
        <ele>2160.7004395</ele>
        <time>2013-01-27T10:41:55Z</time>
      </trkpt>
      <trkpt lat="42.5808" lon="2.01193">
        <ele>2163.5842285</ele>
        <time>2013-01-27T10:42:04Z</time>
      </trkpt>
      <trkpt lat="42.58067" lon="2.01187">
        <ele>2171.2746582</ele>
        <time>2013-01-27T10:42:20Z</time>
      </trkpt>
      <trkpt lat="42.58061" lon="2.01184">
        <ele>2172.2363281</ele>
        <time>2013-01-27T10:42:28Z</time>
      </trkpt>
      <trkpt lat="42.58058" lon="2.0118">
        <ele>2175.1201172</ele>
        <time>2013-01-27T10:42:32Z</time>
      </trkpt>
      <trkpt lat="42.58053" lon="2.01182">
        <ele>2169.8327637</ele>
        <time>2013-01-27T10:42:39Z</time>
      </trkpt>
      <trkpt lat="42.58049" lon="2.01181">
        <ele>2168.871582</ele>
        <time>2013-01-27T10:42:47Z</time>
      </trkpt>
      <trkpt lat="42.58034" lon="2.01186">
        <ele>2169.3522949</ele>
        <time>2013-01-27T10:43:05Z</time>
      </trkpt>
      <trkpt lat="42.58022" lon="2.01179">
        <ele>2180.8881836</ele>
        <time>2013-01-27T10:43:27Z</time>
      </trkpt>
      <trkpt lat="42.5802" lon="2.01182">
        <ele>2177.0429688</ele>
        <time>2013-01-27T10:43:34Z</time>
      </trkpt>
      <trkpt lat="42.58016" lon="2.01183">
        <ele>2177.0429688</ele>
        <time>2013-01-27T10:43:42Z</time>
      </trkpt>
      <trkpt lat="42.58015" lon="2.01187">
        <ele>2171.7553711</ele>
        <time>2013-01-27T10:43:48Z</time>
      </trkpt>
      <trkpt lat="42.58015" lon="2.01193">
        <ele>2161.1811523</ele>
        <time>2013-01-27T10:44:03Z</time>
      </trkpt>
      <trkpt lat="42.58012" lon="2.01192">
        <ele>2162.142334</ele>
        <time>2013-01-27T10:44:17Z</time>
      </trkpt>
      <trkpt lat="42.5801" lon="2.01191">
        <ele>2165.9875488</ele>
        <time>2013-01-27T10:44:22Z</time>
      </trkpt>
      <trkpt lat="42.58006" lon="2.01192">
        <ele>2167.4294434</ele>
        <time>2013-01-27T10:44:30Z</time>
      </trkpt>
      <trkpt lat="42.58" lon="2.01196">
        <ele>2167.9101563</ele>
        <time>2013-01-27T10:44:37Z</time>
      </trkpt>
      <trkpt lat="42.57998" lon="2.01196">
        <ele>2168.3908691</ele>
        <time>2013-01-27T10:44:43Z</time>
      </trkpt>
      <trkpt lat="42.57993" lon="2.01198">
        <ele>2169.8327637</ele>
        <time>2013-01-27T10:44:50Z</time>
      </trkpt>
      <trkpt lat="42.57988" lon="2.01197">
        <ele>2172.717041</ele>
        <time>2013-01-27T10:44:59Z</time>
      </trkpt>
      <trkpt lat="42.57983" lon="2.01198">
        <ele>2170.3134766</ele>
        <time>2013-01-27T10:45:06Z</time>
      </trkpt>
      <trkpt lat="42.57979" lon="2.01199">
        <ele>2168.3908691</ele>
        <time>2013-01-27T10:45:13Z</time>
      </trkpt>
      <trkpt lat="42.57978" lon="2.012">
        <ele>2166.9489746</ele>
        <time>2013-01-27T10:45:19Z</time>
      </trkpt>
      <trkpt lat="42.57978" lon="2.01207">
        <ele>2161.1811523</ele>
        <time>2013-01-27T10:45:28Z</time>
      </trkpt>
      <trkpt lat="42.57973" lon="2.01203">
        <ele>2172.2363281</ele>
        <time>2013-01-27T10:45:46Z</time>
      </trkpt>
      <trkpt lat="42.57969" lon="2.01205">
        <ele>2170.7941895</ele>
        <time>2013-01-27T10:45:54Z</time>
      </trkpt>
      <trkpt lat="42.57964" lon="2.01208">
        <ele>2172.2363281</ele>
        <time>2013-01-27T10:46:02Z</time>
      </trkpt>
      <trkpt lat="42.57956" lon="2.01209">
        <ele>2174.1589355</ele>
        <time>2013-01-27T10:46:11Z</time>
      </trkpt>
      <trkpt lat="42.57952" lon="2.01207">
        <ele>2175.1201172</ele>
        <time>2013-01-27T10:46:19Z</time>
      </trkpt>
      <trkpt lat="42.57946" lon="2.01206">
        <ele>2174.6396484</ele>
        <time>2013-01-27T10:46:28Z</time>
      </trkpt>
      <trkpt lat="42.57942" lon="2.01207">
        <ele>2175.6008301</ele>
        <time>2013-01-27T10:46:34Z</time>
      </trkpt>
      <trkpt lat="42.57937" lon="2.01207">
        <ele>2177.0429688</ele>
        <time>2013-01-27T10:46:42Z</time>
      </trkpt>
      <trkpt lat="42.57935" lon="2.01207">
        <ele>2178.0041504</ele>
        <time>2013-01-27T10:46:52Z</time>
      </trkpt>
      <trkpt lat="42.57931" lon="2.01206">
        <ele>2183.2912598</ele>
        <time>2013-01-27T10:47:09Z</time>
      </trkpt>
      <trkpt lat="42.57924" lon="2.01206">
        <ele>2184.2526855</ele>
        <time>2013-01-27T10:47:17Z</time>
      </trkpt>
      <trkpt lat="42.57919" lon="2.01207">
        <ele>2184.2526855</ele>
        <time>2013-01-27T10:47:25Z</time>
      </trkpt>
      <trkpt lat="42.57915" lon="2.0121">
        <ele>2179.9267578</ele>
        <time>2013-01-27T10:47:42Z</time>
      </trkpt>
      <trkpt lat="42.5791" lon="2.01209">
        <ele>2179.4460449</ele>
        <time>2013-01-27T10:47:50Z</time>
      </trkpt>
      <trkpt lat="42.57904" lon="2.01209">
        <ele>2178.4848633</ele>
        <time>2013-01-27T10:47:59Z</time>
      </trkpt>
      <trkpt lat="42.57897" lon="2.01209">
        <ele>2178.4848633</ele>
        <time>2013-01-27T10:48:09Z</time>
      </trkpt>
      <trkpt lat="42.57893" lon="2.0121">
        <ele>2178.4848633</ele>
        <time>2013-01-27T10:48:16Z</time>
      </trkpt>
      <trkpt lat="42.57886" lon="2.0121">
        <ele>2179.9267578</ele>
        <time>2013-01-27T10:48:25Z</time>
      </trkpt>
      <trkpt lat="42.57881" lon="2.01212">
        <ele>2179.4460449</ele>
        <time>2013-01-27T10:48:32Z</time>
      </trkpt>
      <trkpt lat="42.57874" lon="2.01211">
        <ele>2180.8881836</ele>
        <time>2013-01-27T10:48:41Z</time>
      </trkpt>
      <trkpt lat="42.5787" lon="2.01211">
        <ele>2180.8881836</ele>
        <time>2013-01-27T10:48:47Z</time>
      </trkpt>
      <trkpt lat="42.57868" lon="2.01211">
        <ele>2179.4460449</ele>
        <time>2013-01-27T10:48:53Z</time>
      </trkpt>
      <trkpt lat="42.57864" lon="2.01207">
        <ele>2181.8493652</ele>
        <time>2013-01-27T10:49:03Z</time>
      </trkpt>
      <trkpt lat="42.57868" lon="2.01212">
        <ele>2159.2585449</ele>
        <time>2013-01-27T10:50:18Z</time>
      </trkpt>
      <trkpt lat="42.5787" lon="2.01217">
        <ele>2158.777832</ele>
        <time>2013-01-27T10:50:35Z</time>
      </trkpt>
      <trkpt lat="42.5787" lon="2.01215">
        <ele>2163.5842285</ele>
        <time>2013-01-27T10:51:04Z</time>
      </trkpt>
      <trkpt lat="42.57865" lon="2.01212">
        <ele>2175.6008301</ele>
        <time>2013-01-27T10:51:43Z</time>
      </trkpt>
      <trkpt lat="42.57863" lon="2.01208">
        <ele>2173.6782227</ele>
        <time>2013-01-27T10:51:55Z</time>
      </trkpt>
      <trkpt lat="42.57867" lon="2.01204">
        <ele>2173.1977539</ele>
        <time>2013-01-27T10:53:45Z</time>
      </trkpt>
      <trkpt lat="42.57863" lon="2.01209">
        <ele>2172.717041</ele>
        <time>2013-01-27T10:54:02Z</time>
      </trkpt>
      <trkpt lat="42.57864" lon="2.01211">
        <ele>2172.2363281</ele>
        <time>2013-01-27T10:54:22Z</time>
      </trkpt>
      <trkpt lat="42.57857" lon="2.01207">
        <ele>2192.4240723</ele>
        <time>2013-01-27T10:56:33Z</time>
      </trkpt>
      <trkpt lat="42.57867" lon="2.01211">
        <ele>2168.871582</ele>
        <time>2013-01-27T10:57:51Z</time>
      </trkpt>
      <trkpt lat="42.57867" lon="2.01207">
        <ele>2168.3908691</ele>
        <time>2013-01-27T10:57:57Z</time>
      </trkpt>
      <trkpt lat="42.57861" lon="2.01213">
        <ele>2175.1201172</ele>
        <time>2013-01-27T10:58:23Z</time>
      </trkpt>
      <trkpt lat="42.57862" lon="2.01215">
        <ele>2174.6396484</ele>
        <time>2013-01-27T10:58:34Z</time>
      </trkpt>
      <trkpt lat="42.57865" lon="2.01214">
        <ele>2169.3522949</ele>
        <time>2013-01-27T10:58:54Z</time>
      </trkpt>
      <trkpt lat="42.57869" lon="2.01216">
        <ele>2168.871582</ele>
        <time>2013-01-27T10:59:11Z</time>
      </trkpt>
      <trkpt lat="42.57873" lon="2.01214">
        <ele>2169.3522949</ele>
        <time>2013-01-27T10:59:19Z</time>
      </trkpt>
      <trkpt lat="42.57878" lon="2.01213">
        <ele>2170.3134766</ele>
        <time>2013-01-27T10:59:25Z</time>
      </trkpt>
      <trkpt lat="42.57883" lon="2.01212">
        <ele>2170.7941895</ele>
        <time>2013-01-27T10:59:32Z</time>
      </trkpt>
      <trkpt lat="42.57889" lon="2.0121">
        <ele>2172.2363281</ele>
        <time>2013-01-27T10:59:39Z</time>
      </trkpt>
      <trkpt lat="42.57895" lon="2.01208">
        <ele>2171.2746582</ele>
        <time>2013-01-27T10:59:48Z</time>
      </trkpt>
      <trkpt lat="42.579" lon="2.01207">
        <ele>2171.7553711</ele>
        <time>2013-01-27T10:59:54Z</time>
      </trkpt>
      <trkpt lat="42.57903" lon="2.01207">
        <ele>2171.7553711</ele>
        <time>2013-01-27T11:00:00Z</time>
      </trkpt>
      <trkpt lat="42.57908" lon="2.01207">
        <ele>2174.1589355</ele>
        <time>2013-01-27T11:00:08Z</time>
      </trkpt>
      <trkpt lat="42.57914" lon="2.01208">
        <ele>2175.1201172</ele>
        <time>2013-01-27T11:00:16Z</time>
      </trkpt>
      <trkpt lat="42.57918" lon="2.01208">
        <ele>2176.081543</ele>
        <time>2013-01-27T11:00:22Z</time>
      </trkpt>
      <trkpt lat="42.57925" lon="2.01207">
        <ele>2172.717041</ele>
        <time>2013-01-27T11:00:30Z</time>
      </trkpt>
      <trkpt lat="42.5793" lon="2.01206">
        <ele>2174.1589355</ele>
        <time>2013-01-27T11:00:36Z</time>
      </trkpt>
      <trkpt lat="42.57934" lon="2.01204">
        <ele>2171.7553711</ele>
        <time>2013-01-27T11:00:41Z</time>
      </trkpt>
      <trkpt lat="42.57939" lon="2.01204">
        <ele>2171.7553711</ele>
        <time>2013-01-27T11:00:47Z</time>
      </trkpt>
      <trkpt lat="42.57942" lon="2.01203">
        <ele>2172.2363281</ele>
        <time>2013-01-27T11:00:53Z</time>
      </trkpt>
      <trkpt lat="42.57947" lon="2.01203">
        <ele>2170.7941895</ele>
        <time>2013-01-27T11:00:59Z</time>
      </trkpt>
      <trkpt lat="42.57954" lon="2.01205">
        <ele>2167.9101563</ele>
        <time>2013-01-27T11:01:04Z</time>
      </trkpt>
      <trkpt lat="42.57961" lon="2.01204">
        <ele>2167.4294434</ele>
        <time>2013-01-27T11:01:11Z</time>
      </trkpt>
      <trkpt lat="42.57963" lon="2.01204">
        <ele>2167.4294434</ele>
        <time>2013-01-27T11:01:13Z</time>
      </trkpt>
      <trkpt lat="42.5797" lon="2.01202">
        <ele>2168.871582</ele>
        <time>2013-01-27T11:01:21Z</time>
      </trkpt>
      <trkpt lat="42.57975" lon="2.01198">
        <ele>2170.7941895</ele>
        <time>2013-01-27T11:01:29Z</time>
      </trkpt>
      <trkpt lat="42.57978" lon="2.01196">
        <ele>2170.3134766</ele>
        <time>2013-01-27T11:01:35Z</time>
      </trkpt>
      <trkpt lat="42.57982" lon="2.01195">
        <ele>2168.871582</ele>
        <time>2013-01-27T11:01:42Z</time>
      </trkpt>
      <trkpt lat="42.57988" lon="2.01194">
        <ele>2166.9489746</ele>
        <time>2013-01-27T11:01:50Z</time>
      </trkpt>
      <trkpt lat="42.57994" lon="2.01194">
        <ele>2167.9101563</ele>
        <time>2013-01-27T11:01:58Z</time>
      </trkpt>
      <trkpt lat="42.57998" lon="2.01192">
        <ele>2167.9101563</ele>
        <time>2013-01-27T11:02:05Z</time>
      </trkpt>
      <trkpt lat="42.58002" lon="2.01188">
        <ele>2168.871582</ele>
        <time>2013-01-27T11:02:11Z</time>
      </trkpt>
      <trkpt lat="42.58007" lon="2.01189">
        <ele>2171.7553711</ele>
        <time>2013-01-27T11:02:26Z</time>
      </trkpt>
      <trkpt lat="42.58013" lon="2.01188">
        <ele>2174.1589355</ele>
        <time>2013-01-27T11:02:35Z</time>
      </trkpt>
      <trkpt lat="42.58015" lon="2.01186">
        <ele>2173.6782227</ele>
        <time>2013-01-27T11:02:42Z</time>
      </trkpt>
      <trkpt lat="42.58018" lon="2.01185">
        <ele>2172.717041</ele>
        <time>2013-01-27T11:02:49Z</time>
      </trkpt>
      <trkpt lat="42.5802" lon="2.01183">
        <ele>2174.1589355</ele>
        <time>2013-01-27T11:02:54Z</time>
      </trkpt>
      <trkpt lat="42.58023" lon="2.01178">
        <ele>2174.6396484</ele>
        <time>2013-01-27T11:03:01Z</time>
      </trkpt>
      <trkpt lat="42.58037" lon="2.01175">
        <ele>2172.717041</ele>
        <time>2013-01-27T11:03:19Z</time>
      </trkpt>
      <trkpt lat="42.58043" lon="2.01176">
        <ele>2169.8327637</ele>
        <time>2013-01-27T11:03:25Z</time>
      </trkpt>
      <trkpt lat="42.58046" lon="2.01178">
        <ele>2167.4294434</ele>
        <time>2013-01-27T11:03:31Z</time>
      </trkpt>
      <trkpt lat="42.58053" lon="2.01181">
        <ele>2167.9101563</ele>
        <time>2013-01-27T11:03:39Z</time>
      </trkpt>
      <trkpt lat="42.58059" lon="2.01184">
        <ele>2168.871582</ele>
        <time>2013-01-27T11:03:47Z</time>
      </trkpt>
      <trkpt lat="42.58065" lon="2.01185">
        <ele>2170.3134766</ele>
        <time>2013-01-27T11:03:54Z</time>
      </trkpt>
      <trkpt lat="42.58069" lon="2.01186">
        <ele>2171.2746582</ele>
        <time>2013-01-27T11:04:00Z</time>
      </trkpt>
      <trkpt lat="42.58076" lon="2.01187">
        <ele>2170.3134766</ele>
        <time>2013-01-27T11:04:09Z</time>
      </trkpt>
      <trkpt lat="42.5808" lon="2.01186">
        <ele>2169.3522949</ele>
        <time>2013-01-27T11:04:14Z</time>
      </trkpt>
      <trkpt lat="42.58085" lon="2.01184">
        <ele>2169.8327637</ele>
        <time>2013-01-27T11:04:21Z</time>
      </trkpt>
      <trkpt lat="42.58088" lon="2.01182">
        <ele>2169.8327637</ele>
        <time>2013-01-27T11:04:27Z</time>
      </trkpt>
      <trkpt lat="42.58094" lon="2.01182">
        <ele>2169.3522949</ele>
        <time>2013-01-27T11:04:33Z</time>
      </trkpt>
      <trkpt lat="42.581" lon="2.01184">
        <ele>2167.9101563</ele>
        <time>2013-01-27T11:04:40Z</time>
      </trkpt>
      <trkpt lat="42.58105" lon="2.01187">
        <ele>2167.4294434</ele>
        <time>2013-01-27T11:04:46Z</time>
      </trkpt>
      <trkpt lat="42.58108" lon="2.01188">
        <ele>2166.4682617</ele>
        <time>2013-01-27T11:04:52Z</time>
      </trkpt>
      <trkpt lat="42.58114" lon="2.01187">
        <ele>2166.9489746</ele>
        <time>2013-01-27T11:04:59Z</time>
      </trkpt>
      <trkpt lat="42.58123" lon="2.01185">
        <ele>2168.3908691</ele>
        <time>2013-01-27T11:05:07Z</time>
      </trkpt>
      <trkpt lat="42.58124" lon="2.01184">
        <ele>2168.3908691</ele>
        <time>2013-01-27T11:05:08Z</time>
      </trkpt>
      <trkpt lat="42.58127" lon="2.01182">
        <ele>2169.3522949</ele>
        <time>2013-01-27T11:05:16Z</time>
      </trkpt>
      <trkpt lat="42.58129" lon="2.01181">
        <ele>2170.3134766</ele>
        <time>2013-01-27T11:05:21Z</time>
      </trkpt>
      <trkpt lat="42.58132" lon="2.01178">
        <ele>2169.8327637</ele>
        <time>2013-01-27T11:05:28Z</time>
      </trkpt>
      <trkpt lat="42.58136" lon="2.01177">
        <ele>2171.2746582</ele>
        <time>2013-01-27T11:05:41Z</time>
      </trkpt>
      <trkpt lat="42.58138" lon="2.01175">
        <ele>2172.717041</ele>
        <time>2013-01-27T11:05:48Z</time>
      </trkpt>
      <trkpt lat="42.58142" lon="2.01174">
        <ele>2172.717041</ele>
        <time>2013-01-27T11:05:56Z</time>
      </trkpt>
      <trkpt lat="42.58145" lon="2.01174">
        <ele>2173.6782227</ele>
        <time>2013-01-27T11:06:04Z</time>
      </trkpt>
      <trkpt lat="42.58151" lon="2.01176">
        <ele>2172.717041</ele>
        <time>2013-01-27T11:06:12Z</time>
      </trkpt>
      <trkpt lat="42.58156" lon="2.01177">
        <ele>2173.1977539</ele>
        <time>2013-01-27T11:06:19Z</time>
      </trkpt>
      <trkpt lat="42.5816" lon="2.01177">
        <ele>2173.6782227</ele>
        <time>2013-01-27T11:06:27Z</time>
      </trkpt>
      <trkpt lat="42.58165" lon="2.01176">
        <ele>2174.6396484</ele>
        <time>2013-01-27T11:06:35Z</time>
      </trkpt>
      <trkpt lat="42.58171" lon="2.01175">
        <ele>2175.1201172</ele>
        <time>2013-01-27T11:06:43Z</time>
      </trkpt>
      <trkpt lat="42.58174" lon="2.01175">
        <ele>2175.6008301</ele>
        <time>2013-01-27T11:06:50Z</time>
      </trkpt>
      <trkpt lat="42.58178" lon="2.01173">
        <ele>2175.6008301</ele>
        <time>2013-01-27T11:06:56Z</time>
      </trkpt>
      <trkpt lat="42.5818" lon="2.01173">
        <ele>2176.081543</ele>
        <time>2013-01-27T11:07:04Z</time>
      </trkpt>
      <trkpt lat="42.58183" lon="2.01173">
        <ele>2176.5622559</ele>
        <time>2013-01-27T11:07:12Z</time>
      </trkpt>
      <trkpt lat="42.58185" lon="2.01174">
        <ele>2176.5622559</ele>
        <time>2013-01-27T11:07:25Z</time>
      </trkpt>
      <trkpt lat="42.58188" lon="2.01174">
        <ele>2176.081543</ele>
        <time>2013-01-27T11:07:33Z</time>
      </trkpt>
      <trkpt lat="42.58194" lon="2.01175">
        <ele>2175.6008301</ele>
        <time>2013-01-27T11:07:42Z</time>
      </trkpt>
      <trkpt lat="42.58199" lon="2.01174">
        <ele>2176.5622559</ele>
        <time>2013-01-27T11:07:51Z</time>
      </trkpt>
      <trkpt lat="42.58203" lon="2.01175">
        <ele>2176.081543</ele>
        <time>2013-01-27T11:07:58Z</time>
      </trkpt>
      <trkpt lat="42.58207" lon="2.01173">
        <ele>2176.5622559</ele>
        <time>2013-01-27T11:08:05Z</time>
      </trkpt>
      <trkpt lat="42.58211" lon="2.0117">
        <ele>2176.081543</ele>
        <time>2013-01-27T11:08:11Z</time>
      </trkpt>
      <trkpt lat="42.58214" lon="2.01166">
        <ele>2175.6008301</ele>
        <time>2013-01-27T11:08:17Z</time>
      </trkpt>
      <trkpt lat="42.58213" lon="2.01161">
        <ele>2174.1589355</ele>
        <time>2013-01-27T11:08:25Z</time>
      </trkpt>
      <trkpt lat="42.58211" lon="2.01156">
        <ele>2168.871582</ele>
        <time>2013-01-27T11:08:33Z</time>
      </trkpt>
      <trkpt lat="42.58212" lon="2.0115">
        <ele>2168.3908691</ele>
        <time>2013-01-27T11:08:41Z</time>
      </trkpt>
      <trkpt lat="42.58214" lon="2.01148">
        <ele>2169.3522949</ele>
        <time>2013-01-27T11:08:49Z</time>
      </trkpt>
      <trkpt lat="42.58216" lon="2.01141">
        <ele>2171.2746582</ele>
        <time>2013-01-27T11:08:56Z</time>
      </trkpt>
      <trkpt lat="42.58215" lon="2.01132">
        <ele>2170.3134766</ele>
        <time>2013-01-27T11:09:04Z</time>
      </trkpt>
      <trkpt lat="42.58218" lon="2.01126">
        <ele>2170.3134766</ele>
        <time>2013-01-27T11:09:11Z</time>
      </trkpt>
      <trkpt lat="42.58218" lon="2.01118">
        <ele>2171.2746582</ele>
        <time>2013-01-27T11:09:19Z</time>
      </trkpt>
      <trkpt lat="42.58216" lon="2.01112">
        <ele>2169.8327637</ele>
        <time>2013-01-27T11:09:26Z</time>
      </trkpt>
      <trkpt lat="42.58213" lon="2.01106">
        <ele>2171.2746582</ele>
        <time>2013-01-27T11:09:32Z</time>
      </trkpt>
      <trkpt lat="42.58211" lon="2.01102">
        <ele>2170.3134766</ele>
        <time>2013-01-27T11:09:38Z</time>
      </trkpt>
      <trkpt lat="42.58208" lon="2.01096">
        <ele>2167.4294434</ele>
        <time>2013-01-27T11:09:46Z</time>
      </trkpt>
      <trkpt lat="42.58208" lon="2.01088">
        <ele>2164.5456543</ele>
        <time>2013-01-27T11:09:54Z</time>
      </trkpt>
      <trkpt lat="42.58211" lon="2.01084">
        <ele>2165.9875488</ele>
        <time>2013-01-27T11:10:00Z</time>
      </trkpt>
      <trkpt lat="42.58217" lon="2.01082">
        <ele>2163.5842285</ele>
        <time>2013-01-27T11:10:07Z</time>
      </trkpt>
      <trkpt lat="42.58223" lon="2.01078">
        <ele>2162.6230469</ele>
        <time>2013-01-27T11:10:15Z</time>
      </trkpt>
      <trkpt lat="42.58225" lon="2.01074">
        <ele>2162.142334</ele>
        <time>2013-01-27T11:10:22Z</time>
      </trkpt>
      <trkpt lat="42.58224" lon="2.01068">
        <ele>2162.142334</ele>
        <time>2013-01-27T11:10:29Z</time>
      </trkpt>
      <trkpt lat="42.58222" lon="2.01064">
        <ele>2165.0263672</ele>
        <time>2013-01-27T11:10:37Z</time>
      </trkpt>
      <trkpt lat="42.58221" lon="2.01063">
        <ele>2165.9875488</ele>
        <time>2013-01-27T11:10:38Z</time>
      </trkpt>
      <trkpt lat="42.58217" lon="2.01058">
        <ele>2168.871582</ele>
        <time>2013-01-27T11:10:48Z</time>
      </trkpt>
      <trkpt lat="42.58214" lon="2.01058">
        <ele>2168.871582</ele>
        <time>2013-01-27T11:10:54Z</time>
      </trkpt>
      <trkpt lat="42.58213" lon="2.0106">
        <ele>2166.9489746</ele>
        <time>2013-01-27T11:11:04Z</time>
      </trkpt>
      <trkpt lat="42.58208" lon="2.01061">
        <ele>2161.1811523</ele>
        <time>2013-01-27T11:11:24Z</time>
      </trkpt>
      <trkpt lat="42.5821" lon="2.01062">
        <ele>2161.6618652</ele>
        <time>2013-01-27T11:11:31Z</time>
      </trkpt>
      <trkpt lat="42.58216" lon="2.01063">
        <ele>2161.6618652</ele>
        <time>2013-01-27T11:11:43Z</time>
      </trkpt>
      <trkpt lat="42.58218" lon="2.01068">
        <ele>2162.6230469</ele>
        <time>2013-01-27T11:11:59Z</time>
      </trkpt>
      <trkpt lat="42.58221" lon="2.01069">
        <ele>2163.5842285</ele>
        <time>2013-01-27T11:12:06Z</time>
      </trkpt>
      <trkpt lat="42.58223" lon="2.01071">
        <ele>2162.6230469</ele>
        <time>2013-01-27T11:12:13Z</time>
      </trkpt>
      <trkpt lat="42.58222" lon="2.01066">
        <ele>2160.7004395</ele>
        <time>2013-01-27T11:12:20Z</time>
      </trkpt>
      <trkpt lat="42.58218" lon="2.01063">
        <ele>2160.7004395</ele>
        <time>2013-01-27T11:12:26Z</time>
      </trkpt>
      <trkpt lat="42.58217" lon="2.01064">
        <ele>2160.7004395</ele>
        <time>2013-01-27T11:12:31Z</time>
      </trkpt>
      <trkpt lat="42.58217" lon="2.01053">
        <ele>2163.5842285</ele>
        <time>2013-01-27T11:12:55Z</time>
      </trkpt>
      <trkpt lat="42.58217" lon="2.01053">
        <ele>2164.0649414</ele>
        <time>2013-01-27T11:12:56Z</time>
      </trkpt>
      <trkpt lat="42.58217" lon="2.01051">
        <ele>2165.9875488</ele>
        <time>2013-01-27T11:13:09Z</time>
      </trkpt>
      <trkpt lat="42.58219" lon="2.01054">
        <ele>2167.4294434</ele>
        <time>2013-01-27T11:13:16Z</time>
      </trkpt>
      <trkpt lat="42.58223" lon="2.01061">
        <ele>2165.9875488</ele>
        <time>2013-01-27T11:13:24Z</time>
      </trkpt>
      <trkpt lat="42.58226" lon="2.01066">
        <ele>2162.142334</ele>
        <time>2013-01-27T11:13:32Z</time>
      </trkpt>
      <trkpt lat="42.58226" lon="2.01072">
        <ele>2160.7004395</ele>
        <time>2013-01-27T11:13:41Z</time>
      </trkpt>
      <trkpt lat="42.58227" lon="2.01078">
        <ele>2162.142334</ele>
        <time>2013-01-27T11:13:48Z</time>
      </trkpt>
      <trkpt lat="42.58229" lon="2.0108">
        <ele>2162.6230469</ele>
        <time>2013-01-27T11:13:55Z</time>
      </trkpt>
      <trkpt lat="42.58229" lon="2.01082">
        <ele>2162.142334</ele>
        <time>2013-01-27T11:14:05Z</time>
      </trkpt>
      <trkpt lat="42.58232" lon="2.01085">
        <ele>2164.5456543</ele>
        <time>2013-01-27T11:14:14Z</time>
      </trkpt>
      <trkpt lat="42.58233" lon="2.01083">
        <ele>2165.9875488</ele>
        <time>2013-01-27T11:14:21Z</time>
      </trkpt>
      <trkpt lat="42.58236" lon="2.01081">
        <ele>2167.4294434</ele>
        <time>2013-01-27T11:14:29Z</time>
      </trkpt>
      <trkpt lat="42.58239" lon="2.01083">
        <ele>2166.9489746</ele>
        <time>2013-01-27T11:14:37Z</time>
      </trkpt>
      <trkpt lat="42.58241" lon="2.01085">
        <ele>2164.0649414</ele>
        <time>2013-01-27T11:14:43Z</time>
      </trkpt>
      <trkpt lat="42.5824" lon="2.01086">
        <ele>2165.0263672</ele>
        <time>2013-01-27T11:14:51Z</time>
      </trkpt>
      <trkpt lat="42.58239" lon="2.01084">
        <ele>2164.0649414</ele>
        <time>2013-01-27T11:14:59Z</time>
      </trkpt>
      <trkpt lat="42.58239" lon="2.01081">
        <ele>2162.6230469</ele>
        <time>2013-01-27T11:15:08Z</time>
      </trkpt>
      <trkpt lat="42.58238" lon="2.01079">
        <ele>2161.6618652</ele>
        <time>2013-01-27T11:15:11Z</time>
      </trkpt>
      <trkpt lat="42.58236" lon="2.01073">
        <ele>2157.3359375</ele>
        <time>2013-01-27T11:15:20Z</time>
      </trkpt>
      <trkpt lat="42.58235" lon="2.01069">
        <ele>2154.932373</ele>
        <time>2013-01-27T11:15:30Z</time>
      </trkpt>
      <trkpt lat="42.58233" lon="2.01064">
        <ele>2150.1259766</ele>
        <time>2013-01-27T11:15:38Z</time>
      </trkpt>
      <trkpt lat="42.5823" lon="2.01062">
        <ele>2145.8000488</ele>
        <time>2013-01-27T11:15:46Z</time>
      </trkpt>
      <trkpt lat="42.58225" lon="2.01058">
        <ele>2150.6064453</ele>
        <time>2013-01-27T11:16:03Z</time>
      </trkpt>
      <trkpt lat="42.58222" lon="2.01055">
        <ele>2153.9711914</ele>
        <time>2013-01-27T11:16:10Z</time>
      </trkpt>
      <trkpt lat="42.58223" lon="2.01051">
        <ele>2155.8935547</ele>
        <time>2013-01-27T11:16:16Z</time>
      </trkpt>
      <trkpt lat="42.58225" lon="2.01047">
        <ele>2157.3359375</ele>
        <time>2013-01-27T11:16:23Z</time>
      </trkpt>
      <trkpt lat="42.58229" lon="2.01044">
        <ele>2157.8166504</ele>
        <time>2013-01-27T11:16:30Z</time>
      </trkpt>
      <trkpt lat="42.58232" lon="2.01043">
        <ele>2156.8552246</ele>
        <time>2013-01-27T11:16:35Z</time>
      </trkpt>
      <trkpt lat="42.58238" lon="2.01043">
        <ele>2154.4516602</ele>
        <time>2013-01-27T11:16:43Z</time>
      </trkpt>
      <trkpt lat="42.58243" lon="2.01042">
        <ele>2154.932373</ele>
        <time>2013-01-27T11:16:51Z</time>
      </trkpt>
      <trkpt lat="42.58246" lon="2.01041">
        <ele>2154.4516602</ele>
        <time>2013-01-27T11:17:01Z</time>
      </trkpt>
      <trkpt lat="42.58247" lon="2.01039">
        <ele>2154.932373</ele>
        <time>2013-01-27T11:17:08Z</time>
      </trkpt>
      <trkpt lat="42.58247" lon="2.01036">
        <ele>2155.4130859</ele>
        <time>2013-01-27T11:17:16Z</time>
      </trkpt>
      <trkpt lat="42.5825" lon="2.01029">
        <ele>2156.8552246</ele>
        <time>2013-01-27T11:17:25Z</time>
      </trkpt>
      <trkpt lat="42.58251" lon="2.01027">
        <ele>2156.3745117</ele>
        <time>2013-01-27T11:17:33Z</time>
      </trkpt>
      <trkpt lat="42.58252" lon="2.01024">
        <ele>2155.4130859</ele>
        <time>2013-01-27T11:17:47Z</time>
      </trkpt>
      <trkpt lat="42.58254" lon="2.01021">
        <ele>2155.4130859</ele>
        <time>2013-01-27T11:17:55Z</time>
      </trkpt>
      <trkpt lat="42.58256" lon="2.0102">
        <ele>2154.932373</ele>
        <time>2013-01-27T11:18:01Z</time>
      </trkpt>
      <trkpt lat="42.58261" lon="2.01022">
        <ele>2154.4516602</ele>
        <time>2013-01-27T11:18:08Z</time>
      </trkpt>
      <trkpt lat="42.58266" lon="2.01026">
        <ele>2153.0097656</ele>
        <time>2013-01-27T11:18:17Z</time>
      </trkpt>
      <trkpt lat="42.58271" lon="2.01031">
        <ele>2152.5290527</ele>
        <time>2013-01-27T11:18:25Z</time>
      </trkpt>
      <trkpt lat="42.58277" lon="2.01038">
        <ele>2152.0483398</ele>
        <time>2013-01-27T11:18:34Z</time>
      </trkpt>
      <trkpt lat="42.58282" lon="2.01042">
        <ele>2151.5678711</ele>
        <time>2013-01-27T11:18:42Z</time>
      </trkpt>
      <trkpt lat="42.58288" lon="2.01046">
        <ele>2151.5678711</ele>
        <time>2013-01-27T11:18:51Z</time>
      </trkpt>
      <trkpt lat="42.58294" lon="2.01049">
        <ele>2151.0871582</ele>
        <time>2013-01-27T11:19:00Z</time>
      </trkpt>
      <trkpt lat="42.583" lon="2.01053">
        <ele>2152.0483398</ele>
        <time>2013-01-27T11:19:10Z</time>
      </trkpt>
      <trkpt lat="42.58306" lon="2.01055">
        <ele>2152.5290527</ele>
        <time>2013-01-27T11:19:18Z</time>
      </trkpt>
      <trkpt lat="42.58311" lon="2.01055">
        <ele>2152.0483398</ele>
        <time>2013-01-27T11:19:25Z</time>
      </trkpt>
      <trkpt lat="42.58316" lon="2.01055">
        <ele>2152.0483398</ele>
        <time>2013-01-27T11:19:31Z</time>
      </trkpt>
      <trkpt lat="42.58322" lon="2.01055">
        <ele>2152.0483398</ele>
        <time>2013-01-27T11:19:39Z</time>
      </trkpt>
      <trkpt lat="42.5833" lon="2.01054">
        <ele>2152.5290527</ele>
        <time>2013-01-27T11:19:46Z</time>
      </trkpt>
      <trkpt lat="42.58336" lon="2.0105">
        <ele>2152.0483398</ele>
        <time>2013-01-27T11:19:55Z</time>
      </trkpt>
      <trkpt lat="42.5834" lon="2.01046">
        <ele>2151.5678711</ele>
        <time>2013-01-27T11:20:01Z</time>
      </trkpt>
      <trkpt lat="42.58344" lon="2.01037">
        <ele>2150.1259766</ele>
        <time>2013-01-27T11:20:10Z</time>
      </trkpt>
      <trkpt lat="42.58348" lon="2.0103">
        <ele>2149.6452637</ele>
        <time>2013-01-27T11:20:17Z</time>
      </trkpt>
      <trkpt lat="42.58349" lon="2.01026">
        <ele>2149.6452637</ele>
        <time>2013-01-27T11:20:24Z</time>
      </trkpt>
      <trkpt lat="42.5835" lon="2.01022">
        <ele>2148.6838379</ele>
        <time>2013-01-27T11:20:33Z</time>
      </trkpt>
      <trkpt lat="42.58353" lon="2.01015">
        <ele>2149.6452637</ele>
        <time>2013-01-27T11:20:40Z</time>
      </trkpt>
      <trkpt lat="42.58357" lon="2.01007">
        <ele>2149.6452637</ele>
        <time>2013-01-27T11:20:50Z</time>
      </trkpt>
      <trkpt lat="42.58359" lon="2.01">
        <ele>2149.6452637</ele>
        <time>2013-01-27T11:20:57Z</time>
      </trkpt>
      <trkpt lat="42.58361" lon="2.00993">
        <ele>2149.1645508</ele>
        <time>2013-01-27T11:21:04Z</time>
      </trkpt>
      <trkpt lat="42.58363" lon="2.00986">
        <ele>2148.6838379</ele>
        <time>2013-01-27T11:21:12Z</time>
      </trkpt>
      <trkpt lat="42.58363" lon="2.00977">
        <ele>2148.6838379</ele>
        <time>2013-01-27T11:21:20Z</time>
      </trkpt>
      <trkpt lat="42.58362" lon="2.0097">
        <ele>2148.6838379</ele>
        <time>2013-01-27T11:21:28Z</time>
      </trkpt>
      <trkpt lat="42.58361" lon="2.00961">
        <ele>2148.6838379</ele>
        <time>2013-01-27T11:21:37Z</time>
      </trkpt>
      <trkpt lat="42.5836" lon="2.00955">
        <ele>2147.7226563</ele>
        <time>2013-01-27T11:21:43Z</time>
      </trkpt>
      <trkpt lat="42.58361" lon="2.00947">
        <ele>2145.8000488</ele>
        <time>2013-01-27T11:21:52Z</time>
      </trkpt>
      <trkpt lat="42.58361" lon="2.00938">
        <ele>2145.3193359</ele>
        <time>2013-01-27T11:22:01Z</time>
      </trkpt>
      <trkpt lat="42.58361" lon="2.00929">
        <ele>2144.3579102</ele>
        <time>2013-01-27T11:22:10Z</time>
      </trkpt>
      <trkpt lat="42.5836" lon="2.0092">
        <ele>2144.838623</ele>
        <time>2013-01-27T11:22:19Z</time>
      </trkpt>
      <trkpt lat="42.5836" lon="2.00914">
        <ele>2144.838623</ele>
        <time>2013-01-27T11:22:27Z</time>
      </trkpt>
      <trkpt lat="42.58359" lon="2.00906">
        <ele>2142.9160156</ele>
        <time>2013-01-27T11:22:35Z</time>
      </trkpt>
      <trkpt lat="42.5836" lon="2.009">
        <ele>2141.954834</ele>
        <time>2013-01-27T11:22:43Z</time>
      </trkpt>
      <trkpt lat="42.5836" lon="2.00894">
        <ele>2140.5126953</ele>
        <time>2013-01-27T11:22:50Z</time>
      </trkpt>
      <trkpt lat="42.5836" lon="2.00887">
        <ele>2140.0322266</ele>
        <time>2013-01-27T11:22:58Z</time>
      </trkpt>
      <trkpt lat="42.58361" lon="2.00884">
        <ele>2137.6286621</ele>
        <time>2013-01-27T11:23:07Z</time>
      </trkpt>
      <trkpt lat="42.5836" lon="2.00879">
        <ele>2137.1479492</ele>
        <time>2013-01-27T11:23:15Z</time>
      </trkpt>
      <trkpt lat="42.58359" lon="2.00877">
        <ele>2136.6672363</ele>
        <time>2013-01-27T11:23:21Z</time>
      </trkpt>
      <trkpt lat="42.58358" lon="2.00876">
        <ele>2136.6672363</ele>
        <time>2013-01-27T11:23:27Z</time>
      </trkpt>
      <trkpt lat="42.58359" lon="2.00877">
        <ele>2136.1867676</ele>
        <time>2013-01-27T11:23:47Z</time>
      </trkpt>
      <trkpt lat="42.58358" lon="2.00872">
        <ele>2135.2253418</ele>
        <time>2013-01-27T11:24:03Z</time>
      </trkpt>
      <trkpt lat="42.58355" lon="2.00866">
        <ele>2133.3027344</ele>
        <time>2013-01-27T11:24:09Z</time>
      </trkpt>
      <trkpt lat="42.58354" lon="2.00858">
        <ele>2132.3415527</ele>
        <time>2013-01-27T11:24:17Z</time>
      </trkpt>
      <trkpt lat="42.58353" lon="2.00853">
        <ele>2131.8608398</ele>
        <time>2013-01-27T11:24:24Z</time>
      </trkpt>
      <trkpt lat="42.58351" lon="2.00849">
        <ele>2130.8996582</ele>
        <time>2013-01-27T11:24:33Z</time>
      </trkpt>
      <trkpt lat="42.58349" lon="2.00843">
        <ele>2127.5349121</ele>
        <time>2013-01-27T11:24:42Z</time>
      </trkpt>
      <trkpt lat="42.58346" lon="2.00835">
        <ele>2126.0930176</ele>
        <time>2013-01-27T11:24:51Z</time>
      </trkpt>
      <trkpt lat="42.58344" lon="2.0083">
        <ele>2124.1704102</ele>
        <time>2013-01-27T11:24:59Z</time>
      </trkpt>
      <trkpt lat="42.58342" lon="2.00825">
        <ele>2122.7282715</ele>
        <time>2013-01-27T11:25:07Z</time>
      </trkpt>
      <trkpt lat="42.58341" lon="2.00821">
        <ele>2123.2089844</ele>
        <time>2013-01-27T11:25:15Z</time>
      </trkpt>
      <trkpt lat="42.58339" lon="2.00822">
        <ele>2120.8056641</ele>
        <time>2013-01-27T11:25:22Z</time>
      </trkpt>
      <trkpt lat="42.58334" lon="2.0082">
        <ele>2117.9216309</ele>
        <time>2013-01-27T11:25:30Z</time>
      </trkpt>
      <trkpt lat="42.58329" lon="2.00815">
        <ele>2115.0378418</ele>
        <time>2013-01-27T11:25:39Z</time>
      </trkpt>
      <trkpt lat="42.58328" lon="2.00807">
        <ele>2113.5957031</ele>
        <time>2013-01-27T11:25:47Z</time>
      </trkpt>
      <trkpt lat="42.58326" lon="2.00798">
        <ele>2112.6345215</ele>
        <time>2013-01-27T11:25:55Z</time>
      </trkpt>
      <trkpt lat="42.58324" lon="2.0079">
        <ele>2111.6733398</ele>
        <time>2013-01-27T11:26:03Z</time>
      </trkpt>
      <trkpt lat="42.58322" lon="2.00781">
        <ele>2109.7504883</ele>
        <time>2013-01-27T11:26:12Z</time>
      </trkpt>
      <trkpt lat="42.58322" lon="2.00777">
        <ele>2110.2312012</ele>
        <time>2013-01-27T11:26:19Z</time>
      </trkpt>
      <trkpt lat="42.58321" lon="2.0077">
        <ele>2108.3085938</ele>
        <time>2013-01-27T11:26:25Z</time>
      </trkpt>
      <trkpt lat="42.5832" lon="2.00762">
        <ele>2106.8664551</ele>
        <time>2013-01-27T11:26:31Z</time>
      </trkpt>
      <trkpt lat="42.58319" lon="2.00759">
        <ele>2105.4245605</ele>
        <time>2013-01-27T11:26:33Z</time>
      </trkpt>
      <trkpt lat="42.58317" lon="2.00749">
        <ele>2103.5019531</ele>
        <time>2013-01-27T11:26:41Z</time>
      </trkpt>
      <trkpt lat="42.5831" lon="2.00738">
        <ele>2101.0986328</ele>
        <time>2013-01-27T11:26:49Z</time>
      </trkpt>
      <trkpt lat="42.58308" lon="2.00736">
        <ele>2101.0986328</ele>
        <time>2013-01-27T11:26:56Z</time>
      </trkpt>
      <trkpt lat="42.58306" lon="2.00733">
        <ele>2100.1374512</ele>
        <time>2013-01-27T11:27:01Z</time>
      </trkpt>
      <trkpt lat="42.58305" lon="2.00726">
        <ele>2099.1760254</ele>
        <time>2013-01-27T11:27:07Z</time>
      </trkpt>
      <trkpt lat="42.58307" lon="2.00719">
        <ele>2098.2145996</ele>
        <time>2013-01-27T11:27:15Z</time>
      </trkpt>
      <trkpt lat="42.58306" lon="2.00713">
        <ele>2097.253418</ele>
        <time>2013-01-27T11:27:22Z</time>
      </trkpt>
      <trkpt lat="42.5831" lon="2.0071">
        <ele>2093.4082031</ele>
        <time>2013-01-27T11:27:30Z</time>
      </trkpt>
      <trkpt lat="42.58309" lon="2.00703">
        <ele>2093.4082031</ele>
        <time>2013-01-27T11:27:39Z</time>
      </trkpt>
      <trkpt lat="42.58307" lon="2.00697">
        <ele>2090.5239258</ele>
        <time>2013-01-27T11:27:53Z</time>
      </trkpt>
      <trkpt lat="42.58306" lon="2.00691">
        <ele>2090.043457</ele>
        <time>2013-01-27T11:28:00Z</time>
      </trkpt>
      <trkpt lat="42.58305" lon="2.00686">
        <ele>2088.6015625</ele>
        <time>2013-01-27T11:28:05Z</time>
      </trkpt>
      <trkpt lat="42.58302" lon="2.00677">
        <ele>2086.6787109</ele>
        <time>2013-01-27T11:28:14Z</time>
      </trkpt>
      <trkpt lat="42.58302" lon="2.0067">
        <ele>2086.1982422</ele>
        <time>2013-01-27T11:28:21Z</time>
      </trkpt>
      <trkpt lat="42.58301" lon="2.00664">
        <ele>2083.7949219</ele>
        <time>2013-01-27T11:28:28Z</time>
      </trkpt>
      <trkpt lat="42.58302" lon="2.00659">
        <ele>2083.7949219</ele>
        <time>2013-01-27T11:28:36Z</time>
      </trkpt>
      <trkpt lat="42.58304" lon="2.00654">
        <ele>2081.3916016</ele>
        <time>2013-01-27T11:28:45Z</time>
      </trkpt>
      <trkpt lat="42.58305" lon="2.00652">
        <ele>2079.949707</ele>
        <time>2013-01-27T11:28:53Z</time>
      </trkpt>
      <trkpt lat="42.58305" lon="2.00649">
        <ele>2079.949707</ele>
        <time>2013-01-27T11:29:09Z</time>
      </trkpt>
      <trkpt lat="42.58305" lon="2.00643">
        <ele>2078.0270996</ele>
        <time>2013-01-27T11:29:23Z</time>
      </trkpt>
      <trkpt lat="42.58306" lon="2.00638">
        <ele>2083.7949219</ele>
        <time>2013-01-27T11:29:31Z</time>
      </trkpt>
      <trkpt lat="42.58306" lon="2.00633">
        <ele>2082.3530273</ele>
        <time>2013-01-27T11:29:38Z</time>
      </trkpt>
      <trkpt lat="42.58305" lon="2.00629">
        <ele>2079.949707</ele>
        <time>2013-01-27T11:29:46Z</time>
      </trkpt>
      <trkpt lat="42.58302" lon="2.00623">
        <ele>2077.065918</ele>
        <time>2013-01-27T11:29:56Z</time>
      </trkpt>
      <trkpt lat="42.58299" lon="2.00615">
        <ele>2073.7009277</ele>
        <time>2013-01-27T11:30:05Z</time>
      </trkpt>
      <trkpt lat="42.583" lon="2.00608">
        <ele>2073.220459</ele>
        <time>2013-01-27T11:30:14Z</time>
      </trkpt>
      <trkpt lat="42.58301" lon="2.00603">
        <ele>2072.2590332</ele>
        <time>2013-01-27T11:30:20Z</time>
      </trkpt>
      <trkpt lat="42.58299" lon="2.00597">
        <ele>2066.010498</ele>
        <time>2013-01-27T11:30:27Z</time>
      </trkpt>
      <trkpt lat="42.58298" lon="2.00594">
        <ele>2063.126709</ele>
        <time>2013-01-27T11:30:31Z</time>
      </trkpt>
      <trkpt lat="42.58297" lon="2.00591">
        <ele>2062.1652832</ele>
        <time>2013-01-27T11:30:33Z</time>
      </trkpt>
      <trkpt lat="42.58294" lon="2.00583">
        <ele>2064.0878906</ele>
        <time>2013-01-27T11:30:39Z</time>
      </trkpt>
      <trkpt lat="42.58292" lon="2.0058">
        <ele>2065.0493164</ele>
        <time>2013-01-27T11:30:44Z</time>
      </trkpt>
      <trkpt lat="42.58291" lon="2.00578">
        <ele>2065.5300293</ele>
        <time>2013-01-27T11:30:51Z</time>
      </trkpt>
      <trkpt lat="42.58288" lon="2.00575">
        <ele>2063.6071777</ele>
        <time>2013-01-27T11:30:58Z</time>
      </trkpt>
      <trkpt lat="42.58285" lon="2.0057">
        <ele>2061.6848145</ele>
        <time>2013-01-27T11:31:06Z</time>
      </trkpt>
      <trkpt lat="42.58281" lon="2.00564">
        <ele>2060.7233887</ele>
        <time>2013-01-27T11:31:12Z</time>
      </trkpt>
      <trkpt lat="42.58277" lon="2.0056">
        <ele>2059.28125</ele>
        <time>2013-01-27T11:31:18Z</time>
      </trkpt>
      <trkpt lat="42.58273" lon="2.00558">
        <ele>2054.9553223</ele>
        <time>2013-01-27T11:31:26Z</time>
      </trkpt>
      <trkpt lat="42.5827" lon="2.00552">
        <ele>2053.0327148</ele>
        <time>2013-01-27T11:31:34Z</time>
      </trkpt>
      <trkpt lat="42.58268" lon="2.00546">
        <ele>2053.0327148</ele>
        <time>2013-01-27T11:31:42Z</time>
      </trkpt>
      <trkpt lat="42.58264" lon="2.0054">
        <ele>2052.0712891</ele>
        <time>2013-01-27T11:31:50Z</time>
      </trkpt>
      <trkpt lat="42.5826" lon="2.00532">
        <ele>2052.0712891</ele>
        <time>2013-01-27T11:31:58Z</time>
      </trkpt>
      <trkpt lat="42.58259" lon="2.00527">
        <ele>2050.6293945</ele>
        <time>2013-01-27T11:32:05Z</time>
      </trkpt>
      <trkpt lat="42.58258" lon="2.00521">
        <ele>2047.2648926</ele>
        <time>2013-01-27T11:32:13Z</time>
      </trkpt>
      <trkpt lat="42.58258" lon="2.00516">
        <ele>2044.8615723</ele>
        <time>2013-01-27T11:32:20Z</time>
      </trkpt>
      <trkpt lat="42.58255" lon="2.00512">
        <ele>2043.4194336</ele>
        <time>2013-01-27T11:32:26Z</time>
      </trkpt>
      <trkpt lat="42.58252" lon="2.00507">
        <ele>2043.4194336</ele>
        <time>2013-01-27T11:32:33Z</time>
      </trkpt>
      <trkpt lat="42.58248" lon="2.00503">
        <ele>2044.3808594</ele>
        <time>2013-01-27T11:32:41Z</time>
      </trkpt>
      <trkpt lat="42.58245" lon="2.00497">
        <ele>2043.9001465</ele>
        <time>2013-01-27T11:32:48Z</time>
      </trkpt>
      <trkpt lat="42.58241" lon="2.00492">
        <ele>2044.8615723</ele>
        <time>2013-01-27T11:32:56Z</time>
      </trkpt>
      <trkpt lat="42.58237" lon="2.00483">
        <ele>2045.822998</ele>
        <time>2013-01-27T11:33:05Z</time>
      </trkpt>
      <trkpt lat="42.58231" lon="2.00476">
        <ele>2043.9001465</ele>
        <time>2013-01-27T11:33:15Z</time>
      </trkpt>
      <trkpt lat="42.58225" lon="2.00467">
        <ele>2041.4968262</ele>
        <time>2013-01-27T11:33:26Z</time>
      </trkpt>
      <trkpt lat="42.58221" lon="2.00461">
        <ele>2040.0549316</ele>
        <time>2013-01-27T11:33:34Z</time>
      </trkpt>
      <trkpt lat="42.58218" lon="2.00455">
        <ele>2037.6516113</ele>
        <time>2013-01-27T11:33:41Z</time>
      </trkpt>
      <trkpt lat="42.58213" lon="2.00449">
        <ele>2033.8063965</ele>
        <time>2013-01-27T11:33:49Z</time>
      </trkpt>
      <trkpt lat="42.58207" lon="2.00443">
        <ele>2033.3256836</ele>
        <time>2013-01-27T11:33:57Z</time>
      </trkpt>
      <trkpt lat="42.58203" lon="2.00437">
        <ele>2033.3256836</ele>
        <time>2013-01-27T11:34:04Z</time>
      </trkpt>
      <trkpt lat="42.58198" lon="2.00429">
        <ele>2032.364502</ele>
        <time>2013-01-27T11:34:13Z</time>
      </trkpt>
      <trkpt lat="42.58195" lon="2.00425">
        <ele>2032.8449707</ele>
        <time>2013-01-27T11:34:19Z</time>
      </trkpt>
      <trkpt lat="42.58191" lon="2.00418">
        <ele>2032.8449707</ele>
        <time>2013-01-27T11:34:28Z</time>
      </trkpt>
      <trkpt lat="42.58187" lon="2.00413">
        <ele>2033.3256836</ele>
        <time>2013-01-27T11:34:35Z</time>
      </trkpt>
      <trkpt lat="42.58183" lon="2.00406">
        <ele>2033.3256836</ele>
        <time>2013-01-27T11:34:43Z</time>
      </trkpt>
      <trkpt lat="42.5818" lon="2.00399">
        <ele>2032.8449707</ele>
        <time>2013-01-27T11:34:52Z</time>
      </trkpt>
      <trkpt lat="42.58176" lon="2.00389">
        <ele>2033.3256836</ele>
        <time>2013-01-27T11:35:01Z</time>
      </trkpt>
      <trkpt lat="42.58173" lon="2.0038">
        <ele>2034.2871094</ele>
        <time>2013-01-27T11:35:11Z</time>
      </trkpt>
      <trkpt lat="42.58171" lon="2.00374">
        <ele>2033.8063965</ele>
        <time>2013-01-27T11:35:19Z</time>
      </trkpt>
      <trkpt lat="42.58168" lon="2.00367">
        <ele>2032.364502</ele>
        <time>2013-01-27T11:35:27Z</time>
      </trkpt>
      <trkpt lat="42.58165" lon="2.00359">
        <ele>2030.9226074</ele>
        <time>2013-01-27T11:35:35Z</time>
      </trkpt>
      <trkpt lat="42.58163" lon="2.00351">
        <ele>2028.9997559</ele>
        <time>2013-01-27T11:35:44Z</time>
      </trkpt>
      <trkpt lat="42.58161" lon="2.00344">
        <ele>2028.0385742</ele>
        <time>2013-01-27T11:35:52Z</time>
      </trkpt>
      <trkpt lat="42.58159" lon="2.00339">
        <ele>2027.5576172</ele>
        <time>2013-01-27T11:36:01Z</time>
      </trkpt>
      <trkpt lat="42.58157" lon="2.00333">
        <ele>2027.0771484</ele>
        <time>2013-01-27T11:36:08Z</time>
      </trkpt>
      <trkpt lat="42.58155" lon="2.00326">
        <ele>2027.0771484</ele>
        <time>2013-01-27T11:36:16Z</time>
      </trkpt>
      <trkpt lat="42.58152" lon="2.00319">
        <ele>2027.0771484</ele>
        <time>2013-01-27T11:36:24Z</time>
      </trkpt>
      <trkpt lat="42.58149" lon="2.00311">
        <ele>2026.1157227</ele>
        <time>2013-01-27T11:36:32Z</time>
      </trkpt>
      <trkpt lat="42.58145" lon="2.00305">
        <ele>2024.6738281</ele>
        <time>2013-01-27T11:36:40Z</time>
      </trkpt>
      <trkpt lat="42.58142" lon="2.00298">
        <ele>2023.7124023</ele>
        <time>2013-01-27T11:36:48Z</time>
      </trkpt>
      <trkpt lat="42.58137" lon="2.00291">
        <ele>2022.2705078</ele>
        <time>2013-01-27T11:36:58Z</time>
      </trkpt>
      <trkpt lat="42.58134" lon="2.00287">
        <ele>2021.7897949</ele>
        <time>2013-01-27T11:37:05Z</time>
      </trkpt>
      <trkpt lat="42.5813" lon="2.00283">
        <ele>2019.8671875</ele>
        <time>2013-01-27T11:37:12Z</time>
      </trkpt>
      <trkpt lat="42.58126" lon="2.00276">
        <ele>2019.3867188</ele>
        <time>2013-01-27T11:37:20Z</time>
      </trkpt>
      <trkpt lat="42.58123" lon="2.0027">
        <ele>2020.8286133</ele>
        <time>2013-01-27T11:37:27Z</time>
      </trkpt>
      <trkpt lat="42.5812" lon="2.00263">
        <ele>2021.7897949</ele>
        <time>2013-01-27T11:37:35Z</time>
      </trkpt>
      <trkpt lat="42.58118" lon="2.00258">
        <ele>2022.2705078</ele>
        <time>2013-01-27T11:37:42Z</time>
      </trkpt>
      <trkpt lat="42.58117" lon="2.00257">
        <ele>2020.8286133</ele>
        <time>2013-01-27T11:37:50Z</time>
      </trkpt>
      <trkpt lat="42.58115" lon="2.00251">
        <ele>2021.309082</ele>
        <time>2013-01-27T11:37:59Z</time>
      </trkpt>
      <trkpt lat="42.58114" lon="2.00244">
        <ele>2022.2705078</ele>
        <time>2013-01-27T11:38:08Z</time>
      </trkpt>
      <trkpt lat="42.58113" lon="2.00241">
        <ele>2022.2705078</ele>
        <time>2013-01-27T11:38:13Z</time>
      </trkpt>
      <trkpt lat="42.58113" lon="2.00235">
        <ele>2021.7897949</ele>
        <time>2013-01-27T11:38:22Z</time>
      </trkpt>
      <trkpt lat="42.58113" lon="2.00232">
        <ele>2020.8286133</ele>
        <time>2013-01-27T11:38:27Z</time>
      </trkpt>
      <trkpt lat="42.58113" lon="2.00227">
        <ele>2017.4638672</ele>
        <time>2013-01-27T11:38:34Z</time>
      </trkpt>
      <trkpt lat="42.58111" lon="2.00223">
        <ele>2012.1767578</ele>
        <time>2013-01-27T11:38:48Z</time>
      </trkpt>
      <trkpt lat="42.58109" lon="2.00222">
        <ele>2014.0993652</ele>
        <time>2013-01-27T11:38:56Z</time>
      </trkpt>
      <trkpt lat="42.58109" lon="2.00223">
        <ele>2014.5800781</ele>
        <time>2013-01-27T11:39:05Z</time>
      </trkpt>
      <trkpt lat="42.58107" lon="2.00221">
        <ele>2014.5800781</ele>
        <time>2013-01-27T11:39:18Z</time>
      </trkpt>
      <trkpt lat="42.58108" lon="2.0022">
        <ele>2016.0219727</ele>
        <time>2013-01-27T11:39:31Z</time>
      </trkpt>
      <trkpt lat="42.58107" lon="2.0022">
        <ele>2017.4638672</ele>
        <time>2013-01-27T11:39:46Z</time>
      </trkpt>
      <trkpt lat="42.58103" lon="2.00214">
        <ele>2017.4638672</ele>
        <time>2013-01-27T11:40:06Z</time>
      </trkpt>
      <trkpt lat="42.58104" lon="2.0021">
        <ele>2014.5800781</ele>
        <time>2013-01-27T11:40:51Z</time>
      </trkpt>
      <trkpt lat="42.58099" lon="2.0021">
        <ele>2019.8671875</ele>
        <time>2013-01-27T11:41:51Z</time>
      </trkpt>
      <trkpt lat="42.58094" lon="2.00206">
        <ele>2021.309082</ele>
        <time>2013-01-27T11:42:01Z</time>
      </trkpt>
      <trkpt lat="42.58092" lon="2.00205">
        <ele>2020.8286133</ele>
        <time>2013-01-27T11:42:08Z</time>
      </trkpt>
      <trkpt lat="42.58089" lon="2.00202">
        <ele>2021.309082</ele>
        <time>2013-01-27T11:42:17Z</time>
      </trkpt>
      <trkpt lat="42.58085" lon="2.00199">
        <ele>2023.2319336</ele>
        <time>2013-01-27T11:42:25Z</time>
      </trkpt>
      <trkpt lat="42.58082" lon="2.00195">
        <ele>2025.1542969</ele>
        <time>2013-01-27T11:42:33Z</time>
      </trkpt>
      <trkpt lat="42.58078" lon="2.00192">
        <ele>2025.1542969</ele>
        <time>2013-01-27T11:42:42Z</time>
      </trkpt>
      <trkpt lat="42.58074" lon="2.00189">
        <ele>2025.6350098</ele>
        <time>2013-01-27T11:42:49Z</time>
      </trkpt>
      <trkpt lat="42.58071" lon="2.00187">
        <ele>2026.1157227</ele>
        <time>2013-01-27T11:42:56Z</time>
      </trkpt>
      <trkpt lat="42.58067" lon="2.00185">
        <ele>2026.1157227</ele>
        <time>2013-01-27T11:43:03Z</time>
      </trkpt>
      <trkpt lat="42.58063" lon="2.0018">
        <ele>2026.5964355</ele>
        <time>2013-01-27T11:43:12Z</time>
      </trkpt>
      <trkpt lat="42.58061" lon="2.00177">
        <ele>2027.5576172</ele>
        <time>2013-01-27T11:43:19Z</time>
      </trkpt>
      <trkpt lat="42.58058" lon="2.00173">
        <ele>2028.0385742</ele>
        <time>2013-01-27T11:43:28Z</time>
      </trkpt>
      <trkpt lat="42.58055" lon="2.00171">
        <ele>2028.0385742</ele>
        <time>2013-01-27T11:43:37Z</time>
      </trkpt>
      <trkpt lat="42.58054" lon="2.00168">
        <ele>2027.5576172</ele>
        <time>2013-01-27T11:43:45Z</time>
      </trkpt>
      <trkpt lat="42.58052" lon="2.00163">
        <ele>2023.2319336</ele>
        <time>2013-01-27T11:44:04Z</time>
      </trkpt>
      <trkpt lat="42.58052" lon="2.00158">
        <ele>2021.7897949</ele>
        <time>2013-01-27T11:44:11Z</time>
      </trkpt>
      <trkpt lat="42.58052" lon="2.00154">
        <ele>2020.3479004</ele>
        <time>2013-01-27T11:44:18Z</time>
      </trkpt>
      <trkpt lat="42.58052" lon="2.00149">
        <ele>2020.8286133</ele>
        <time>2013-01-27T11:44:25Z</time>
      </trkpt>
      <trkpt lat="42.58052" lon="2.00143">
        <ele>2019.3867188</ele>
        <time>2013-01-27T11:44:32Z</time>
      </trkpt>
      <trkpt lat="42.58051" lon="2.00136">
        <ele>2019.8671875</ele>
        <time>2013-01-27T11:44:40Z</time>
      </trkpt>
      <trkpt lat="42.58049" lon="2.00127">
        <ele>2019.8671875</ele>
        <time>2013-01-27T11:44:49Z</time>
      </trkpt>
      <trkpt lat="42.58047" lon="2.00125">
        <ele>2019.8671875</ele>
        <time>2013-01-27T11:45:00Z</time>
      </trkpt>
      <trkpt lat="42.58046" lon="2.00122">
        <ele>2012.6574707</ele>
        <time>2013-01-27T11:45:15Z</time>
      </trkpt>
      <trkpt lat="42.58044" lon="2.00118">
        <ele>2009.2927246</ele>
        <time>2013-01-27T11:45:21Z</time>
      </trkpt>
      <trkpt lat="42.5804" lon="2.00113">
        <ele>2006.4086914</ele>
        <time>2013-01-27T11:45:29Z</time>
      </trkpt>
      <trkpt lat="42.58035" lon="2.00107">
        <ele>2004.0056152</ele>
        <time>2013-01-27T11:45:36Z</time>
      </trkpt>
      <trkpt lat="42.58031" lon="2.00101">
        <ele>2002.5634766</ele>
        <time>2013-01-27T11:45:43Z</time>
      </trkpt>
      <trkpt lat="42.58027" lon="2.00094">
        <ele>2002.5634766</ele>
        <time>2013-01-27T11:45:52Z</time>
      </trkpt>
      <trkpt lat="42.58025" lon="2.00089">
        <ele>2005.4475098</ele>
        <time>2013-01-27T11:45:59Z</time>
      </trkpt>
      <trkpt lat="42.58024" lon="2.00085">
        <ele>2008.8120117</ele>
        <time>2013-01-27T11:46:05Z</time>
      </trkpt>
      <trkpt lat="42.58023" lon="2.00081">
        <ele>2009.7731934</ele>
        <time>2013-01-27T11:46:10Z</time>
      </trkpt>
      <trkpt lat="42.58023" lon="2.00076">
        <ele>2011.6960449</ele>
        <time>2013-01-27T11:46:21Z</time>
      </trkpt>
      <trkpt lat="42.58021" lon="2.00071">
        <ele>2011.215332</ele>
        <time>2013-01-27T11:46:29Z</time>
      </trkpt>
      <trkpt lat="42.58019" lon="2.00063">
        <ele>2012.6574707</ele>
        <time>2013-01-27T11:46:38Z</time>
      </trkpt>
      <trkpt lat="42.58017" lon="2.00056">
        <ele>2012.6574707</ele>
        <time>2013-01-27T11:46:45Z</time>
      </trkpt>
      <trkpt lat="42.58015" lon="2.00047">
        <ele>2012.6574707</ele>
        <time>2013-01-27T11:46:54Z</time>
      </trkpt>
      <trkpt lat="42.58013" lon="2.00038">
        <ele>2014.0993652</ele>
        <time>2013-01-27T11:47:03Z</time>
      </trkpt>
      <trkpt lat="42.58012" lon="2.0003">
        <ele>2015.060791</ele>
        <time>2013-01-27T11:47:10Z</time>
      </trkpt>
      <trkpt lat="42.58009" lon="2.00022">
        <ele>2016.5026855</ele>
        <time>2013-01-27T11:47:18Z</time>
      </trkpt>
      <trkpt lat="42.58005" lon="2.00014">
        <ele>2017.9445801</ele>
        <time>2013-01-27T11:47:26Z</time>
      </trkpt>
      <trkpt lat="42.58003" lon="2.00008">
        <ele>2019.3867188</ele>
        <time>2013-01-27T11:47:34Z</time>
      </trkpt>
      <trkpt lat="42.57998" lon="2">
        <ele>2018.9060059</ele>
        <time>2013-01-27T11:47:44Z</time>
      </trkpt>
      <trkpt lat="42.57994" lon="1.99993">
        <ele>2019.3867188</ele>
        <time>2013-01-27T11:47:52Z</time>
      </trkpt>
      <trkpt lat="42.57989" lon="1.99986">
        <ele>2018.425293</ele>
        <time>2013-01-27T11:48:01Z</time>
      </trkpt>
      <trkpt lat="42.57982" lon="1.99982">
        <ele>2017.4638672</ele>
        <time>2013-01-27T11:48:11Z</time>
      </trkpt>
      <trkpt lat="42.57974" lon="1.99979">
        <ele>2015.5415039</ele>
        <time>2013-01-27T11:48:21Z</time>
      </trkpt>
      <trkpt lat="42.57968" lon="1.99978">
        <ele>2015.5415039</ele>
        <time>2013-01-27T11:48:29Z</time>
      </trkpt>
      <trkpt lat="42.57962" lon="1.99975">
        <ele>2015.5415039</ele>
        <time>2013-01-27T11:48:39Z</time>
      </trkpt>
      <trkpt lat="42.57959" lon="1.99973">
        <ele>2015.060791</ele>
        <time>2013-01-27T11:48:48Z</time>
      </trkpt>
      <trkpt lat="42.57959" lon="1.99973">
        <ele>2016.0219727</ele>
        <time>2013-01-27T11:49:08Z</time>
      </trkpt>
      <trkpt lat="42.57955" lon="1.99969">
        <ele>2015.060791</ele>
        <time>2013-01-27T11:49:15Z</time>
      </trkpt>
      <trkpt lat="42.5795" lon="1.99964">
        <ele>2014.0993652</ele>
        <time>2013-01-27T11:49:25Z</time>
      </trkpt>
      <trkpt lat="42.57945" lon="1.99962">
        <ele>2015.060791</ele>
        <time>2013-01-27T11:49:32Z</time>
      </trkpt>
      <trkpt lat="42.5794" lon="1.99959">
        <ele>2016.0219727</ele>
        <time>2013-01-27T11:49:40Z</time>
      </trkpt>
      <trkpt lat="42.57933" lon="1.99956">
        <ele>2016.9833984</ele>
        <time>2013-01-27T11:49:49Z</time>
      </trkpt>
      <trkpt lat="42.57927" lon="1.99954">
        <ele>2016.5026855</ele>
        <time>2013-01-27T11:49:57Z</time>
      </trkpt>
      <trkpt lat="42.57921" lon="1.99952">
        <ele>2015.060791</ele>
        <time>2013-01-27T11:50:05Z</time>
      </trkpt>
      <trkpt lat="42.57913" lon="1.9995">
        <ele>2013.6186523</ele>
        <time>2013-01-27T11:50:14Z</time>
      </trkpt>
      <trkpt lat="42.57907" lon="1.99947">
        <ele>2013.6186523</ele>
        <time>2013-01-27T11:50:23Z</time>
      </trkpt>
      <trkpt lat="42.57903" lon="1.99942">
        <ele>2014.0993652</ele>
        <time>2013-01-27T11:50:31Z</time>
      </trkpt>
      <trkpt lat="42.57898" lon="1.99934">
        <ele>2011.6960449</ele>
        <time>2013-01-27T11:50:41Z</time>
      </trkpt>
      <trkpt lat="42.57894" lon="1.99927">
        <ele>2014.0993652</ele>
        <time>2013-01-27T11:50:50Z</time>
      </trkpt>
      <trkpt lat="42.57892" lon="1.99921">
        <ele>2016.9833984</ele>
        <time>2013-01-27T11:50:58Z</time>
      </trkpt>
      <trkpt lat="42.57889" lon="1.99914">
        <ele>2017.4638672</ele>
        <time>2013-01-27T11:51:07Z</time>
      </trkpt>
      <trkpt lat="42.57886" lon="1.99908">
        <ele>2017.9445801</ele>
        <time>2013-01-27T11:51:14Z</time>
      </trkpt>
      <trkpt lat="42.57882" lon="1.999">
        <ele>2018.425293</ele>
        <time>2013-01-27T11:51:23Z</time>
      </trkpt>
      <trkpt lat="42.57878" lon="1.99894">
        <ele>2016.5026855</ele>
        <time>2013-01-27T11:51:33Z</time>
      </trkpt>
      <trkpt lat="42.57876" lon="1.99889">
        <ele>2016.5026855</ele>
        <time>2013-01-27T11:51:41Z</time>
      </trkpt>
      <trkpt lat="42.57874" lon="1.99882">
        <ele>2017.9445801</ele>
        <time>2013-01-27T11:51:49Z</time>
      </trkpt>
      <trkpt lat="42.57871" lon="1.99875">
        <ele>2018.9060059</ele>
        <time>2013-01-27T11:51:57Z</time>
      </trkpt>
      <trkpt lat="42.57869" lon="1.99868">
        <ele>2017.4638672</ele>
        <time>2013-01-27T11:52:06Z</time>
      </trkpt>
      <trkpt lat="42.57868" lon="1.99864">
        <ele>2020.3479004</ele>
        <time>2013-01-27T11:52:13Z</time>
      </trkpt>
      <trkpt lat="42.57866" lon="1.99859">
        <ele>2021.309082</ele>
        <time>2013-01-27T11:52:21Z</time>
      </trkpt>
      <trkpt lat="42.57864" lon="1.99852">
        <ele>2020.3479004</ele>
        <time>2013-01-27T11:52:29Z</time>
      </trkpt>
      <trkpt lat="42.57864" lon="1.99848">
        <ele>2018.9060059</ele>
        <time>2013-01-27T11:52:39Z</time>
      </trkpt>
      <trkpt lat="42.57864" lon="1.99843">
        <ele>2024.6738281</ele>
        <time>2013-01-27T11:52:56Z</time>
      </trkpt>
      <trkpt lat="42.57864" lon="1.99843">
        <ele>2016.5026855</ele>
        <time>2013-01-27T11:53:15Z</time>
      </trkpt>
      <trkpt lat="42.57865" lon="1.99847">
        <ele>2013.1381836</ele>
        <time>2013-01-27T11:53:28Z</time>
      </trkpt>
      <trkpt lat="42.57867" lon="1.99846">
        <ele>2011.6960449</ele>
        <time>2013-01-27T11:53:38Z</time>
      </trkpt>
      <trkpt lat="42.57869" lon="1.99845">
        <ele>2003.0441895</ele>
        <time>2013-01-27T11:53:56Z</time>
      </trkpt>
      <trkpt lat="42.57871" lon="1.99844">
        <ele>2006.4086914</ele>
        <time>2013-01-27T11:54:15Z</time>
      </trkpt>
      <trkpt lat="42.57873" lon="1.99847">
        <ele>2009.7731934</ele>
        <time>2013-01-27T11:54:42Z</time>
      </trkpt>
      <trkpt lat="42.57874" lon="1.99844">
        <ele>2016.0219727</ele>
        <time>2013-01-27T11:54:53Z</time>
      </trkpt>
      <trkpt lat="42.57869" lon="1.99841">
        <ele>2025.6350098</ele>
        <time>2013-01-27T11:55:16Z</time>
      </trkpt>
      <trkpt lat="42.57867" lon="1.99838">
        <ele>2024.6738281</ele>
        <time>2013-01-27T11:56:26Z</time>
      </trkpt>
      <trkpt lat="42.57863" lon="1.99835">
        <ele>2029.4804688</ele>
        <time>2013-01-27T11:56:45Z</time>
      </trkpt>
      <trkpt lat="42.57869" lon="1.99841">
        <ele>2018.425293</ele>
        <time>2013-01-27T11:57:36Z</time>
      </trkpt>
      <trkpt lat="42.57866" lon="1.99839">
        <ele>2016.0219727</ele>
        <time>2013-01-27T11:57:48Z</time>
      </trkpt>
      <trkpt lat="42.57864" lon="1.99835">
        <ele>2015.5415039</ele>
        <time>2013-01-27T11:58:17Z</time>
      </trkpt>
      <trkpt lat="42.57861" lon="1.99834">
        <ele>2016.9833984</ele>
        <time>2013-01-27T11:58:25Z</time>
      </trkpt>
      <trkpt lat="42.57861" lon="1.99834">
        <ele>2016.9833984</ele>
        <time>2013-01-27T11:58:25Z</time>
      </trkpt>
      <trkpt lat="42.57861" lon="1.99834">
        <ele>2016.0219727</ele>
        <time>2013-01-27T11:58:26Z</time>
      </trkpt>
      <trkpt lat="42.57864" lon="1.99836">
        <ele>2014.5800781</ele>
        <time>2013-01-27T11:58:34Z</time>
      </trkpt>
    </trkseg>
    </trkseg>
      <trkpt lat="42.57863" lon="1.99836">
        <ele>2017.4638672</ele>
        <time>2013-01-27T12:22:36Z</time>
      </trkpt>
      <trkpt lat="42.57863" lon="1.99836">
        <ele>2016.9833984</ele>
        <time>2013-01-27T12:22:37Z</time>
      </trkpt>
      <trkpt lat="42.57864" lon="1.99835">
        <ele>2017.4638672</ele>
        <time>2013-01-27T12:22:51Z</time>
      </trkpt>
      <trkpt lat="42.57862" lon="1.99837">
        <ele>2021.7897949</ele>
        <time>2013-01-27T12:22:59Z</time>
      </trkpt>
      <trkpt lat="42.57861" lon="1.99841">
        <ele>2019.8671875</ele>
        <time>2013-01-27T12:23:10Z</time>
      </trkpt>
      <trkpt lat="42.57859" lon="1.99845">
        <ele>2018.9060059</ele>
        <time>2013-01-27T12:23:21Z</time>
      </trkpt>
      <trkpt lat="42.57855" lon="1.99848">
        <ele>2020.8286133</ele>
        <time>2013-01-27T12:23:31Z</time>
      </trkpt>
      <trkpt lat="42.57852" lon="1.99846">
        <ele>2022.2705078</ele>
        <time>2013-01-27T12:23:38Z</time>
      </trkpt>
      <trkpt lat="42.5785" lon="1.99843">
        <ele>2023.2319336</ele>
        <time>2013-01-27T12:23:50Z</time>
      </trkpt>
      <trkpt lat="42.57848" lon="1.99842">
        <ele>2022.7512207</ele>
        <time>2013-01-27T12:23:57Z</time>
      </trkpt>
      <trkpt lat="42.57843" lon="1.99839">
        <ele>2021.7897949</ele>
        <time>2013-01-27T12:24:06Z</time>
      </trkpt>
      <trkpt lat="42.5784" lon="1.99836">
        <ele>2022.7512207</ele>
        <time>2013-01-27T12:24:15Z</time>
      </trkpt>
      <trkpt lat="42.57838" lon="1.99833">
        <ele>2023.7124023</ele>
        <time>2013-01-27T12:24:22Z</time>
      </trkpt>
      <trkpt lat="42.57835" lon="1.9983">
        <ele>2024.6738281</ele>
        <time>2013-01-27T12:24:29Z</time>
      </trkpt>
      <trkpt lat="42.57832" lon="1.99827">
        <ele>2024.1931152</ele>
        <time>2013-01-27T12:24:37Z</time>
      </trkpt>
      <trkpt lat="42.57828" lon="1.99823">
        <ele>2023.2319336</ele>
        <time>2013-01-27T12:24:46Z</time>
      </trkpt>
      <trkpt lat="42.57824" lon="1.99819">
        <ele>2022.7512207</ele>
        <time>2013-01-27T12:24:54Z</time>
      </trkpt>
      <trkpt lat="42.5782" lon="1.99819">
        <ele>2023.7124023</ele>
        <time>2013-01-27T12:25:01Z</time>
      </trkpt>
      <trkpt lat="42.57817" lon="1.99819">
        <ele>2024.1931152</ele>
        <time>2013-01-27T12:25:06Z</time>
      </trkpt>
      <trkpt lat="42.57812" lon="1.99818">
        <ele>2023.7124023</ele>
        <time>2013-01-27T12:25:15Z</time>
      </trkpt>
      <trkpt lat="42.57808" lon="1.99817">
        <ele>2024.1931152</ele>
        <time>2013-01-27T12:25:22Z</time>
      </trkpt>
      <trkpt lat="42.57803" lon="1.99815">
        <ele>2024.6738281</ele>
        <time>2013-01-27T12:25:30Z</time>
      </trkpt>
      <trkpt lat="42.57797" lon="1.99813">
        <ele>2025.1542969</ele>
        <time>2013-01-27T12:25:38Z</time>
      </trkpt>
      <trkpt lat="42.57791" lon="1.99812">
        <ele>2025.1542969</ele>
        <time>2013-01-27T12:25:45Z</time>
      </trkpt>
      <trkpt lat="42.5779" lon="1.99812">
        <ele>2026.1157227</ele>
        <time>2013-01-27T12:25:51Z</time>
      </trkpt>
      <trkpt lat="42.57784" lon="1.99809">
        <ele>2024.6738281</ele>
        <time>2013-01-27T12:25:59Z</time>
      </trkpt>
      <trkpt lat="42.5778" lon="1.99807">
        <ele>2023.7124023</ele>
        <time>2013-01-27T12:26:06Z</time>
      </trkpt>
      <trkpt lat="42.57774" lon="1.99801">
        <ele>2023.7124023</ele>
        <time>2013-01-27T12:26:15Z</time>
      </trkpt>
      <trkpt lat="42.57769" lon="1.99793">
        <ele>2025.6350098</ele>
        <time>2013-01-27T12:26:25Z</time>
      </trkpt>
      <trkpt lat="42.57765" lon="1.99787">
        <ele>2024.6738281</ele>
        <time>2013-01-27T12:26:33Z</time>
      </trkpt>
      <trkpt lat="42.5776" lon="1.99781">
        <ele>2023.7124023</ele>
        <time>2013-01-27T12:26:41Z</time>
      </trkpt>
      <trkpt lat="42.57756" lon="1.99776">
        <ele>2023.2319336</ele>
        <time>2013-01-27T12:26:48Z</time>
      </trkpt>
      <trkpt lat="42.57752" lon="1.99769">
        <ele>2021.7897949</ele>
        <time>2013-01-27T12:26:56Z</time>
      </trkpt>
      <trkpt lat="42.57747" lon="1.99761">
        <ele>2022.2705078</ele>
        <time>2013-01-27T12:27:05Z</time>
      </trkpt>
      <trkpt lat="42.57744" lon="1.99752">
        <ele>2023.2319336</ele>
        <time>2013-01-27T12:27:14Z</time>
      </trkpt>
      <trkpt lat="42.57741" lon="1.99742">
        <ele>2021.7897949</ele>
        <time>2013-01-27T12:27:23Z</time>
      </trkpt>
      <trkpt lat="42.57737" lon="1.99732">
        <ele>2020.8286133</ele>
        <time>2013-01-27T12:27:32Z</time>
      </trkpt>
      <trkpt lat="42.57734" lon="1.99724">
        <ele>2020.8286133</ele>
        <time>2013-01-27T12:27:40Z</time>
      </trkpt>
      <trkpt lat="42.57731" lon="1.99714">
        <ele>2020.8286133</ele>
        <time>2013-01-27T12:27:49Z</time>
      </trkpt>
      <trkpt lat="42.57727" lon="1.99703">
        <ele>2021.309082</ele>
        <time>2013-01-27T12:28:00Z</time>
      </trkpt>
      <trkpt lat="42.57722" lon="1.99693">
        <ele>2022.2705078</ele>
        <time>2013-01-27T12:28:10Z</time>
      </trkpt>
      <trkpt lat="42.57717" lon="1.99684">
        <ele>2022.2705078</ele>
        <time>2013-01-27T12:28:20Z</time>
      </trkpt>
      <trkpt lat="42.57712" lon="1.99675">
        <ele>2022.7512207</ele>
        <time>2013-01-27T12:28:30Z</time>
      </trkpt>
      <trkpt lat="42.57707" lon="1.99666">
        <ele>2023.7124023</ele>
        <time>2013-01-27T12:28:40Z</time>
      </trkpt>
      <trkpt lat="42.57703" lon="1.99658">
        <ele>2023.7124023</ele>
        <time>2013-01-27T12:28:49Z</time>
      </trkpt>
      <trkpt lat="42.57698" lon="1.99651">
        <ele>2023.7124023</ele>
        <time>2013-01-27T12:28:57Z</time>
      </trkpt>
      <trkpt lat="42.57694" lon="1.99645">
        <ele>2024.1931152</ele>
        <time>2013-01-27T12:29:05Z</time>
      </trkpt>
      <trkpt lat="42.57689" lon="1.99636">
        <ele>2024.6738281</ele>
        <time>2013-01-27T12:29:15Z</time>
      </trkpt>
      <trkpt lat="42.57684" lon="1.99629">
        <ele>2024.6738281</ele>
        <time>2013-01-27T12:29:24Z</time>
      </trkpt>
      <trkpt lat="42.57678" lon="1.99622">
        <ele>2024.6738281</ele>
        <time>2013-01-27T12:29:34Z</time>
      </trkpt>
      <trkpt lat="42.57672" lon="1.99614">
        <ele>2024.6738281</ele>
        <time>2013-01-27T12:29:44Z</time>
      </trkpt>
      <trkpt lat="42.57665" lon="1.99608">
        <ele>2024.1931152</ele>
        <time>2013-01-27T12:29:53Z</time>
      </trkpt>
      <trkpt lat="42.57658" lon="1.99601">
        <ele>2023.2319336</ele>
        <time>2013-01-27T12:30:03Z</time>
      </trkpt>
      <trkpt lat="42.57652" lon="1.99596">
        <ele>2023.2319336</ele>
        <time>2013-01-27T12:30:12Z</time>
      </trkpt>
      <trkpt lat="42.57646" lon="1.99591">
        <ele>2023.2319336</ele>
        <time>2013-01-27T12:30:20Z</time>
      </trkpt>
      <trkpt lat="42.57636" lon="1.99585">
        <ele>2023.2319336</ele>
        <time>2013-01-27T12:30:30Z</time>
      </trkpt>
      <trkpt lat="42.57627" lon="1.9958">
        <ele>2024.6738281</ele>
        <time>2013-01-27T12:30:39Z</time>
      </trkpt>
      <trkpt lat="42.57618" lon="1.99575">
        <ele>2025.1542969</ele>
        <time>2013-01-27T12:30:50Z</time>
      </trkpt>
      <trkpt lat="42.5761" lon="1.9957">
        <ele>2025.6350098</ele>
        <time>2013-01-27T12:31:00Z</time>
      </trkpt>
      <trkpt lat="42.57603" lon="1.99565">
        <ele>2025.6350098</ele>
        <time>2013-01-27T12:31:09Z</time>
      </trkpt>
      <trkpt lat="42.57596" lon="1.99559">
        <ele>2025.1542969</ele>
        <time>2013-01-27T12:31:19Z</time>
      </trkpt>
      <trkpt lat="42.57589" lon="1.99554">
        <ele>2024.1931152</ele>
        <time>2013-01-27T12:31:28Z</time>
      </trkpt>
      <trkpt lat="42.57583" lon="1.99551">
        <ele>2023.7124023</ele>
        <time>2013-01-27T12:31:37Z</time>
      </trkpt>
      <trkpt lat="42.57576" lon="1.99548">
        <ele>2022.2705078</ele>
        <time>2013-01-27T12:31:46Z</time>
      </trkpt>
      <trkpt lat="42.57569" lon="1.99543">
        <ele>2020.8286133</ele>
        <time>2013-01-27T12:31:55Z</time>
      </trkpt>
      <trkpt lat="42.57562" lon="1.99538">
        <ele>2020.8286133</ele>
        <time>2013-01-27T12:32:04Z</time>
      </trkpt>
      <trkpt lat="42.57556" lon="1.99535">
        <ele>2020.3479004</ele>
        <time>2013-01-27T12:32:13Z</time>
      </trkpt>
      <trkpt lat="42.5755" lon="1.99532">
        <ele>2019.8671875</ele>
        <time>2013-01-27T12:32:21Z</time>
      </trkpt>
      <trkpt lat="42.57544" lon="1.99529">
        <ele>2020.3479004</ele>
        <time>2013-01-27T12:32:32Z</time>
      </trkpt>
      <trkpt lat="42.57538" lon="1.99526">
        <ele>2020.3479004</ele>
        <time>2013-01-27T12:32:43Z</time>
      </trkpt>
      <trkpt lat="42.57534" lon="1.99524">
        <ele>2020.8286133</ele>
        <time>2013-01-27T12:32:52Z</time>
      </trkpt>
      <trkpt lat="42.57529" lon="1.99524">
        <ele>2022.2705078</ele>
        <time>2013-01-27T12:33:01Z</time>
      </trkpt>
      <trkpt lat="42.57523" lon="1.99527">
        <ele>2024.6738281</ele>
        <time>2013-01-27T12:33:10Z</time>
      </trkpt>
      <trkpt lat="42.57516" lon="1.99526">
        <ele>2025.1542969</ele>
        <time>2013-01-27T12:33:19Z</time>
      </trkpt>
      <trkpt lat="42.5751" lon="1.99526">
        <ele>2026.1157227</ele>
        <time>2013-01-27T12:33:28Z</time>
      </trkpt>
      <trkpt lat="42.57508" lon="1.99525">
        <ele>2026.5964355</ele>
        <time>2013-01-27T12:33:42Z</time>
      </trkpt>
      <trkpt lat="42.57507" lon="1.99525">
        <ele>2027.0771484</ele>
        <time>2013-01-27T12:33:51Z</time>
      </trkpt>
      <trkpt lat="42.57503" lon="1.99522">
        <ele>2027.5576172</ele>
        <time>2013-01-27T12:33:59Z</time>
      </trkpt>
      <trkpt lat="42.57497" lon="1.99518">
        <ele>2027.0771484</ele>
        <time>2013-01-27T12:34:07Z</time>
      </trkpt>
      <trkpt lat="42.5749" lon="1.99511">
        <ele>2026.1157227</ele>
        <time>2013-01-27T12:34:16Z</time>
      </trkpt>
      <trkpt lat="42.57483" lon="1.99506">
        <ele>2024.1931152</ele>
        <time>2013-01-27T12:34:25Z</time>
      </trkpt>
      <trkpt lat="42.57475" lon="1.99504">
        <ele>2021.7897949</ele>
        <time>2013-01-27T12:34:34Z</time>
      </trkpt>
      <trkpt lat="42.5747" lon="1.99501">
        <ele>2020.3479004</ele>
        <time>2013-01-27T12:34:41Z</time>
      </trkpt>
      <trkpt lat="42.57463" lon="1.99497">
        <ele>2019.3867188</ele>
        <time>2013-01-27T12:34:49Z</time>
      </trkpt>
      <trkpt lat="42.57457" lon="1.99495">
        <ele>2018.9060059</ele>
        <time>2013-01-27T12:34:56Z</time>
      </trkpt>
      <trkpt lat="42.57447" lon="1.9949">
        <ele>2018.425293</ele>
        <time>2013-01-27T12:35:07Z</time>
      </trkpt>
      <trkpt lat="42.5744" lon="1.99484">
        <ele>2016.9833984</ele>
        <time>2013-01-27T12:35:17Z</time>
      </trkpt>
      <trkpt lat="42.57435" lon="1.99478">
        <ele>2016.0219727</ele>
        <time>2013-01-27T12:35:26Z</time>
      </trkpt>
      <trkpt lat="42.57428" lon="1.99469">
        <ele>2016.5026855</ele>
        <time>2013-01-27T12:35:36Z</time>
      </trkpt>
      <trkpt lat="42.57423" lon="1.99461">
        <ele>2016.5026855</ele>
        <time>2013-01-27T12:35:45Z</time>
      </trkpt>
      <trkpt lat="42.5742" lon="1.99455">
        <ele>2016.5026855</ele>
        <time>2013-01-27T12:35:52Z</time>
      </trkpt>
      <trkpt lat="42.57416" lon="1.99449">
        <ele>2016.5026855</ele>
        <time>2013-01-27T12:35:59Z</time>
      </trkpt>
      <trkpt lat="42.57409" lon="1.99442">
        <ele>2016.5026855</ele>
        <time>2013-01-27T12:36:09Z</time>
      </trkpt>
      <trkpt lat="42.57402" lon="1.99433">
        <ele>2016.5026855</ele>
        <time>2013-01-27T12:36:20Z</time>
      </trkpt>
      <trkpt lat="42.57397" lon="1.99425">
        <ele>2015.5415039</ele>
        <time>2013-01-27T12:36:30Z</time>
      </trkpt>
      <trkpt lat="42.57393" lon="1.9942">
        <ele>2015.5415039</ele>
        <time>2013-01-27T12:36:37Z</time>
      </trkpt>
      <trkpt lat="42.5739" lon="1.99411">
        <ele>2015.060791</ele>
        <time>2013-01-27T12:36:46Z</time>
      </trkpt>
      <trkpt lat="42.57386" lon="1.99402">
        <ele>2015.5415039</ele>
        <time>2013-01-27T12:36:55Z</time>
      </trkpt>
      <trkpt lat="42.57382" lon="1.99395">
        <ele>2016.5026855</ele>
        <time>2013-01-27T12:37:03Z</time>
      </trkpt>
      <trkpt lat="42.57377" lon="1.99388">
        <ele>2016.9833984</ele>
        <time>2013-01-27T12:37:13Z</time>
      </trkpt>
      <trkpt lat="42.57372" lon="1.9938">
        <ele>2016.5026855</ele>
        <time>2013-01-27T12:37:22Z</time>
      </trkpt>
      <trkpt lat="42.57368" lon="1.99376">
        <ele>2016.0219727</ele>
        <time>2013-01-27T12:37:30Z</time>
      </trkpt>
      <trkpt lat="42.57363" lon="1.99372">
        <ele>2016.0219727</ele>
        <time>2013-01-27T12:37:39Z</time>
      </trkpt>
      <trkpt lat="42.57357" lon="1.99369">
        <ele>2017.4638672</ele>
        <time>2013-01-27T12:37:48Z</time>
      </trkpt>
      <trkpt lat="42.57353" lon="1.99366">
        <ele>2017.9445801</ele>
        <time>2013-01-27T12:37:55Z</time>
      </trkpt>
      <trkpt lat="42.57346" lon="1.99363">
        <ele>2017.4638672</ele>
        <time>2013-01-27T12:38:05Z</time>
      </trkpt>
      <trkpt lat="42.57342" lon="1.99362">
        <ele>2017.9445801</ele>
        <time>2013-01-27T12:38:11Z</time>
      </trkpt>
      <trkpt lat="42.57332" lon="1.99355">
        <ele>2016.9833984</ele>
        <time>2013-01-27T12:38:21Z</time>
      </trkpt>
      <trkpt lat="42.57327" lon="1.99351">
        <ele>2015.5415039</ele>
        <time>2013-01-27T12:38:28Z</time>
      </trkpt>
      <trkpt lat="42.5732" lon="1.99348">
        <ele>2013.6186523</ele>
        <time>2013-01-27T12:38:36Z</time>
      </trkpt>
      <trkpt lat="42.57312" lon="1.99347">
        <ele>2014.0993652</ele>
        <time>2013-01-27T12:38:44Z</time>
      </trkpt>
      <trkpt lat="42.57305" lon="1.99349">
        <ele>2014.5800781</ele>
        <time>2013-01-27T12:38:55Z</time>
      </trkpt>
      <trkpt lat="42.57296" lon="1.99351">
        <ele>2015.060791</ele>
        <time>2013-01-27T12:39:06Z</time>
      </trkpt>
      <trkpt lat="42.5729" lon="1.99356">
        <ele>2014.5800781</ele>
        <time>2013-01-27T12:39:15Z</time>
      </trkpt>
      <trkpt lat="42.57283" lon="1.99362">
        <ele>2014.0993652</ele>
        <time>2013-01-27T12:39:24Z</time>
      </trkpt>
      <trkpt lat="42.57278" lon="1.99363">
        <ele>2014.5800781</ele>
        <time>2013-01-27T12:39:31Z</time>
      </trkpt>
      <trkpt lat="42.57273" lon="1.99361">
        <ele>2013.1381836</ele>
        <time>2013-01-27T12:39:39Z</time>
      </trkpt>
      <trkpt lat="42.57268" lon="1.99358">
        <ele>2012.6574707</ele>
        <time>2013-01-27T12:39:46Z</time>
      </trkpt>
      <trkpt lat="42.57262" lon="1.99357">
        <ele>2012.1767578</ele>
        <time>2013-01-27T12:39:54Z</time>
      </trkpt>
      <trkpt lat="42.57256" lon="1.99359">
        <ele>2012.1767578</ele>
        <time>2013-01-27T12:40:02Z</time>
      </trkpt>
      <trkpt lat="42.57248" lon="1.99363">
        <ele>2013.1381836</ele>
        <time>2013-01-27T12:40:11Z</time>
      </trkpt>
      <trkpt lat="42.57241" lon="1.99366">
        <ele>2013.6186523</ele>
        <time>2013-01-27T12:40:20Z</time>
      </trkpt>
      <trkpt lat="42.57235" lon="1.99373">
        <ele>2016.5026855</ele>
        <time>2013-01-27T12:40:27Z</time>
      </trkpt>
      <trkpt lat="42.57232" lon="1.99377">
        <ele>2015.060791</ele>
        <time>2013-01-27T12:40:35Z</time>
      </trkpt>
      <trkpt lat="42.5723" lon="1.99381">
        <ele>2014.5800781</ele>
        <time>2013-01-27T12:40:43Z</time>
      </trkpt>
      <trkpt lat="42.57226" lon="1.99386">
        <ele>2013.6186523</ele>
        <time>2013-01-27T12:40:52Z</time>
      </trkpt>
      <trkpt lat="42.57222" lon="1.99391">
        <ele>2012.6574707</ele>
        <time>2013-01-27T12:41:00Z</time>
      </trkpt>
      <trkpt lat="42.57215" lon="1.99395">
        <ele>2013.1381836</ele>
        <time>2013-01-27T12:41:10Z</time>
      </trkpt>
      <trkpt lat="42.57208" lon="1.99401">
        <ele>2013.6186523</ele>
        <time>2013-01-27T12:41:20Z</time>
      </trkpt>
      <trkpt lat="42.57202" lon="1.99405">
        <ele>2014.0993652</ele>
        <time>2013-01-27T12:41:29Z</time>
      </trkpt>
      <trkpt lat="42.57196" lon="1.99406">
        <ele>2014.5800781</ele>
        <time>2013-01-27T12:41:37Z</time>
      </trkpt>
      <trkpt lat="42.57193" lon="1.99402">
        <ele>2013.6186523</ele>
        <time>2013-01-27T12:41:46Z</time>
      </trkpt>
      <trkpt lat="42.57191" lon="1.99398">
        <ele>2015.5415039</ele>
        <time>2013-01-27T12:41:55Z</time>
      </trkpt>
      <trkpt lat="42.5719" lon="1.99396">
        <ele>2016.5026855</ele>
        <time>2013-01-27T12:42:04Z</time>
      </trkpt>
      <trkpt lat="42.57188" lon="1.99394">
        <ele>2017.9445801</ele>
        <time>2013-01-27T12:42:14Z</time>
      </trkpt>
      <trkpt lat="42.57188" lon="1.99392">
        <ele>2017.4638672</ele>
        <time>2013-01-27T12:42:22Z</time>
      </trkpt>
      <trkpt lat="42.57187" lon="1.99388">
        <ele>2016.9833984</ele>
        <time>2013-01-27T12:42:29Z</time>
      </trkpt>
      <trkpt lat="42.57183" lon="1.99382">
        <ele>2016.9833984</ele>
        <time>2013-01-27T12:42:38Z</time>
      </trkpt>
      <trkpt lat="42.5718" lon="1.99379">
        <ele>2016.9833984</ele>
        <time>2013-01-27T12:42:45Z</time>
      </trkpt>
      <trkpt lat="42.57176" lon="1.99375">
        <ele>2016.5026855</ele>
        <time>2013-01-27T12:42:53Z</time>
      </trkpt>
      <trkpt lat="42.57171" lon="1.99371">
        <ele>2016.5026855</ele>
        <time>2013-01-27T12:43:01Z</time>
      </trkpt>
      <trkpt lat="42.57166" lon="1.99366">
        <ele>2014.5800781</ele>
        <time>2013-01-27T12:43:09Z</time>
      </trkpt>
      <trkpt lat="42.57161" lon="1.99362">
        <ele>2013.6186523</ele>
        <time>2013-01-27T12:43:17Z</time>
      </trkpt>
      <trkpt lat="42.57155" lon="1.99356">
        <ele>2014.5800781</ele>
        <time>2013-01-27T12:43:25Z</time>
      </trkpt>
      <trkpt lat="42.5715" lon="1.99351">
        <ele>2016.0219727</ele>
        <time>2013-01-27T12:43:34Z</time>
      </trkpt>
      <trkpt lat="42.57144" lon="1.99346">
        <ele>2016.5026855</ele>
        <time>2013-01-27T12:43:43Z</time>
      </trkpt>
      <trkpt lat="42.57139" lon="1.9934">
        <ele>2016.9833984</ele>
        <time>2013-01-27T12:43:52Z</time>
      </trkpt>
      <trkpt lat="42.57137" lon="1.99338">
        <ele>2016.5026855</ele>
        <time>2013-01-27T12:43:59Z</time>
      </trkpt>
      <trkpt lat="42.57132" lon="1.99332">
        <ele>2016.0219727</ele>
        <time>2013-01-27T12:44:08Z</time>
      </trkpt>
      <trkpt lat="42.57128" lon="1.99327">
        <ele>2015.060791</ele>
        <time>2013-01-27T12:44:16Z</time>
      </trkpt>
      <trkpt lat="42.57123" lon="1.99322">
        <ele>2014.5800781</ele>
        <time>2013-01-27T12:44:25Z</time>
      </trkpt>
      <trkpt lat="42.57119" lon="1.99316">
        <ele>2012.6574707</ele>
        <time>2013-01-27T12:44:34Z</time>
      </trkpt>
      <trkpt lat="42.57113" lon="1.9931">
        <ele>2011.215332</ele>
        <time>2013-01-27T12:44:43Z</time>
      </trkpt>
      <trkpt lat="42.57106" lon="1.99305">
        <ele>2012.6574707</ele>
        <time>2013-01-27T12:44:53Z</time>
      </trkpt>
      <trkpt lat="42.57099" lon="1.99304">
        <ele>2014.0993652</ele>
        <time>2013-01-27T12:45:02Z</time>
      </trkpt>
      <trkpt lat="42.57092" lon="1.99308">
        <ele>2014.5800781</ele>
        <time>2013-01-27T12:45:10Z</time>
      </trkpt>
      <trkpt lat="42.57086" lon="1.99314">
        <ele>2014.5800781</ele>
        <time>2013-01-27T12:45:19Z</time>
      </trkpt>
      <trkpt lat="42.5708" lon="1.99319">
        <ele>2014.0993652</ele>
        <time>2013-01-27T12:45:28Z</time>
      </trkpt>
      <trkpt lat="42.57075" lon="1.99326">
        <ele>2015.060791</ele>
        <time>2013-01-27T12:45:36Z</time>
      </trkpt>
      <trkpt lat="42.57069" lon="1.99333">
        <ele>2015.060791</ele>
        <time>2013-01-27T12:45:45Z</time>
      </trkpt>
      <trkpt lat="42.57059" lon="1.9934">
        <ele>2015.060791</ele>
        <time>2013-01-27T12:45:57Z</time>
      </trkpt>
      <trkpt lat="42.57053" lon="1.99346">
        <ele>2016.0219727</ele>
        <time>2013-01-27T12:46:05Z</time>
      </trkpt>
      <trkpt lat="42.57048" lon="1.99351">
        <ele>2016.5026855</ele>
        <time>2013-01-27T12:46:14Z</time>
      </trkpt>
      <trkpt lat="42.57042" lon="1.99355">
        <ele>2016.5026855</ele>
        <time>2013-01-27T12:46:23Z</time>
      </trkpt>
      <trkpt lat="42.5704" lon="1.99356">
        <ele>2016.0219727</ele>
        <time>2013-01-27T12:46:33Z</time>
      </trkpt>
      <trkpt lat="42.57038" lon="1.99358">
        <ele>2015.060791</ele>
        <time>2013-01-27T12:46:44Z</time>
      </trkpt>
      <trkpt lat="42.57033" lon="1.99362">
        <ele>2015.060791</ele>
        <time>2013-01-27T12:46:53Z</time>
      </trkpt>
      <trkpt lat="42.57029" lon="1.99367">
        <ele>2015.5415039</ele>
        <time>2013-01-27T12:47:01Z</time>
      </trkpt>
      <trkpt lat="42.57024" lon="1.99371">
        <ele>2016.5026855</ele>
        <time>2013-01-27T12:47:09Z</time>
      </trkpt>
      <trkpt lat="42.57017" lon="1.99377">
        <ele>2018.425293</ele>
        <time>2013-01-27T12:47:19Z</time>
      </trkpt>
      <trkpt lat="42.57012" lon="1.99382">
        <ele>2017.4638672</ele>
        <time>2013-01-27T12:47:29Z</time>
      </trkpt>
      <trkpt lat="42.57007" lon="1.99388">
        <ele>2017.4638672</ele>
        <time>2013-01-27T12:47:38Z</time>
      </trkpt>
      <trkpt lat="42.57001" lon="1.99393">
        <ele>2016.5026855</ele>
        <time>2013-01-27T12:47:48Z</time>
      </trkpt>
      <trkpt lat="42.56996" lon="1.994">
        <ele>2015.5415039</ele>
        <time>2013-01-27T12:47:57Z</time>
      </trkpt>
      <trkpt lat="42.56991" lon="1.99405">
        <ele>2015.5415039</ele>
        <time>2013-01-27T12:48:06Z</time>
      </trkpt>
      <trkpt lat="42.56985" lon="1.99411">
        <ele>2016.0219727</ele>
        <time>2013-01-27T12:48:14Z</time>
      </trkpt>
      <trkpt lat="42.5698" lon="1.99416">
        <ele>2016.5026855</ele>
        <time>2013-01-27T12:48:23Z</time>
      </trkpt>
      <trkpt lat="42.56974" lon="1.99421">
        <ele>2017.9445801</ele>
        <time>2013-01-27T12:48:31Z</time>
      </trkpt>
      <trkpt lat="42.56969" lon="1.99425">
        <ele>2017.9445801</ele>
        <time>2013-01-27T12:48:40Z</time>
      </trkpt>
      <trkpt lat="42.56963" lon="1.99432">
        <ele>2018.425293</ele>
        <time>2013-01-27T12:48:49Z</time>
      </trkpt>
      <trkpt lat="42.56957" lon="1.99438">
        <ele>2018.425293</ele>
        <time>2013-01-27T12:48:59Z</time>
      </trkpt>
      <trkpt lat="42.56951" lon="1.99446">
        <ele>2019.3867188</ele>
        <time>2013-01-27T12:49:09Z</time>
      </trkpt>
      <trkpt lat="42.56945" lon="1.99453">
        <ele>2019.3867188</ele>
        <time>2013-01-27T12:49:19Z</time>
      </trkpt>
      <trkpt lat="42.5694" lon="1.99458">
        <ele>2019.8671875</ele>
        <time>2013-01-27T12:49:27Z</time>
      </trkpt>
      <trkpt lat="42.56934" lon="1.99465">
        <ele>2020.3479004</ele>
        <time>2013-01-27T12:49:37Z</time>
      </trkpt>
      <trkpt lat="42.5693" lon="1.9947">
        <ele>2020.3479004</ele>
        <time>2013-01-27T12:49:45Z</time>
      </trkpt>
      <trkpt lat="42.56924" lon="1.99476">
        <ele>2019.8671875</ele>
        <time>2013-01-27T12:49:54Z</time>
      </trkpt>
      <trkpt lat="42.56919" lon="1.9948">
        <ele>2019.3867188</ele>
        <time>2013-01-27T12:50:04Z</time>
      </trkpt>
      <trkpt lat="42.56914" lon="1.99484">
        <ele>2019.3867188</ele>
        <time>2013-01-27T12:50:14Z</time>
      </trkpt>
      <trkpt lat="42.56909" lon="1.99487">
        <ele>2020.3479004</ele>
        <time>2013-01-27T12:50:23Z</time>
      </trkpt>
      <trkpt lat="42.56903" lon="1.99492">
        <ele>2019.3867188</ele>
        <time>2013-01-27T12:50:32Z</time>
      </trkpt>
      <trkpt lat="42.56898" lon="1.99497">
        <ele>2018.425293</ele>
        <time>2013-01-27T12:50:40Z</time>
      </trkpt>
      <trkpt lat="42.56892" lon="1.99502">
        <ele>2018.425293</ele>
        <time>2013-01-27T12:50:51Z</time>
      </trkpt>
      <trkpt lat="42.56886" lon="1.99505">
        <ele>2019.8671875</ele>
        <time>2013-01-27T12:51:01Z</time>
      </trkpt>
      <trkpt lat="42.56879" lon="1.9951">
        <ele>2019.8671875</ele>
        <time>2013-01-27T12:51:12Z</time>
      </trkpt>
      <trkpt lat="42.56876" lon="1.99513">
        <ele>2021.309082</ele>
        <time>2013-01-27T12:51:18Z</time>
      </trkpt>
      <trkpt lat="42.56875" lon="1.99514">
        <ele>2020.8286133</ele>
        <time>2013-01-27T12:51:25Z</time>
      </trkpt>
      <trkpt lat="42.5687" lon="1.99514">
        <ele>2020.3479004</ele>
        <time>2013-01-27T12:51:32Z</time>
      </trkpt>
      <trkpt lat="42.56864" lon="1.99515">
        <ele>2018.425293</ele>
        <time>2013-01-27T12:51:41Z</time>
      </trkpt>
      <trkpt lat="42.56859" lon="1.99516">
        <ele>2017.9445801</ele>
        <time>2013-01-27T12:51:48Z</time>
      </trkpt>
      <trkpt lat="42.56856" lon="1.99516">
        <ele>2020.3479004</ele>
        <time>2013-01-27T12:51:58Z</time>
      </trkpt>
      <trkpt lat="42.56851" lon="1.99517">
        <ele>2020.3479004</ele>
        <time>2013-01-27T12:52:05Z</time>
      </trkpt>
      <trkpt lat="42.56842" lon="1.99516">
        <ele>2019.8671875</ele>
        <time>2013-01-27T12:52:15Z</time>
      </trkpt>
      <trkpt lat="42.56836" lon="1.99514">
        <ele>2018.9060059</ele>
        <time>2013-01-27T12:52:24Z</time>
      </trkpt>
      <trkpt lat="42.56828" lon="1.99513">
        <ele>2018.425293</ele>
        <time>2013-01-27T12:52:32Z</time>
      </trkpt>
      <trkpt lat="42.56821" lon="1.99512">
        <ele>2018.9060059</ele>
        <time>2013-01-27T12:52:41Z</time>
      </trkpt>
      <trkpt lat="42.56812" lon="1.9951">
        <ele>2019.8671875</ele>
        <time>2013-01-27T12:52:50Z</time>
      </trkpt>
      <trkpt lat="42.56803" lon="1.99508">
        <ele>2020.8286133</ele>
        <time>2013-01-27T12:53:00Z</time>
      </trkpt>
      <trkpt lat="42.56795" lon="1.99504">
        <ele>2020.3479004</ele>
        <time>2013-01-27T12:53:09Z</time>
      </trkpt>
      <trkpt lat="42.56787" lon="1.99501">
        <ele>2019.8671875</ele>
        <time>2013-01-27T12:53:18Z</time>
      </trkpt>
      <trkpt lat="42.5678" lon="1.99499">
        <ele>2019.3867188</ele>
        <time>2013-01-27T12:53:27Z</time>
      </trkpt>
      <trkpt lat="42.56773" lon="1.99496">
        <ele>2018.425293</ele>
        <time>2013-01-27T12:53:37Z</time>
      </trkpt>
      <trkpt lat="42.56766" lon="1.99494">
        <ele>2018.425293</ele>
        <time>2013-01-27T12:53:46Z</time>
      </trkpt>
      <trkpt lat="42.5676" lon="1.99494">
        <ele>2019.3867188</ele>
        <time>2013-01-27T12:53:54Z</time>
      </trkpt>
      <trkpt lat="42.56754" lon="1.99493">
        <ele>2020.3479004</ele>
        <time>2013-01-27T12:54:03Z</time>
      </trkpt>
      <trkpt lat="42.56747" lon="1.99494">
        <ele>2021.309082</ele>
        <time>2013-01-27T12:54:14Z</time>
      </trkpt>
      <trkpt lat="42.56742" lon="1.99497">
        <ele>2021.7897949</ele>
        <time>2013-01-27T12:54:22Z</time>
      </trkpt>
      <trkpt lat="42.56738" lon="1.99497">
        <ele>2021.7897949</ele>
        <time>2013-01-27T12:54:31Z</time>
      </trkpt>
      <trkpt lat="42.56732" lon="1.99498">
        <ele>2022.2705078</ele>
        <time>2013-01-27T12:54:41Z</time>
      </trkpt>
      <trkpt lat="42.56725" lon="1.99501">
        <ele>2022.7512207</ele>
        <time>2013-01-27T12:54:51Z</time>
      </trkpt>
      <trkpt lat="42.56723" lon="1.99501">
        <ele>2021.309082</ele>
        <time>2013-01-27T12:55:00Z</time>
      </trkpt>
      <trkpt lat="42.56721" lon="1.99501">
        <ele>2017.4638672</ele>
        <time>2013-01-27T12:55:15Z</time>
      </trkpt>
      <trkpt lat="42.56714" lon="1.99502">
        <ele>2016.9833984</ele>
        <time>2013-01-27T12:55:23Z</time>
      </trkpt>
      <trkpt lat="42.56705" lon="1.99502">
        <ele>2019.8671875</ele>
        <time>2013-01-27T12:55:32Z</time>
      </trkpt>
      <trkpt lat="42.567" lon="1.99502">
        <ele>2018.9060059</ele>
        <time>2013-01-27T12:55:38Z</time>
      </trkpt>
      <trkpt lat="42.56694" lon="1.99503">
        <ele>2019.3867188</ele>
        <time>2013-01-27T12:55:46Z</time>
      </trkpt>
      <trkpt lat="42.56689" lon="1.99505">
        <ele>2021.309082</ele>
        <time>2013-01-27T12:55:53Z</time>
      </trkpt>
      <trkpt lat="42.56685" lon="1.99507">
        <ele>2024.6738281</ele>
        <time>2013-01-27T12:56:01Z</time>
      </trkpt>
      <trkpt lat="42.56681" lon="1.9951">
        <ele>2027.0771484</ele>
        <time>2013-01-27T12:56:09Z</time>
      </trkpt>
      <trkpt lat="42.56679" lon="1.99515">
        <ele>2028.0385742</ele>
        <time>2013-01-27T12:56:16Z</time>
      </trkpt>
      <trkpt lat="42.56678" lon="1.99519">
        <ele>2027.0771484</ele>
        <time>2013-01-27T12:56:24Z</time>
      </trkpt>
      <trkpt lat="42.56679" lon="1.99523">
        <ele>2025.6350098</ele>
        <time>2013-01-27T12:56:32Z</time>
      </trkpt>
      <trkpt lat="42.56678" lon="1.99529">
        <ele>2024.1931152</ele>
        <time>2013-01-27T12:56:40Z</time>
      </trkpt>
      <trkpt lat="42.56671" lon="1.99534">
        <ele>2022.2705078</ele>
        <time>2013-01-27T12:56:50Z</time>
      </trkpt>
      <trkpt lat="42.56665" lon="1.99537">
        <ele>2022.7512207</ele>
        <time>2013-01-27T12:56:58Z</time>
      </trkpt>
      <trkpt lat="42.56659" lon="1.99538">
        <ele>2024.6738281</ele>
        <time>2013-01-27T12:57:04Z</time>
      </trkpt>
      <trkpt lat="42.56658" lon="1.99538">
        <ele>2025.6350098</ele>
        <time>2013-01-27T12:57:05Z</time>
      </trkpt>
      <trkpt lat="42.56652" lon="1.99533">
        <ele>2028.5192871</ele>
        <time>2013-01-27T12:57:14Z</time>
      </trkpt>
      <trkpt lat="42.56647" lon="1.99534">
        <ele>2028.0385742</ele>
        <time>2013-01-27T12:57:22Z</time>
      </trkpt>
      <trkpt lat="42.56644" lon="1.99537">
        <ele>2027.5576172</ele>
        <time>2013-01-27T12:57:28Z</time>
      </trkpt>
      <trkpt lat="42.56641" lon="1.9954">
        <ele>2026.5964355</ele>
        <time>2013-01-27T12:57:36Z</time>
      </trkpt>
      <trkpt lat="42.56637" lon="1.9954">
        <ele>2024.6738281</ele>
        <time>2013-01-27T12:57:44Z</time>
      </trkpt>
      <trkpt lat="42.56633" lon="1.99542">
        <ele>2023.7124023</ele>
        <time>2013-01-27T12:57:52Z</time>
      </trkpt>
      <trkpt lat="42.56628" lon="1.99543">
        <ele>2024.6738281</ele>
        <time>2013-01-27T12:58:00Z</time>
      </trkpt>
      <trkpt lat="42.56625" lon="1.99547">
        <ele>2021.7897949</ele>
        <time>2013-01-27T12:58:06Z</time>
      </trkpt>
      <trkpt lat="42.5662" lon="1.9955">
        <ele>2020.8286133</ele>
        <time>2013-01-27T12:58:15Z</time>
      </trkpt>
      <trkpt lat="42.56619" lon="1.99551">
        <ele>2019.3867188</ele>
        <time>2013-01-27T12:58:22Z</time>
      </trkpt>
      <trkpt lat="42.56614" lon="1.99551">
        <ele>2021.309082</ele>
        <time>2013-01-27T12:58:31Z</time>
      </trkpt>
      <trkpt lat="42.56612" lon="1.99555">
        <ele>2026.5964355</ele>
        <time>2013-01-27T12:58:44Z</time>
      </trkpt>
      <trkpt lat="42.56613" lon="1.99556">
        <ele>2027.0771484</ele>
        <time>2013-01-27T12:58:54Z</time>
      </trkpt>
      <trkpt lat="42.56609" lon="1.99553">
        <ele>2028.0385742</ele>
        <time>2013-01-27T12:59:05Z</time>
      </trkpt>
      <trkpt lat="42.56605" lon="1.99552">
        <ele>2025.1542969</ele>
        <time>2013-01-27T12:59:12Z</time>
      </trkpt>
      <trkpt lat="42.56602" lon="1.99551">
        <ele>2023.2319336</ele>
        <time>2013-01-27T12:59:19Z</time>
      </trkpt>
      <trkpt lat="42.56597" lon="1.99551">
        <ele>2024.6738281</ele>
        <time>2013-01-27T12:59:29Z</time>
      </trkpt>
      <trkpt lat="42.56592" lon="1.99549">
        <ele>2028.5192871</ele>
        <time>2013-01-27T12:59:41Z</time>
      </trkpt>
      <trkpt lat="42.56587" lon="1.99547">
        <ele>2032.364502</ele>
        <time>2013-01-27T12:59:53Z</time>
      </trkpt>
      <trkpt lat="42.56584" lon="1.99549">
        <ele>2031.8837891</ele>
        <time>2013-01-27T13:00:02Z</time>
      </trkpt>
      <trkpt lat="42.56582" lon="1.9955">
        <ele>2028.9997559</ele>
        <time>2013-01-27T13:00:08Z</time>
      </trkpt>
      <trkpt lat="42.56579" lon="1.99553">
        <ele>2027.0771484</ele>
        <time>2013-01-27T13:00:16Z</time>
      </trkpt>
      <trkpt lat="42.56575" lon="1.99556">
        <ele>2026.1157227</ele>
        <time>2013-01-27T13:00:22Z</time>
      </trkpt>
      <trkpt lat="42.56568" lon="1.99559">
        <ele>2026.5964355</ele>
        <time>2013-01-27T13:00:31Z</time>
      </trkpt>
      <trkpt lat="42.56563" lon="1.99563">
        <ele>2026.1157227</ele>
        <time>2013-01-27T13:00:39Z</time>
      </trkpt>
      <trkpt lat="42.56559" lon="1.99563">
        <ele>2023.2319336</ele>
        <time>2013-01-27T13:00:46Z</time>
      </trkpt>
      <trkpt lat="42.56551" lon="1.99564">
        <ele>2022.7512207</ele>
        <time>2013-01-27T13:00:56Z</time>
      </trkpt>
      <trkpt lat="42.56545" lon="1.99565">
        <ele>2022.2705078</ele>
        <time>2013-01-27T13:01:04Z</time>
      </trkpt>
      <trkpt lat="42.5654" lon="1.99565">
        <ele>2022.2705078</ele>
        <time>2013-01-27T13:01:11Z</time>
      </trkpt>
      <trkpt lat="42.56534" lon="1.99568">
        <ele>2025.6350098</ele>
        <time>2013-01-27T13:01:20Z</time>
      </trkpt>
      <trkpt lat="42.56529" lon="1.9957">
        <ele>2024.1931152</ele>
        <time>2013-01-27T13:01:28Z</time>
      </trkpt>
      <trkpt lat="42.56523" lon="1.99575">
        <ele>2026.1157227</ele>
        <time>2013-01-27T13:01:36Z</time>
      </trkpt>
      <trkpt lat="42.56518" lon="1.99578">
        <ele>2027.0771484</ele>
        <time>2013-01-27T13:01:42Z</time>
      </trkpt>
      <trkpt lat="42.56513" lon="1.99583">
        <ele>2027.0771484</ele>
        <time>2013-01-27T13:01:51Z</time>
      </trkpt>
      <trkpt lat="42.5651" lon="1.99584">
        <ele>2026.5964355</ele>
        <time>2013-01-27T13:01:58Z</time>
      </trkpt>
      <trkpt lat="42.56506" lon="1.99584">
        <ele>2026.1157227</ele>
        <time>2013-01-27T13:02:04Z</time>
      </trkpt>
      <trkpt lat="42.56502" lon="1.99583">
        <ele>2026.5964355</ele>
        <time>2013-01-27T13:02:12Z</time>
      </trkpt>
      <trkpt lat="42.56499" lon="1.99582">
        <ele>2024.6738281</ele>
        <time>2013-01-27T13:02:20Z</time>
      </trkpt>
      <trkpt lat="42.56492" lon="1.99586">
        <ele>2034.2871094</ele>
        <time>2013-01-27T13:02:30Z</time>
      </trkpt>
      <trkpt lat="42.56489" lon="1.99588">
        <ele>2035.248291</ele>
        <time>2013-01-27T13:02:38Z</time>
      </trkpt>
      <trkpt lat="42.56486" lon="1.99584">
        <ele>2037.1708984</ele>
        <time>2013-01-27T13:02:44Z</time>
      </trkpt>
      <trkpt lat="42.56486" lon="1.99583">
        <ele>2033.8063965</ele>
        <time>2013-01-27T13:02:53Z</time>
      </trkpt>
      <trkpt lat="42.56484" lon="1.99579">
        <ele>2029.9611816</ele>
        <time>2013-01-27T13:03:01Z</time>
      </trkpt>
      <trkpt lat="42.56481" lon="1.99577">
        <ele>2028.0385742</ele>
        <time>2013-01-27T13:03:09Z</time>
      </trkpt>
      <trkpt lat="42.56479" lon="1.99572">
        <ele>2024.6738281</ele>
        <time>2013-01-27T13:03:16Z</time>
      </trkpt>
      <trkpt lat="42.56478" lon="1.99567">
        <ele>2024.6738281</ele>
        <time>2013-01-27T13:03:21Z</time>
      </trkpt>
      <trkpt lat="42.56473" lon="1.99562">
        <ele>2023.7124023</ele>
        <time>2013-01-27T13:03:29Z</time>
      </trkpt>
      <trkpt lat="42.56471" lon="1.9956">
        <ele>2024.6738281</ele>
        <time>2013-01-27T13:03:37Z</time>
      </trkpt>
      <trkpt lat="42.56468" lon="1.99558">
        <ele>2027.5576172</ele>
        <time>2013-01-27T13:03:47Z</time>
      </trkpt>
      <trkpt lat="42.56462" lon="1.99551">
        <ele>2037.1708984</ele>
        <time>2013-01-27T13:04:04Z</time>
      </trkpt>
      <trkpt lat="42.5646" lon="1.9955">
        <ele>2035.7290039</ele>
        <time>2013-01-27T13:04:11Z</time>
      </trkpt>
      <trkpt lat="42.56457" lon="1.99547">
        <ele>2037.1708984</ele>
        <time>2013-01-27T13:04:19Z</time>
      </trkpt>
      <trkpt lat="42.5645" lon="1.99538">
        <ele>2041.9775391</ele>
        <time>2013-01-27T13:04:46Z</time>
      </trkpt>
      <trkpt lat="42.56449" lon="1.99534">
        <ele>2042.458252</ele>
        <time>2013-01-27T13:04:54Z</time>
      </trkpt>
      <trkpt lat="42.56447" lon="1.99532">
        <ele>2043.9001465</ele>
        <time>2013-01-27T13:05:03Z</time>
      </trkpt>
      <trkpt lat="42.56456" lon="1.99541">
        <ele>2035.248291</ele>
        <time>2013-01-27T13:05:24Z</time>
      </trkpt>
      <trkpt lat="42.56454" lon="1.9955">
        <ele>2039.0935059</ele>
        <time>2013-01-27T13:05:38Z</time>
      </trkpt>
      <trkpt lat="42.56451" lon="1.99548">
        <ele>2039.5742188</ele>
        <time>2013-01-27T13:05:51Z</time>
      </trkpt>
      <trkpt lat="42.56444" lon="1.99537">
        <ele>2045.3422852</ele>
        <time>2013-01-27T13:06:37Z</time>
      </trkpt>
      <trkpt lat="42.56443" lon="1.99531">
        <ele>2045.3422852</ele>
        <time>2013-01-27T13:06:50Z</time>
      </trkpt>
      <trkpt lat="42.56446" lon="1.99528">
        <ele>2039.5742188</ele>
        <time>2013-01-27T13:07:03Z</time>
      </trkpt>
      <trkpt lat="42.56446" lon="1.9953">
        <ele>2036.6901855</ele>
        <time>2013-01-27T13:07:15Z</time>
      </trkpt>
      <trkpt lat="42.56445" lon="1.99529">
        <ele>2038.6130371</ele>
        <time>2013-01-27T13:07:25Z</time>
      </trkpt>
      <trkpt lat="42.56442" lon="1.99525">
        <ele>2036.2097168</ele>
        <time>2013-01-27T13:07:37Z</time>
      </trkpt>
      <trkpt lat="42.56437" lon="1.99521">
        <ele>2034.7678223</ele>
        <time>2013-01-27T13:07:45Z</time>
      </trkpt>
      <trkpt lat="42.56434" lon="1.9952">
        <ele>2035.248291</ele>
        <time>2013-01-27T13:07:53Z</time>
      </trkpt>
      <trkpt lat="42.56431" lon="1.99519">
        <ele>2036.2097168</ele>
        <time>2013-01-27T13:07:59Z</time>
      </trkpt>
      <trkpt lat="42.56427" lon="1.9952">
        <ele>2036.2097168</ele>
        <time>2013-01-27T13:08:07Z</time>
      </trkpt>
      <trkpt lat="42.56425" lon="1.99522">
        <ele>2036.2097168</ele>
        <time>2013-01-27T13:08:13Z</time>
      </trkpt>
      <trkpt lat="42.56422" lon="1.99525">
        <ele>2037.1708984</ele>
        <time>2013-01-27T13:08:19Z</time>
      </trkpt>
      <trkpt lat="42.5642" lon="1.9953">
        <ele>2038.6130371</ele>
        <time>2013-01-27T13:08:26Z</time>
      </trkpt>
      <trkpt lat="42.56417" lon="1.99533">
        <ele>2038.1323242</ele>
        <time>2013-01-27T13:08:32Z</time>
      </trkpt>
      <trkpt lat="42.56417" lon="1.99537">
        <ele>2039.0935059</ele>
        <time>2013-01-27T13:08:37Z</time>
      </trkpt>
      <trkpt lat="42.56416" lon="1.99539">
        <ele>2039.5742188</ele>
        <time>2013-01-27T13:08:42Z</time>
      </trkpt>
      <trkpt lat="42.56416" lon="1.99544">
        <ele>2041.4968262</ele>
        <time>2013-01-27T13:08:47Z</time>
      </trkpt>
      <trkpt lat="42.56414" lon="1.99548">
        <ele>2043.4194336</ele>
        <time>2013-01-27T13:08:52Z</time>
      </trkpt>
      <trkpt lat="42.56413" lon="1.99552">
        <ele>2041.0161133</ele>
        <time>2013-01-27T13:08:58Z</time>
      </trkpt>
      <trkpt lat="42.5641" lon="1.99558">
        <ele>2043.4194336</ele>
        <time>2013-01-27T13:09:05Z</time>
      </trkpt>
      <trkpt lat="42.56407" lon="1.99564">
        <ele>2038.6130371</ele>
        <time>2013-01-27T13:09:13Z</time>
      </trkpt>
      <trkpt lat="42.56404" lon="1.99569">
        <ele>2036.2097168</ele>
        <time>2013-01-27T13:09:21Z</time>
      </trkpt>
      <trkpt lat="42.56401" lon="1.99579">
        <ele>2033.8063965</ele>
        <time>2013-01-27T13:09:33Z</time>
      </trkpt>
      <trkpt lat="42.56396" lon="1.99586">
        <ele>2040.5354004</ele>
        <time>2013-01-27T13:09:44Z</time>
      </trkpt>
      <trkpt lat="42.56391" lon="1.99593">
        <ele>2040.5354004</ele>
        <time>2013-01-27T13:09:52Z</time>
      </trkpt>
      <trkpt lat="42.56386" lon="1.99596">
        <ele>2039.0935059</ele>
        <time>2013-01-27T13:10:00Z</time>
      </trkpt>
      <trkpt lat="42.56379" lon="1.99606">
        <ele>2039.0935059</ele>
        <time>2013-01-27T13:10:16Z</time>
      </trkpt>
      <trkpt lat="42.56373" lon="1.99609">
        <ele>2045.822998</ele>
        <time>2013-01-27T13:10:44Z</time>
      </trkpt>
      <trkpt lat="42.56371" lon="1.99608">
        <ele>2041.4968262</ele>
        <time>2013-01-27T13:10:54Z</time>
      </trkpt>
      <trkpt lat="42.56367" lon="1.99605">
        <ele>2039.5742188</ele>
        <time>2013-01-27T13:11:01Z</time>
      </trkpt>
      <trkpt lat="42.56364" lon="1.99606">
        <ele>2036.2097168</ele>
        <time>2013-01-27T13:11:09Z</time>
      </trkpt>
      <trkpt lat="42.56364" lon="1.99609">
        <ele>2033.3256836</ele>
        <time>2013-01-27T13:11:13Z</time>
      </trkpt>
      <trkpt lat="42.5636" lon="1.99612">
        <ele>2029.9611816</ele>
        <time>2013-01-27T13:11:21Z</time>
      </trkpt>
      <trkpt lat="42.56356" lon="1.99615">
        <ele>2027.0771484</ele>
        <time>2013-01-27T13:11:28Z</time>
      </trkpt>
      <trkpt lat="42.56353" lon="1.99619">
        <ele>2028.5192871</ele>
        <time>2013-01-27T13:11:33Z</time>
      </trkpt>
      <trkpt lat="42.56347" lon="1.99625">
        <ele>2030.4418945</ele>
        <time>2013-01-27T13:11:40Z</time>
      </trkpt>
      <trkpt lat="42.56342" lon="1.9963">
        <ele>2029.9611816</ele>
        <time>2013-01-27T13:11:47Z</time>
      </trkpt>
      <trkpt lat="42.56337" lon="1.99635">
        <ele>2031.8837891</ele>
        <time>2013-01-27T13:11:55Z</time>
      </trkpt>
      <trkpt lat="42.56333" lon="1.99639">
        <ele>2033.8063965</ele>
        <time>2013-01-27T13:11:59Z</time>
      </trkpt>
      <trkpt lat="42.56331" lon="1.99642">
        <ele>2034.7678223</ele>
        <time>2013-01-27T13:12:06Z</time>
      </trkpt>
      <trkpt lat="42.56328" lon="1.99646">
        <ele>2036.2097168</ele>
        <time>2013-01-27T13:12:13Z</time>
      </trkpt>
      <trkpt lat="42.56324" lon="1.99647">
        <ele>2034.2871094</ele>
        <time>2013-01-27T13:12:21Z</time>
      </trkpt>
      <trkpt lat="42.56319" lon="1.99647">
        <ele>2034.2871094</ele>
        <time>2013-01-27T13:12:27Z</time>
      </trkpt>
      <trkpt lat="42.56311" lon="1.99647">
        <ele>2034.2871094</ele>
        <time>2013-01-27T13:12:37Z</time>
      </trkpt>
      <trkpt lat="42.56305" lon="1.99649">
        <ele>2035.7290039</ele>
        <time>2013-01-27T13:12:45Z</time>
      </trkpt>
      <trkpt lat="42.56301" lon="1.99651">
        <ele>2032.8449707</ele>
        <time>2013-01-27T13:12:52Z</time>
      </trkpt>
      <trkpt lat="42.56295" lon="1.99654">
        <ele>2032.8449707</ele>
        <time>2013-01-27T13:12:59Z</time>
      </trkpt>
      <trkpt lat="42.56291" lon="1.99656">
        <ele>2027.0771484</ele>
        <time>2013-01-27T13:13:10Z</time>
      </trkpt>
      <trkpt lat="42.56286" lon="1.99658">
        <ele>2031.8837891</ele>
        <time>2013-01-27T13:13:19Z</time>
      </trkpt>
      <trkpt lat="42.56283" lon="1.99659">
        <ele>2032.8449707</ele>
        <time>2013-01-27T13:13:27Z</time>
      </trkpt>
      <trkpt lat="42.56278" lon="1.99659">
        <ele>2032.8449707</ele>
        <time>2013-01-27T13:13:34Z</time>
      </trkpt>
      <trkpt lat="42.56274" lon="1.99659">
        <ele>2032.364502</ele>
        <time>2013-01-27T13:13:40Z</time>
      </trkpt>
      <trkpt lat="42.5627" lon="1.99662">
        <ele>2030.4418945</ele>
        <time>2013-01-27T13:13:46Z</time>
      </trkpt>
      <trkpt lat="42.56264" lon="1.99667">
        <ele>2030.4418945</ele>
        <time>2013-01-27T13:13:55Z</time>
      </trkpt>
      <trkpt lat="42.56259" lon="1.99668">
        <ele>2030.4418945</ele>
        <time>2013-01-27T13:14:02Z</time>
      </trkpt>
      <trkpt lat="42.56254" lon="1.99674">
        <ele>2033.8063965</ele>
        <time>2013-01-27T13:14:07Z</time>
      </trkpt>
      <trkpt lat="42.56253" lon="1.99674">
        <ele>2033.3256836</ele>
        <time>2013-01-27T13:14:08Z</time>
      </trkpt>
      <trkpt lat="42.5625" lon="1.99678">
        <ele>2033.8063965</ele>
        <time>2013-01-27T13:14:12Z</time>
      </trkpt>
      <trkpt lat="42.56246" lon="1.99682">
        <ele>2033.3256836</ele>
        <time>2013-01-27T13:14:19Z</time>
      </trkpt>
      <trkpt lat="42.56244" lon="1.99686">
        <ele>2032.8449707</ele>
        <time>2013-01-27T13:14:25Z</time>
      </trkpt>
      <trkpt lat="42.56243" lon="1.99689">
        <ele>2031.8837891</ele>
        <time>2013-01-27T13:14:31Z</time>
      </trkpt>
      <trkpt lat="42.56246" lon="1.99689">
        <ele>2030.9226074</ele>
        <time>2013-01-27T13:14:57Z</time>
      </trkpt>
      <trkpt lat="42.56248" lon="1.99689">
        <ele>2027.5576172</ele>
        <time>2013-01-27T13:15:12Z</time>
      </trkpt>
      <trkpt lat="42.56245" lon="1.99693">
        <ele>2026.5964355</ele>
        <time>2013-01-27T13:15:33Z</time>
      </trkpt>
      <trkpt lat="42.5624" lon="1.99691">
        <ele>2025.1542969</ele>
        <time>2013-01-27T13:15:42Z</time>
      </trkpt>
      <trkpt lat="42.56231" lon="1.99689">
        <ele>2029.4804688</ele>
        <time>2013-01-27T13:15:54Z</time>
      </trkpt>
      <trkpt lat="42.56226" lon="1.99688">
        <ele>2032.364502</ele>
        <time>2013-01-27T13:16:05Z</time>
      </trkpt>
      <trkpt lat="42.56222" lon="1.9969">
        <ele>2032.8449707</ele>
        <time>2013-01-27T13:16:13Z</time>
      </trkpt>
      <trkpt lat="42.56219" lon="1.99692">
        <ele>2028.5192871</ele>
        <time>2013-01-27T13:16:20Z</time>
      </trkpt>
      <trkpt lat="42.56211" lon="1.99693">
        <ele>2033.3256836</ele>
        <time>2013-01-27T13:16:32Z</time>
      </trkpt>
      <trkpt lat="42.56208" lon="1.99693">
        <ele>2032.364502</ele>
        <time>2013-01-27T13:16:39Z</time>
      </trkpt>
      <trkpt lat="42.56204" lon="1.99693">
        <ele>2034.7678223</ele>
        <time>2013-01-27T13:16:45Z</time>
      </trkpt>
      <trkpt lat="42.56199" lon="1.99693">
        <ele>2035.7290039</ele>
        <time>2013-01-27T13:16:53Z</time>
      </trkpt>
      <trkpt lat="42.56193" lon="1.99695">
        <ele>2041.0161133</ele>
        <time>2013-01-27T13:17:01Z</time>
      </trkpt>
      <trkpt lat="42.56188" lon="1.99699">
        <ele>2043.9001465</ele>
        <time>2013-01-27T13:17:07Z</time>
      </trkpt>
      <trkpt lat="42.56187" lon="1.99699">
        <ele>2040.5354004</ele>
        <time>2013-01-27T13:17:20Z</time>
      </trkpt>
      <trkpt lat="42.56187" lon="1.99699">
        <ele>2041.4968262</ele>
        <time>2013-01-27T13:17:21Z</time>
      </trkpt>
      <trkpt lat="42.56183" lon="1.99702">
        <ele>2047.2648926</ele>
        <time>2013-01-27T13:17:31Z</time>
      </trkpt>
      <trkpt lat="42.56179" lon="1.99704">
        <ele>2048.7067871</ele>
        <time>2013-01-27T13:17:38Z</time>
      </trkpt>
      <trkpt lat="42.56179" lon="1.99701">
        <ele>2041.9775391</ele>
        <time>2013-01-27T13:17:48Z</time>
      </trkpt>
      <trkpt lat="42.56175" lon="1.997">
        <ele>2038.1323242</ele>
        <time>2013-01-27T13:17:55Z</time>
      </trkpt>
      <trkpt lat="42.56173" lon="1.997">
        <ele>2037.1708984</ele>
        <time>2013-01-27T13:17:59Z</time>
      </trkpt>
      <trkpt lat="42.56169" lon="1.99701">
        <ele>2035.248291</ele>
        <time>2013-01-27T13:18:06Z</time>
      </trkpt>
      <trkpt lat="42.56164" lon="1.99705">
        <ele>2036.2097168</ele>
        <time>2013-01-27T13:18:12Z</time>
      </trkpt>
      <trkpt lat="42.56157" lon="1.99714">
        <ele>2038.6130371</ele>
        <time>2013-01-27T13:18:24Z</time>
      </trkpt>
      <trkpt lat="42.56156" lon="1.99714">
        <ele>2037.6516113</ele>
        <time>2013-01-27T13:18:25Z</time>
      </trkpt>
      <trkpt lat="42.56152" lon="1.99719">
        <ele>2037.1708984</ele>
        <time>2013-01-27T13:18:31Z</time>
      </trkpt>
      <trkpt lat="42.56148" lon="1.9972">
        <ele>2039.5742188</ele>
        <time>2013-01-27T13:18:42Z</time>
      </trkpt>
      <trkpt lat="42.56143" lon="1.99719">
        <ele>2042.9387207</ele>
        <time>2013-01-27T13:18:48Z</time>
      </trkpt>
      <trkpt lat="42.56139" lon="1.99717">
        <ele>2042.458252</ele>
        <time>2013-01-27T13:18:55Z</time>
      </trkpt>
      <trkpt lat="42.56135" lon="1.99717">
        <ele>2038.6130371</ele>
        <time>2013-01-27T13:19:02Z</time>
      </trkpt>
      <trkpt lat="42.56132" lon="1.9972">
        <ele>2033.8063965</ele>
        <time>2013-01-27T13:19:13Z</time>
      </trkpt>
      <trkpt lat="42.56129" lon="1.99725">
        <ele>2028.9997559</ele>
        <time>2013-01-27T13:19:25Z</time>
      </trkpt>
      <trkpt lat="42.56123" lon="1.99729">
        <ele>2033.8063965</ele>
        <time>2013-01-27T13:19:32Z</time>
      </trkpt>
      <trkpt lat="42.56117" lon="1.99732">
        <ele>2035.248291</ele>
        <time>2013-01-27T13:19:41Z</time>
      </trkpt>
      <trkpt lat="42.56115" lon="1.99733">
        <ele>2033.3256836</ele>
        <time>2013-01-27T13:19:47Z</time>
      </trkpt>
      <trkpt lat="42.5611" lon="1.99737">
        <ele>2033.8063965</ele>
        <time>2013-01-27T13:19:55Z</time>
      </trkpt>
      <trkpt lat="42.56104" lon="1.99739">
        <ele>2032.8449707</ele>
        <time>2013-01-27T13:20:03Z</time>
      </trkpt>
      <trkpt lat="42.56098" lon="1.99739">
        <ele>2032.364502</ele>
        <time>2013-01-27T13:20:11Z</time>
      </trkpt>
      <trkpt lat="42.56095" lon="1.99747">
        <ele>2035.248291</ele>
        <time>2013-01-27T13:20:18Z</time>
      </trkpt>
      <trkpt lat="42.56091" lon="1.99756">
        <ele>2043.4194336</ele>
        <time>2013-01-27T13:20:46Z</time>
      </trkpt>
      <trkpt lat="42.56088" lon="1.99763">
        <ele>2041.0161133</ele>
        <time>2013-01-27T13:20:54Z</time>
      </trkpt>
      <trkpt lat="42.56087" lon="1.99768">
        <ele>2039.0935059</ele>
        <time>2013-01-27T13:21:02Z</time>
      </trkpt>
      <trkpt lat="42.56085" lon="1.99773">
        <ele>2035.248291</ele>
        <time>2013-01-27T13:21:11Z</time>
      </trkpt>
      <trkpt lat="42.56083" lon="1.99778">
        <ele>2031.8837891</ele>
        <time>2013-01-27T13:21:17Z</time>
      </trkpt>
      <trkpt lat="42.5608" lon="1.99783">
        <ele>2028.5192871</ele>
        <time>2013-01-27T13:21:25Z</time>
      </trkpt>
      <trkpt lat="42.56077" lon="1.99786">
        <ele>2027.5576172</ele>
        <time>2013-01-27T13:21:32Z</time>
      </trkpt>
      <trkpt lat="42.56073" lon="1.99793">
        <ele>2030.9226074</ele>
        <time>2013-01-27T13:21:55Z</time>
      </trkpt>
      <trkpt lat="42.5607" lon="1.99797">
        <ele>2030.4418945</ele>
        <time>2013-01-27T13:22:03Z</time>
      </trkpt>
      <trkpt lat="42.56065" lon="1.998">
        <ele>2028.9997559</ele>
        <time>2013-01-27T13:22:11Z</time>
      </trkpt>
      <trkpt lat="42.56058" lon="1.99802">
        <ele>2028.5192871</ele>
        <time>2013-01-27T13:22:20Z</time>
      </trkpt>
      <trkpt lat="42.56055" lon="1.998">
        <ele>2026.1157227</ele>
        <time>2013-01-27T13:22:27Z</time>
      </trkpt>
      <trkpt lat="42.56049" lon="1.99799">
        <ele>2027.0771484</ele>
        <time>2013-01-27T13:22:37Z</time>
      </trkpt>
      <trkpt lat="42.56042" lon="1.99799">
        <ele>2029.9611816</ele>
        <time>2013-01-27T13:22:46Z</time>
      </trkpt>
      <trkpt lat="42.5604" lon="1.99798">
        <ele>2030.4418945</ele>
        <time>2013-01-27T13:22:53Z</time>
      </trkpt>
      <trkpt lat="42.56036" lon="1.99796">
        <ele>2041.0161133</ele>
        <time>2013-01-27T13:23:10Z</time>
      </trkpt>
      <trkpt lat="42.56036" lon="1.99798">
        <ele>2038.1323242</ele>
        <time>2013-01-27T13:23:25Z</time>
      </trkpt>
      <trkpt lat="42.56035" lon="1.99799">
        <ele>2034.7678223</ele>
        <time>2013-01-27T13:23:40Z</time>
      </trkpt>
      <trkpt lat="42.56031" lon="1.99802">
        <ele>2033.8063965</ele>
        <time>2013-01-27T13:23:48Z</time>
      </trkpt>
      <trkpt lat="42.56028" lon="1.99807">
        <ele>2031.8837891</ele>
        <time>2013-01-27T13:23:56Z</time>
      </trkpt>
      <trkpt lat="42.56024" lon="1.99815">
        <ele>2029.4804688</ele>
        <time>2013-01-27T13:24:06Z</time>
      </trkpt>
      <trkpt lat="42.56023" lon="1.99819">
        <ele>2028.9997559</ele>
        <time>2013-01-27T13:24:12Z</time>
      </trkpt>
      <trkpt lat="42.56019" lon="1.9983">
        <ele>2028.0385742</ele>
        <time>2013-01-27T13:24:23Z</time>
      </trkpt>
      <trkpt lat="42.56016" lon="1.99838">
        <ele>2027.5576172</ele>
        <time>2013-01-27T13:24:32Z</time>
      </trkpt>
      <trkpt lat="42.5601" lon="1.99847">
        <ele>2028.0385742</ele>
        <time>2013-01-27T13:24:41Z</time>
      </trkpt>
      <trkpt lat="42.56008" lon="1.99851">
        <ele>2028.0385742</ele>
        <time>2013-01-27T13:24:50Z</time>
      </trkpt>
      <trkpt lat="42.56005" lon="1.99853">
        <ele>2028.0385742</ele>
        <time>2013-01-27T13:25:05Z</time>
      </trkpt>
      <trkpt lat="42.56001" lon="1.99858">
        <ele>2027.5576172</ele>
        <time>2013-01-27T13:25:13Z</time>
      </trkpt>
      <trkpt lat="42.55995" lon="1.99865">
        <ele>2027.5576172</ele>
        <time>2013-01-27T13:25:22Z</time>
      </trkpt>
      <trkpt lat="42.55988" lon="1.99872">
        <ele>2027.0771484</ele>
        <time>2013-01-27T13:25:31Z</time>
      </trkpt>
      <trkpt lat="42.55981" lon="1.99879">
        <ele>2027.0771484</ele>
        <time>2013-01-27T13:25:40Z</time>
      </trkpt>
      <trkpt lat="42.55974" lon="1.99886">
        <ele>2026.1157227</ele>
        <time>2013-01-27T13:25:50Z</time>
      </trkpt>
      <trkpt lat="42.55974" lon="1.99895">
        <ele>2024.6738281</ele>
        <time>2013-01-27T13:25:58Z</time>
      </trkpt>
      <trkpt lat="42.55975" lon="1.99903">
        <ele>2024.1931152</ele>
        <time>2013-01-27T13:26:04Z</time>
      </trkpt>
      <trkpt lat="42.55978" lon="1.99916">
        <ele>2023.2319336</ele>
        <time>2013-01-27T13:26:13Z</time>
      </trkpt>
      <trkpt lat="42.55981" lon="1.99928">
        <ele>2022.2705078</ele>
        <time>2013-01-27T13:26:22Z</time>
      </trkpt>
      <trkpt lat="42.55983" lon="1.9994">
        <ele>2022.2705078</ele>
        <time>2013-01-27T13:26:30Z</time>
      </trkpt>
      <trkpt lat="42.55986" lon="1.99954">
        <ele>2021.309082</ele>
        <time>2013-01-27T13:26:40Z</time>
      </trkpt>
      <trkpt lat="42.55989" lon="1.99972">
        <ele>2021.7897949</ele>
        <time>2013-01-27T13:26:52Z</time>
      </trkpt>
      <trkpt lat="42.5599" lon="1.99987">
        <ele>2023.7124023</ele>
        <time>2013-01-27T13:27:01Z</time>
      </trkpt>
      <trkpt lat="42.55992" lon="1.99999">
        <ele>2024.1931152</ele>
        <time>2013-01-27T13:27:10Z</time>
      </trkpt>
      <trkpt lat="42.55994" lon="2.00014">
        <ele>2024.6738281</ele>
        <time>2013-01-27T13:27:21Z</time>
      </trkpt>
      <trkpt lat="42.55994" lon="2.00018">
        <ele>2026.5964355</ele>
        <time>2013-01-27T13:27:27Z</time>
      </trkpt>
      <trkpt lat="42.55996" lon="2.00027">
        <ele>2026.5964355</ele>
        <time>2013-01-27T13:27:34Z</time>
      </trkpt>
      <trkpt lat="42.55998" lon="2.00037">
        <ele>2026.1157227</ele>
        <time>2013-01-27T13:27:42Z</time>
      </trkpt>
      <trkpt lat="42.56001" lon="2.00051">
        <ele>2024.1931152</ele>
        <time>2013-01-27T13:27:52Z</time>
      </trkpt>
      <trkpt lat="42.56003" lon="2.00061">
        <ele>2023.2319336</ele>
        <time>2013-01-27T13:28:00Z</time>
      </trkpt>
      <trkpt lat="42.56004" lon="2.00075">
        <ele>2023.2319336</ele>
        <time>2013-01-27T13:28:10Z</time>
      </trkpt>
      <trkpt lat="42.56005" lon="2.00089">
        <ele>2023.7124023</ele>
        <time>2013-01-27T13:28:19Z</time>
      </trkpt>
      <trkpt lat="42.56008" lon="2.00103">
        <ele>2024.1931152</ele>
        <time>2013-01-27T13:28:29Z</time>
      </trkpt>
      <trkpt lat="42.5601" lon="2.00114">
        <ele>2024.1931152</ele>
        <time>2013-01-27T13:28:37Z</time>
      </trkpt>
      <trkpt lat="42.56012" lon="2.00124">
        <ele>2023.2319336</ele>
        <time>2013-01-27T13:28:44Z</time>
      </trkpt>
      <trkpt lat="42.56014" lon="2.00135">
        <ele>2023.2319336</ele>
        <time>2013-01-27T13:28:52Z</time>
      </trkpt>
      <trkpt lat="42.56015" lon="2.00147">
        <ele>2023.7124023</ele>
        <time>2013-01-27T13:29:00Z</time>
      </trkpt>
      <trkpt lat="42.56018" lon="2.0016">
        <ele>2024.6738281</ele>
        <time>2013-01-27T13:29:08Z</time>
      </trkpt>
      <trkpt lat="42.5602" lon="2.00172">
        <ele>2024.6738281</ele>
        <time>2013-01-27T13:29:17Z</time>
      </trkpt>
      <trkpt lat="42.56022" lon="2.00183">
        <ele>2022.7512207</ele>
        <time>2013-01-27T13:29:26Z</time>
      </trkpt>
      <trkpt lat="42.56025" lon="2.00192">
        <ele>2020.3479004</ele>
        <time>2013-01-27T13:29:34Z</time>
      </trkpt>
      <trkpt lat="42.56027" lon="2.00203">
        <ele>2020.3479004</ele>
        <time>2013-01-27T13:29:42Z</time>
      </trkpt>
      <trkpt lat="42.56028" lon="2.00215">
        <ele>2018.9060059</ele>
        <time>2013-01-27T13:29:49Z</time>
      </trkpt>
      <trkpt lat="42.5603" lon="2.00223">
        <ele>2017.4638672</ele>
        <time>2013-01-27T13:29:56Z</time>
      </trkpt>
      <trkpt lat="42.56032" lon="2.00233">
        <ele>2016.9833984</ele>
        <time>2013-01-27T13:30:03Z</time>
      </trkpt>
      <trkpt lat="42.56034" lon="2.00242">
        <ele>2016.0219727</ele>
        <time>2013-01-27T13:30:10Z</time>
      </trkpt>
      <trkpt lat="42.56032" lon="2.00248">
        <ele>2023.2319336</ele>
        <time>2013-01-27T13:30:18Z</time>
      </trkpt>
      <trkpt lat="42.56031" lon="2.00252">
        <ele>2026.1157227</ele>
        <time>2013-01-27T13:30:33Z</time>
      </trkpt>
      <trkpt lat="42.56034" lon="2.0026">
        <ele>2023.2319336</ele>
        <time>2013-01-27T13:30:41Z</time>
      </trkpt>
      <trkpt lat="42.56037" lon="2.00268">
        <ele>2019.3867188</ele>
        <time>2013-01-27T13:30:50Z</time>
      </trkpt>
      <trkpt lat="42.56039" lon="2.00281">
        <ele>2020.8286133</ele>
        <time>2013-01-27T13:31:01Z</time>
      </trkpt>
      <trkpt lat="42.56041" lon="2.0029">
        <ele>2018.9060059</ele>
        <time>2013-01-27T13:31:09Z</time>
      </trkpt>
      <trkpt lat="42.56043" lon="2.00298">
        <ele>2017.4638672</ele>
        <time>2013-01-27T13:31:16Z</time>
      </trkpt>
      <trkpt lat="42.56045" lon="2.00309">
        <ele>2017.9445801</ele>
        <time>2013-01-27T13:31:24Z</time>
      </trkpt>
      <trkpt lat="42.56046" lon="2.00319">
        <ele>2017.9445801</ele>
        <time>2013-01-27T13:31:34Z</time>
      </trkpt>
      <trkpt lat="42.56043" lon="2.00329">
        <ele>2018.425293</ele>
        <time>2013-01-27T13:31:42Z</time>
      </trkpt>
      <trkpt lat="42.56041" lon="2.0033">
        <ele>2018.425293</ele>
        <time>2013-01-27T13:31:44Z</time>
      </trkpt>
      <trkpt lat="42.5603" lon="2.00334">
        <ele>2018.425293</ele>
        <time>2013-01-27T13:31:54Z</time>
      </trkpt>
      <trkpt lat="42.5602" lon="2.00337">
        <ele>2019.3867188</ele>
        <time>2013-01-27T13:32:03Z</time>
      </trkpt>
      <trkpt lat="42.56013" lon="2.00342">
        <ele>2022.2705078</ele>
        <time>2013-01-27T13:32:10Z</time>
      </trkpt>
      <trkpt lat="42.56011" lon="2.00348">
        <ele>2022.2705078</ele>
        <time>2013-01-27T13:32:15Z</time>
      </trkpt>
      <trkpt lat="42.56006" lon="2.00355">
        <ele>2022.2705078</ele>
        <time>2013-01-27T13:32:23Z</time>
      </trkpt>
      <trkpt lat="42.56" lon="2.00357">
        <ele>2022.2705078</ele>
        <time>2013-01-27T13:32:30Z</time>
      </trkpt>
      <trkpt lat="42.55992" lon="2.00361">
        <ele>2021.7897949</ele>
        <time>2013-01-27T13:32:39Z</time>
      </trkpt>
      <trkpt lat="42.55985" lon="2.00368">
        <ele>2017.9445801</ele>
        <time>2013-01-27T13:32:48Z</time>
      </trkpt>
      <trkpt lat="42.55979" lon="2.00369">
        <ele>2015.5415039</ele>
        <time>2013-01-27T13:32:54Z</time>
      </trkpt>
      <trkpt lat="42.55967" lon="2.00365">
        <ele>2016.0219727</ele>
        <time>2013-01-27T13:33:04Z</time>
      </trkpt>
      <trkpt lat="42.55958" lon="2.00358">
        <ele>2016.5026855</ele>
        <time>2013-01-27T13:33:13Z</time>
      </trkpt>
      <trkpt lat="42.55951" lon="2.00352">
        <ele>2015.5415039</ele>
        <time>2013-01-27T13:33:22Z</time>
      </trkpt>
      <trkpt lat="42.55945" lon="2.00346">
        <ele>2015.5415039</ele>
        <time>2013-01-27T13:33:29Z</time>
      </trkpt>
      <trkpt lat="42.55937" lon="2.00336">
        <ele>2018.9060059</ele>
        <time>2013-01-27T13:33:37Z</time>
      </trkpt>
      <trkpt lat="42.55927" lon="2.00326">
        <ele>2020.8286133</ele>
        <time>2013-01-27T13:33:46Z</time>
      </trkpt>
      <trkpt lat="42.55921" lon="2.00318">
        <ele>2021.309082</ele>
        <time>2013-01-27T13:33:55Z</time>
      </trkpt>
      <trkpt lat="42.55914" lon="2.00313">
        <ele>2023.2319336</ele>
        <time>2013-01-27T13:34:02Z</time>
      </trkpt>
      <trkpt lat="42.55908" lon="2.0031">
        <ele>2022.2705078</ele>
        <time>2013-01-27T13:34:09Z</time>
      </trkpt>
      <trkpt lat="42.55906" lon="2.00311">
        <ele>2022.7512207</ele>
        <time>2013-01-27T13:34:16Z</time>
      </trkpt>
      <trkpt lat="42.55905" lon="2.00311">
        <ele>2020.8286133</ele>
        <time>2013-01-27T13:34:24Z</time>
      </trkpt>
      <trkpt lat="42.55898" lon="2.00308">
        <ele>2019.8671875</ele>
        <time>2013-01-27T13:34:33Z</time>
      </trkpt>
      <trkpt lat="42.55891" lon="2.0031">
        <ele>2018.9060059</ele>
        <time>2013-01-27T13:34:42Z</time>
      </trkpt>
      <trkpt lat="42.55891" lon="2.00314">
        <ele>2016.5026855</ele>
        <time>2013-01-27T13:34:50Z</time>
      </trkpt>
      <trkpt lat="42.55892" lon="2.0032">
        <ele>2012.6574707</ele>
        <time>2013-01-27T13:34:55Z</time>
      </trkpt>
      <trkpt lat="42.55891" lon="2.00327">
        <ele>2011.215332</ele>
        <time>2013-01-27T13:35:01Z</time>
      </trkpt>
      <trkpt lat="42.55894" lon="2.00337">
        <ele>2009.7731934</ele>
        <time>2013-01-27T13:35:11Z</time>
      </trkpt>
      <trkpt lat="42.55893" lon="2.00341">
        <ele>2013.6186523</ele>
        <time>2013-01-27T13:35:20Z</time>
      </trkpt>
      <trkpt lat="42.55892" lon="2.00346">
        <ele>2014.5800781</ele>
        <time>2013-01-27T13:35:26Z</time>
      </trkpt>
      <trkpt lat="42.55892" lon="2.0035">
        <ele>2015.5415039</ele>
        <time>2013-01-27T13:35:33Z</time>
      </trkpt>
      <trkpt lat="42.5589" lon="2.00353">
        <ele>2016.9833984</ele>
        <time>2013-01-27T13:35:43Z</time>
      </trkpt>
      <trkpt lat="42.55891" lon="2.00351">
        <ele>2012.1767578</ele>
        <time>2013-01-27T13:36:32Z</time>
      </trkpt>
      <trkpt lat="42.55883" lon="2.00347">
        <ele>2015.060791</ele>
        <time>2013-01-27T13:36:41Z</time>
      </trkpt>
      <trkpt lat="42.55888" lon="2.00343">
        <ele>2018.425293</ele>
        <time>2013-01-27T13:36:49Z</time>
      </trkpt>
      <trkpt lat="42.559" lon="2.00385">
        <ele>2013.6186523</ele>
        <time>2013-01-27T13:37:19Z</time>
      </trkpt>
      <trkpt lat="42.55907" lon="2.00384">
        <ele>2004.0056152</ele>
        <time>2013-01-27T13:37:24Z</time>
      </trkpt>
      <trkpt lat="42.55883" lon="2.00365">
        <ele>1987.6630859</ele>
        <time>2013-01-27T13:37:55Z</time>
      </trkpt>
      <trkpt lat="42.55911" lon="2.00317">
        <ele>2006.8894043</ele>
        <time>2013-01-27T13:38:03Z</time>
      </trkpt>
    </trkseg>
  </trk>
</gpx>